GFSSGP_con_mlcape_000.txt.gz
CAPE
0 0 0 0 0 0 0 0 0 5 45 85 109 126 127 131 123 65 353 493 567 689 789 578 481 481 523 491 395 490 545 558 501 534 544 378 190 91 31 12 0 37 33 15 9 19 16 5 4
0 0 0 0 0 0 0 0 70 69 61 31 23 35 65 34 459 417 497 725 562 854 877 681 540 604 611 546 557 648 696 598 558 597 443 199 93 15 0 0 0 2 0 0 0 0 0 0 0
0 0 0 0 0 0 0 1 67 69 29 11 0 0 0 58 609 453 681 748 745 831 779 798 700 688 652 631 680 746 729 653 645 550 320 151 50 1 0 0 0 0 0 0 0 0 0 0 0
0 0 0 0 0 0 0 38 0 5 0 9 0 1 61 171 527 576 862 827 737 808 715 705 729 783 791 799 829 790 701 672 621 428 204 136 22 0 0 0 0 0 0 0 0 0 0 0 0
0 0 0 0 0 0 0 23 14 15 16 0 0 2 27 735 732 854 848 802 726 656 727 807 931 926 867 839 790 713 726 510 328 198 142 48 0 0 0 0 0 0 0 0 0 0 0 0 0
0 0 0 0 0 0 0 28 81 89 55 10 28 77 136 848 750 894 899 814 785 834 974 958 938 889 818 727 760 815 668 321 222 144 40 0 0 0 0 0 0 0 0 0 0 0 0 0 0
0 0 0 0 0 0 21 82 118 67 4 59 120 108 471 579 655 1031 992 789 816 1019 1066 971 937 835 813 867 866 752 575 275 129 52 15 10 0 0 0 0 0 0 0 0 0 0 0 0 0
0 0 0 0 0 0 0 45 37 30 63 50 62 132 363 717 1032 977 804 658 683 788 981 1038 1061 1068 1020 883 731 532 318 138 103 40 49 5 0 0 0 0 0 0 0 0 0 0 0 0 0
0 0 0 5 2 0 0 7 10 27 67 44 15 185 414 803 971 721 711 691 714 786 882 956 994 1040 892 657 486 332 174 56 7 19 77 96 12 1 14 55 74 29 39 19 8 11 5 0 0
0 0 0 0 0 6 2 0 80 126 75 38 10 255 751 922 932 653 553 426 543 498 692 772 787 688 534 411 224 72 17 0 13 110 130 117 78 96 144 110 128 144 112 153 132 102 89 80 20
0 0 0 0 0 0 0 0 30 101 62 34 59 399 860 974 549 147 89 5 0 6 293 284 224 188 108 49 15 0 8 25 75 154 164 163 206 193 129 77 44 17 27 5 1 2 2 0 1
0 0 0 0 0 0 0 0 48 11 8 58 101 448 711 352 146 0 0 0 0 1 80 70 8 0 0 0 0 0 26 55 128 276 284 233 185 76 2 3 0 0 0 0 0 0 0 0 0
0 0 0 0 0 0 0 0 0 0 13 32 143 411 292 164 83 15 0 0 0 5 85 35 1 0 0 0 0 6 77 179 260 342 396 217 92 3 0 0 0 0 0 0 0 0 0 0 0
0 0 0 0 0 0 0 0 0 0 32 32 86 163 120 156 94 9 0 0 0 48 56 69 30 0 0 0 4 3 69 249 441 496 342 151 4 1 0 0 0 0 0 0 0 0 0 0 0
0 0 0 0 0 0 0 0 0 0 68 23 10 46 6 3 0 0 0 0 0 60 71 79 16 1 0 0 0 0 3 16 122 110 11 1 0 0 0 0 0 0 0 0 0 0 0 0 0
0 0 0 0 0 0 0 0 0 5 59 64 37 0 0 0 0 0 0 0 0 0 90 58 41 26 2 15 17 27 0 0 0 0 0 0 0 0 0 0 0 0 0 0 0 0 0 0 0
0 0 0 0 0 0 0 0 0 0 113 56 11 0 0 0 0 0 0 0 0 14 123 57 15 0 0 0 0 0 0 0 0 0 0 0 0 0 0 0 0 0 0 0 0 0 0 0 0
0 0 0 0 0 0 0 0 0 0 12 3 0 0 0 0 0 0 0 0 0 26 82 17 0 0 0 0 0 0 0 0 0 0 0 0 0 0 0 0 0 0 0 0 0 0 0 0 0
0 0 0 0 0 0 0 0 0 0 0 0 0 0 0 0 0 0 0 0 0 1 11 12 0 0 0 0 0 0 0 0 0 0 0 0 0 0 0 0 0 0 0 0 0 0 0 0 0
0 0 0 0 0 0 0 0 0 0 0 0 0 0 0 0 0 0 0 0 0 0 0 0 0 0 0 0 0 0 0 0 0 0 0 0 0 0 0 0 0 0 0 0 0 0 0 0 0
0 0 0 0 0 0 0 0 0 0 0 0 0 0 0 0 0 0 0 0 0 0 0 0 0 0 0 0 0 0 0 0 0 0 0 0 0 0 0 0 0 0 0 0 0 0 0 0 0
0 0 0 0 0 0 0 0 0 0 0 0 0 0 0 0 0 0 0 0 0 0 0 0 0 0 0 0 0 0 0 0 0 0 0 0 0 0 0 0 0 0 0 0 0 0 0 0 0
0 0 0 0 0 0 0 0 0 0 0 0 0 0 0 0 0 0 0 0 0 0 0 0 0 0 0 0 0 0 0 0 0 0 0 0 0 0 0 0 0 0 0 0 0 0 0 0 0
0 0 0 0 0 0 0 0 0 0 0 0 0 0 0 0 0 0 0 0 0 0 0 0 0 0 0 0 0 0 0 0 0 0 0 0 0 0 0 0 0 0 0 0 0 0 0 0 0
0 0 0 0 0 0 0 0 0 0 0 0 0 0 0 0 0 0 0 0 0 0 0 0 0 0 0 0 0 0 0 0 0 0 0 0 0 0 0 0 0 0 0 0 0 0 0 0 0
0 0 0 0 0 0 0 0 0 0 0 0 0 0 0 0 0 0 0 0 0 0 0 0 0 0 0 0 0 0 0 0 0 0 0 0 0 0 0 0 0 0 0 0 0 0 0 0 0
0 0 0 0 0 0 0 0 0 0 0 0 0 0 0 0 0 0 0 0 0 0 0 0 0 0 0 0 0 0 0 0 0 0 0 0 0 0 0 0 0 0 0 0 0 0 0 0 0
0 0 0 0 0 0 0 0 0 0 0 0 0 0 0 0 0 0 0 0 0 0 0 0 0 0 0 0 0 0 0 0 0 0 0 0 0 0 0 0 0 0 0 0 0 0 0 0 0
0 0 0 0 0 0 0 0 0 0 0 0 0 0 0 0 0 0 0 0 0 0 0 0 0 0 0 0 0 0 0 0 0 0 0 0 0 0 0 0 0 0 0 0 0 0 0 0 0
0 0 0 0 0 0 0 0 0 0 0 0 0 0 0 0 0 0 0 0 0 0 0 0 0 0 0 0 0 0 0 0 0 0 0 0 0 0 0 0 0 0 0 0 0 0 0 0 0

GFSSGP_con_mlcape_006.txt.gz
CAPE
0 0 0 0 0 0 0 0 91 387 390 390 386 224 110 126 384 170 494 600 695 820 765 354 250 313 355 328 324 329 340 404 467 419 259 162 50 0 0 0 0 0 0 0 0 0 0 0 0
0 0 0 0 0 0 0 0 2 416 177 24 14 60 13 2 147 560 503 824 793 978 921 537 257 314 363 379 400 417 489 566 552 382 193 50 0 0 0 0 0 0 0 0 0 0 0 0 0
0 0 0 0 0 0 0 8 420 213 29 4 0 2 6 0 53 446 590 926 1034 984 872 657 350 350 298 395 430 495 576 621 551 319 157 88 0 0 0 0 0 0 0 0 0 0 0 0 0
0 0 0 0 0 0 5 263 284 184 101 23 0 0 0 0 1 188 620 884 971 909 1024 466 401 336 313 455 540 637 655 676 497 304 226 118 13 0 0 0 0 0 0 0 0 0 0 0 0
0 0 0 0 0 0 24 374 348 260 80 41 22 12 4 350 603 613 983 847 479 576 982 670 542 418 439 596 734 744 671 702 483 323 225 91 0 0 0 0 0 0 0 0 0 0 0 0 0
0 0 0 0 0 0 0 295 482 232 9 15 52 160 189 999 942 1029 1184 533 514 960 973 745 603 571 636 754 836 729 739 653 390 268 150 29 0 0 0 0 0 0 0 0 0 0 0 0 0
0 0 0 0 8 17 15 338 340 90 23 80 141 339 1032 1120 1288 1474 1129 808 866 1158 1086 793 768 761 857 861 800 767 571 459 307 153 40 0 0 0 0 0 0 0 0 0 0 0 0 0 0
0 0 0 0 60 112 175 398 40 0 5 246 405 339 816 1361 1275 1052 880 1007 1302 1107 1155 1120 950 963 914 921 833 796 524 346 241 60 14 0 1 0 0 4 8 12 0 0 0 0 5 0 0
0 0 0 33 96 216 281 97 70 12 139 371 186 695 1213 1418 1054 1017 917 880 1209 1036 1030 889 850 868 865 910 863 597 380 190 45 48 42 111 140 185 125 68 56 49 35 39 51 22 8 0 39
0 0 5 31 82 61 9 5 30 238 355 241 682 1216 1610 1278 1301 1315 1173 967 948 924 994 1000 1001 846 851 716 607 384 204 105 83 220 441 276 603 565 369 206 108 54 39 45 0 0 0 10 0
0 0 0 0 4 32 26 33 80 252 310 271 830 1296 1508 1357 1409 1246 979 804 697 698 799 783 701 683 707 460 240 26 7 93 290 563 697 696 799 759 488 245 181 212 8 42 0 0 0 0 0
0 0 0 0 0 2 18 42 160 164 49 161 1139 1399 1608 1485 1366 1126 944 538 580 556 709 689 483 540 484 85 45 97 150 418 537 736 909 851 721 597 275 157 114 117 24 0 0 0 0 0 0
0 0 0 0 0 27 56 214 206 10 260 813 1270 1402 1424 1001 825 476 430 382 324 345 467 435 321 258 163 174 266 401 567 689 802 972 1016 557 109 74 193 149 22 0 0 0 0 0 0 0 0
0 0 0 0 0 0 64 36 21 0 290 808 1092 1065 1181 1133 562 391 285 218 138 352 353 246 86 185 412 492 621 222 90 115 355 779 393 122 6 0 15 4 0 0 0 0 0 0 0 0 0
0 0 0 0 0 0 0 0 0 0 154 860 828 913 1067 1015 606 249 109 19 135 404 315 195 252 456 257 113 75 22 23 33 67 257 262 138 45 4 0 0 0 0 0 0 0 0 0 0 0
0 0 0 0 0 0 0 0 0 18 217 673 870 997 935 708 467 314 170 2 157 444 371 179 246 212 11 0 0 0 1 2 5 0 0 0 0 0 0 0 0 0 0 0 0 0 0 0 0
0 0 0 0 0 0 0 0 0 112 224 313 514 579 367 208 245 274 84 29 190 444 415 369 176 1 0 0 0 0 0 0 0 0 0 0 0 0 0 0 0 0 0 0 0 0 0 0 0
0 0 0 0 0 0 0 0 0 107 250 217 255 302 271 226 277 263 36 150 349 583 569 373 123 21 112 50 0 0 0 0 0 0 0 0 0 0 0 0 0 0 0 0 0 0 0 0 0
0 0 0 0 0 43 30 24 0 60 249 344 302 225 191 169 243 324 457 464 516 674 572 386 194 119 173 16 0 0 0 0 0 0 0 0 0 0 0 0 0 0 0 0 0 0 0 0 0
0 0 9 0 0 57 95 95 18 13 81 312 372 356 302 207 335 457 562 571 551 446 391 347 240 182 5 0 0 0 0 0 0 0 0 0 0 0 0 0 0 0 0 0 0 0 0 0 0
23 43 27 5 0 55 118 122 108 35 25 19 159 257 266 410 470 618 725 754 714 643 614 353 73 0 0 0 0 0 0 0 0 0 0 0 0 0 0 0 0 0 0 0 0 0 0 0 0
56 4 1 4 7 39 13 120 187 153 113 128 81 143 289 476 707 747 868 901 750 654 266 3 0 0 0 0 0 0 0 0 0 0 0 0 0 0 0 0 0 0 0 0 0 0 0 0 0
56 13 25 19 62 25 7 33 209 164 189 162 137 204 262 362 317 212 113 86 0 0 0 0 0 0 0 0 0 0 0 0 0 0 0 0 0 0 0 0 0 0 0 0 1 0 0 0 0
0 13 27 35 39 1 46 21 59 163 162 175 81 0 0 0 0 0 0 0 0 0 0 0 0 0 0 0 0 0 0 0 0 0 0 0 0 0 0 0 0 0 2 11 1 0 0 0 0
15 24 11 1 0 7 0 0 0 54 35 198 65 0 0 0 0 0 0 0 0 0 0 0 0 0 0 0 0 0 0 0 0 0 0 0 0 0 0 0 0 0 25 2 0 0 0 1 0
25 35 0 0 14 0 0 0 4 0 0 115 15 0 0 0 0 0 0 0 0 0 0 0 0 0 0 0 0 0 0 0 0 0 0 0 0 0 0 0 0 5 4 0 1 18 22 7 2
0 0 0 0 0 0 0 0 0 0 0 1 0 0 0 0 0 0 0 0 0 0 0 0 0 0 0 0 0 0 0 0 0 0 0 0 0 0 0 3 13 18 4 16 12 9 6 6 0
0 0 0 0 0 0 0 0 0 0 0 0 0 0 0 0 0 0 0 0 0 0 0 0 0 0 0 0 0 0 0 0 0 0 0 0 0 0 0 11 29 5 22 24 27 14 8 2 2
0 0 0 0 0 0 0 0 0 0 0 0 0 0 0 0 0 0 0 0 0 0 0 0 0 0 0 0 0 0 0 0 0 0 0 0 0 0 0 3 21 29 28 32 18 7 7 4 10
0 0 0 0 0 0 0 0 0 0 0 0 0 0 0 0 0 0 0 0 0 0 0 0 0 0 0 0 0 0 0 0 0 0 0 0 0 0 0 0 11 25 28 17 1 5 9 11 8

GFSSGP_con_mlcape_012.txt.gz
CAPE
0 0 0 0 0 0 0 0 0 425 562 500 370 457 561 737 737 228 503 354 160 107 137 105 89 110 99 96 127 252 405 428 303 159 74 47 0 0 0 0 0 0 0 0 0 0 0 0 0
0 0 0 0 0 0 0 0 701 621 591 354 291 273 224 659 935 871 730 661 437 187 125 181 172 140 126 169 248 344 501 338 206 119 47 0 0 0 0 0 0 0 0 0 0 0 0 0 0
0 0 0 0 0 0 0 6 369 683 452 291 123 30 28 452 826 751 917 761 618 161 121 311 185 119 159 211 312 363 410 254 173 75 2 0 0 0 0 0 0 0 0 0 0 0 0 0 0
0 0 0 0 0 0 0 92 762 535 437 191 97 3 0 0 516 819 802 679 589 427 249 200 142 127 214 249 333 364 280 210 132 51 0 0 0 0 0 0 0 0 0 0 0 0 0 0 0
0 0 0 0 0 0 26 581 332 173 91 62 6 0 0 176 290 983 746 660 391 162 95 138 118 202 279 282 398 364 282 178 58 0 0 0 0 0 0 0 0 0 0 0 0 0 0 0 0
0 0 0 0 0 0 2 311 135 5 18 13 0 10 49 130 402 729 529 471 159 93 81 81 124 226 112 344 427 363 194 103 12 0 0 0 0 0 0 0 0 0 0 0 0 0 0 0 0
0 0 0 0 0 0 0 539 120 49 70 15 166 158 40 259 663 193 80 108 48 39 154 5 178 420 436 395 351 244 90 22 5 0 0 0 0 0 0 0 0 0 0 0 0 0 0 0 0
0 0 0 0 0 15 85 345 11 0 77 91 0 0 147 615 707 15 0 33 3 69 101 127 230 133 555 403 224 89 45 17 0 0 0 0 0 0 1 19 0 0 0 0 0 0 0 0 0
0 0 0 0 7 257 47 51 32 155 5 32 4 0 71 1143 1007 757 448 0 0 14 103 217 269 449 555 397 170 64 4 0 0 0 1 3 78 51 116 13 0 0 0 0 0 0 0 0 12
0 0 0 195 354 212 49 0 3 50 2 289 347 0 77 1029 900 940 825 19 39 130 264 389 484 476 477 289 177 5 0 18 123 102 120 313 389 22 15 77 0 0 20 0 16 0 0 0 0
0 0 1 14 3 66 6 6 128 81 22 1 78 680 1221 975 774 774 967 631 265 323 508 554 508 624 517 320 194 46 99 205 455 400 548 408 524 342 282 225 426 174 139 110 44 30 26 2 0
0 0 0 0 0 2 50 127 0 0 0 0 58 767 1078 1035 924 915 606 498 541 550 627 663 560 173 95 32 11 26 235 409 481 605 510 510 596 441 240 121 2 0 43 40 54 35 0 0 0
0 0 0 0 0 7 10 7 0 0 0 1 77 688 986 1026 963 551 229 353 391 377 266 296 305 147 105 84 502 586 681 743 788 901 690 645 380 100 19 9 23 61 14 1 0 0 0 0 0
0 0 0 0 0 61 0 0 16 4 69 392 340 502 699 786 306 145 189 214 316 232 274 290 215 267 389 632 404 285 310 282 232 646 858 697 397 161 57 40 0 0 0 0 0 0 0 0 0
0 0 0 0 0 21 2 6 40 199 277 242 157 179 208 305 163 229 182 184 310 327 254 106 234 725 633 392 244 149 0 76 294 489 625 606 114 11 0 0 0 0 0 0 0 0 0 0 0
0 0 0 0 0 10 1 0 15 189 142 205 107 72 91 107 118 132 136 167 326 238 200 336 589 566 373 128 3 7 91 49 0 0 0 0 0 0 0 0 0 0 0 0 0 0 0 0 0
0 0 0 0 0 0 0 0 1 175 194 194 224 185 196 125 79 68 55 263 324 240 373 602 550 359 16 14 44 95 3 0 0 0 0 0 0 0 0 0 0 0 0 0 0 0 0 0 0
0 0 0 0 0 0 0 0 0 67 72 17 315 336 327 249 141 108 33 270 526 386 390 612 552 410 40 227 2 0 0 0 0 0 0 0 0 0 0 0 0 0 0 0 0 0 0 0 0
0 0 0 2 0 0 6 0 0 4 277 354 444 442 469 443 481 335 181 265 723 595 493 588 467 341 252 167 0 0 0 0 0 0 0 0 0 0 0 0 0 0 0 0 0 0 0 0 0
0 2 0 0 0 0 1 6 0 10 15 123 292 411 432 481 539 606 465 290 652 787 740 687 497 456 525 66 5 2 0 0 0 0 0 0 0 0 0 0 0 0 0 0 0 0 0 0 0
0 2 5 3 0 0 25 26 1 3 35 74 93 244 402 485 702 761 561 622 859 942 951 783 600 536 31 0 0 0 0 0 0 0 0 0 0 0 0 0 0 0 0 0 0 0 0 0 0
4 23 4 3 1 0 4 24 0 40 0 67 159 214 247 408 661 779 916 880 1049 948 852 737 492 2 0 0 0 0 0 0 0 0 0 0 0 0 0 0 0 0 0 0 0 0 0 0 0
4 0 24 27 26 66 8 17 12 0 108 93 242 379 432 517 651 911 1025 983 924 730 801 358 0 0 0 0 0 0 0 0 0 0 0 0 0 0 0 0 0 0 0 0 0 0 1 0 0
23 3 34 9 10 29 0 0 1 0 0 131 142 318 458 526 778 938 947 764 689 742 269 0 0 0 0 0 0 0 0 0 0 0 0 0 0 0 0 0 0 0 0 0 1 0 0 0 0
0 1 5 8 10 10 33 42 93 9 37 0 1 317 431 632 749 849 946 933 622 185 0 0 0 0 0 0 0 0 0 0 0 0 0 0 0 0 0 0 0 0 0 0 0 0 0 0 0
11 0 19 0 0 3 3 1 2 98 94 2 175 441 680 796 815 760 579 339 99 0 0 0 0 0 0 0 0 0 0 0 0 0 0 0 0 0 0 0 0 0 0 0 0 0 0 6 5
0 8 8 0 19 38 0 0 0 1 0 59 436 433 555 522 360 225 175 0 0 0 0 0 0 0 0 0 0 0 0 0 0 0 0 0 0 0 0 0 0 0 0 3 2 0 13 0 0
0 0 0 0 0 0 0 2 44 35 11 0 285 325 339 285 100 9 0 0 0 0 0 0 0 0 0 0 0 0 0 0 0 0 0 0 0 0 0 0 0 0 0 17 13 22 14 16 26
0 0 0 0 3 42 26 1 0 0 0 1 43 381 256 183 31 0 0 0 0 0 0 0 0 0 0 0 0 0 0 0 0 0 0 0 0 0 0 0 0 0 0 0 1 7 1 37 5
0 23 0 0 0 0 0 0 0 0 0 0 0 142 189 94 3 0 0 0 0 0 0 0 0 0 0 0 0 0 0 0 0 0 0 0 0 0 0 0 0 0 5 2 0 4 7 19 5

GFSSGP_con_mlcape_015.txt.gz
CAPE
0 0 0 0 0 0 0 0 0 356 507 465 631 650 741 980 899 282 566 261 0 25 177 276 241 139 74 107 225 275 256 132 32 0 0 0 0 0 0 0 0 0 0 0 0 0 0 0 0
0 0 0 0 0 0 0 16 591 602 400 333 231 312 505 709 1000 916 365 150 0 91 178 169 76 72 92 168 367 346 227 102 40 0 0 0 0 0 0 0 0 0 0 0 0 0 0 0 0
0 0 0 0 0 0 0 60 562 480 275 195 77 19 237 896 965 841 539 188 114 93 173 180 95 62 116 398 503 304 162 70 36 6 0 0 0 0 0 4 1 0 0 0 0 0 0 0 0
0 0 0 0 0 0 0 18 682 436 191 89 40 0 0 401 831 923 500 27 32 185 125 57 38 45 241 339 334 248 89 47 24 9 0 0 0 0 0 2 1 0 0 0 0 0 0 0 0
0 0 0 0 0 0 0 476 590 494 297 114 1 1 43 711 859 711 410 221 184 57 72 75 95 130 205 253 296 178 68 35 8 0 0 0 0 0 0 0 0 0 0 0 0 0 0 0 0
0 0 0 0 0 0 263 490 435 218 180 142 8 13 142 791 491 392 247 61 3 6 41 68 153 126 165 230 187 89 41 9 0 0 0 0 0 0 0 0 0 0 0 0 0 0 0 0 0
0 0 0 0 0 103 493 243 119 43 32 32 24 256 223 537 262 246 203 110 5 2 1 23 104 2 132 235 90 39 20 0 0 0 0 0 0 0 0 0 0 0 0 0 0 0 0 0 0
0 0 0 0 0 135 240 188 171 143 65 76 0 5 118 167 77 41 3 14 58 0 0 21 73 90 251 231 81 22 1 0 0 0 0 0 0 0 0 0 0 0 0 0 0 0 0 0 0
0 0 0 13 218 61 28 123 5 75 78 6 0 27 457 19 0 0 0 0 1 27 0 1 0 137 202 145 32 1 0 0 0 0 0 0 0 13 20 0 0 0 0 0 0 0 0 0 0
0 0 0 92 276 68 0 8 0 54 72 49 0 147 279 106 36 0 0 0 0 17 0 0 20 266 202 95 9 0 0 0 0 6 29 24 76 16 11 1 0 0 0 0 5 18 0 0 0
0 0 0 4 37 17 5 4 8 38 31 58 0 0 248 294 86 1 0 0 18 114 116 44 223 264 212 26 0 0 2 33 85 114 113 214 117 76 27 4 4 1 28 10 3 0 0 0 0
0 0 0 0 10 18 4 9 15 0 0 30 19 82 226 258 138 0 58 20 31 141 196 215 375 306 162 82 47 17 105 237 234 334 219 253 151 29 0 0 0 0 0 0 0 0 0 0 0
0 0 0 0 0 3 15 0 0 2 10 5 153 503 447 456 369 34 84 221 356 389 337 294 223 213 87 99 112 335 400 454 566 455 314 212 47 0 1 0 0 0 0 0 0 0 0 0 0
0 0 0 0 0 3 7 1 63 28 39 41 235 433 724 539 411 292 368 424 383 319 233 84 2 61 246 157 154 95 51 77 259 442 314 108 15 0 0 0 0 0 0 0 0 0 0 0 0
3 0 0 0 10 0 2 4 203 161 163 183 131 400 723 276 142 211 288 221 76 98 75 41 83 220 166 119 28 0 3 57 153 36 2 10 0 0 0 0 0 0 0 0 0 0 0 0 0
0 0 0 0 0 0 0 96 383 329 342 155 323 367 368 101 76 84 150 116 124 57 7 34 387 234 113 13 0 0 0 0 0 0 0 0 0 0 0 0 0 0 0 0 0 0 0 0 0
0 0 0 0 0 0 11 112 306 225 267 129 42 77 77 46 43 28 159 141 116 40 23 353 309 158 17 0 8 3 0 0 0 0 0 0 0 0 0 0 0 0 0 0 0 0 0 0 0
0 0 1 0 0 0 0 6 247 148 159 84 98 42 74 54 40 29 172 145 96 47 238 403 194 10 0 13 0 0 0 0 0 0 0 0 0 0 0 0 0 0 0 0 0 0 0 0 0
0 0 0 0 0 0 0 0 87 108 75 63 138 205 77 55 25 4 162 190 152 246 484 418 187 0 43 0 0 0 0 0 0 0 0 0 0 0 0 0 0 0 0 0 0 0 0 0 0
0 0 0 0 0 0 0 0 2 66 78 86 91 0 192 81 30 10 165 276 264 342 495 440 318 149 101 0 0 0 0 0 0 0 0 0 0 0 0 0 0 0 0 0 0 0 0 0 0
0 6 4 0 0 0 2 6 0 0 47 161 70 9 264 247 237 155 140 442 360 419 442 432 326 121 29 0 0 0 0 0 0 0 0 0 0 0 0 0 0 0 0 0 0 0 0 0 0
0 0 3 0 0 0 0 7 3 3 0 10 224 252 405 403 428 411 240 531 477 412 482 474 376 152 1 0 0 0 0 0 0 0 0 0 0 0 0 0 0 0 0 0 0 0 0 0 0
0 0 0 3 0 0 0 0 12 0 0 0 49 91 277 432 531 567 442 612 732 756 689 555 32 0 0 0 0 0 0 0 0 0 0 0 0 0 0 0 0 0 0 0 0 0 0 0 0
14 0 0 0 0 6 25 0 0 0 0 0 53 114 259 418 531 631 690 815 822 776 443 7 0 0 0 0 0 0 0 0 0 0 0 0 0 0 0 0 0 0 0 0 0 0 0 0 0
7 6 0 0 0 0 12 0 0 0 0 0 2 132 241 506 563 715 802 758 676 434 7 0 0 0 0 0 0 0 0 0 0 0 0 0 0 0 0 0 0 0 0 0 0 0 0 0 0
0 0 0 0 0 1 1 9 1 0 1 0 0 66 18 475 687 817 864 728 372 65 0 0 0 0 0 0 0 0 0 0 0 0 0 0 0 0 0 0 0 0 0 0 0 0 0 0 0
2 9 2 10 0 0 1 10 47 14 1 0 0 0 53 501 605 796 759 362 100 0 0 0 0 0 0 0 0 0 0 0 0 0 0 0 0 0 0 0 0 0 0 0 0 0 0 1 0
14 2 24 2 0 0 0 1 17 9 3 23 4 19 488 610 598 507 353 109 2 0 0 0 0 0 0 0 0 0 0 0 0 0 0 0 0 0 0 0 0 0 0 0 0 1 0 0 5
0 0 0 0 0 0 2 0 0 0 0 8 111 271 472 524 363 164 20 4 0 0 0 0 0 0 0 0 0 0 0 0 0 0 0 0 0 0 0 0 0 0 0 0 0 0 0 0 0
0 0 2 0 0 0 0 0 0 0 0 0 8 294 339 319 179 29 0 0 0 0 0 0 0 0 0 0 0 0 0 0 0 0 0 0 0 0 0 0 0 0 0 0 0 0 0 0 0

GFSSGP_con_mlcape_018.txt.gz
CAPE
0 0 0 0 0 0 0 0 0 5 514 692 862 818 799 968 711 135 468 396 410 531 557 400 220 96 105 220 224 164 98 58 37 12 0 0 0 0 0 0 1 0 0 0 0 0 0 0 0
0 0 0 0 0 0 0 0 0 511 364 143 127 588 623 908 956 781 607 335 355 446 477 346 186 97 250 320 262 115 97 73 31 8 0 0 0 0 8 13 8 10 0 0 0 0 0 0 0
0 0 0 0 0 0 0 227 529 282 234 244 144 50 704 1042 1017 731 407 143 123 213 258 253 129 210 405 385 247 108 76 37 27 3 0 0 13 28 35 25 30 18 3 0 0 0 0 0 0
0 0 0 0 0 0 0 0 521 365 262 184 25 224 642 844 1046 828 251 30 64 146 253 97 67 289 350 315 140 60 43 40 29 15 6 40 50 47 38 23 18 3 0 0 0 0 0 0 0
0 0 0 0 0 0 0 69 455 295 188 101 13 124 560 752 651 456 280 195 178 158 51 29 54 134 202 173 95 66 42 39 12 6 16 26 23 16 2 0 0 0 0 0 0 0 0 0 0
0 0 0 0 0 0 248 423 462 210 135 9 47 201 637 538 579 310 148 42 48 89 50 79 105 81 87 66 121 80 25 0 0 0 9 0 0 0 0 0 0 0 0 0 0 0 0 0 0
0 0 0 0 0 0 367 202 236 98 17 9 269 293 443 383 138 110 86 1 8 34 32 6 0 1 36 73 50 15 0 0 0 0 0 0 0 0 0 0 0 0 0 0 0 0 0 0 0
0 0 0 0 156 118 192 76 35 39 33 3 0 146 528 164 69 74 0 0 0 20 5 0 0 0 38 123 55 0 0 0 0 0 0 0 0 0 0 0 0 0 0 0 0 0 0 0 0
0 0 0 0 5 30 37 42 46 47 50 58 102 330 207 64 84 31 12 7 1 0 1 0 4 42 114 142 17 0 0 0 0 0 0 0 3 1 0 0 0 0 0 0 0 0 0 0 0
0 0 0 0 91 40 4 0 62 100 81 226 244 229 84 8 9 10 22 12 0 0 1 6 0 35 148 70 4 0 0 0 0 0 0 0 0 6 2 0 0 0 6 0 0 0 0 0 0
0 0 0 3 16 11 0 5 24 179 61 17 135 32 11 4 8 5 1 12 0 0 0 0 21 76 126 21 0 0 0 0 0 5 8 42 3 10 1 1 0 0 0 0 0 0 0 0 0
0 0 0 0 21 0 3 4 11 23 52 0 360 22 60 11 13 1 13 8 1 0 0 0 48 168 60 0 0 0 2 19 116 111 98 21 0 0 0 0 0 0 0 0 0 0 0 0 0
0 0 0 0 4 14 8 26 1 0 46 1 415 402 172 0 0 8 29 32 65 82 10 3 122 176 22 0 0 6 104 261 284 250 119 7 0 0 0 0 0 0 0 0 0 0 0 0 0
0 0 0 0 0 43 30 0 8 35 96 146 376 360 211 37 32 14 10 137 180 161 156 163 173 127 18 16 20 71 250 295 242 159 31 0 0 0 0 0 0 0 0 0 0 0 0 0 0
0 0 0 0 1 24 3 1 24 46 231 450 495 514 428 182 72 85 155 296 360 265 209 166 157 147 55 52 5 81 253 103 62 29 1 0 0 0 0 0 0 0 0 0 0 0 0 0 0
0 0 0 8 9 1 3 98 348 52 101 317 385 488 500 518 270 312 465 508 328 277 116 33 157 78 40 0 0 0 7 0 0 0 0 0 0 0 0 0 0 0 0 0 0 0 0 0 0
0 0 0 0 0 0 0 226 557 220 294 328 351 457 429 449 428 479 446 251 319 231 106 202 163 75 8 0 0 0 0 0 0 0 0 0 0 0 0 0 0 0 0 0 0 0 0 0 0
0 0 0 0 0 0 7 127 555 304 225 216 187 245 142 295 255 393 238 202 247 114 82 257 89 1 0 0 0 0 0 0 0 0 0 0 0 0 0 0 0 0 0 0 0 0 0 0 0
0 0 0 2 0 0 4 82 323 230 223 118 162 181 72 158 176 333 195 166 142 39 148 313 131 0 0 0 0 0 0 0 0 0 0 0 0 0 0 0 0 0 0 0 0 0 0 0 0
0 0 0 0 0 0 0 135 155 114 214 142 147 142 125 65 73 303 262 205 136 88 285 332 106 7 0 0 0 0 0 0 0 0 0 0 0 0 0 0 0 0 0 0 0 0 0 0 0
0 0 0 0 0 0 1 13 155 47 44 63 108 186 116 67 22 189 260 237 139 239 415 351 63 0 0 0 0 0 0 0 0 0 0 0 0 0 0 0 0 0 0 0 0 0 0 0 0
0 0 0 17 2 0 0 0 0 61 1 32 33 164 2 115 0 23 187 210 257 416 483 425 203 7 29 0 0 0 0 0 0 0 0 0 0 0 0 0 0 0 0 0 0 0 0 0 0
0 0 0 7 0 0 0 0 0 0 0 0 5 80 0 44 27 0 127 209 239 428 471 418 291 158 0 0 0 0 0 0 0 0 0 0 0 0 0 0 0 0 0 0 0 0 0 0 0
0 0 0 0 0 0 0 0 0 0 0 0 0 0 65 45 3 2 114 218 205 316 419 357 76 10 0 0 0 0 0 0 0 0 0 0 0 0 0 0 0 0 0 0 0 0 0 0 0
7 3 0 0 0 0 0 0 0 0 0 0 0 0 27 29 99 119 207 381 434 438 214 19 0 0 0 0 0 0 0 0 0 0 0 0 0 0 0 0 0 0 0 0 0 0 0 0 0
5 0 0 0 0 0 0 0 0 0 0 0 0 0 52 55 320 425 536 564 521 299 81 0 0 0 0 0 0 0 0 0 0 0 0 0 0 0 0 0 0 0 0 0 0 0 0 0 0
0 0 0 0 0 0 0 3 0 0 0 0 0 0 27 381 516 624 627 631 518 189 13 0 0 0 0 0 0 0 0 0 0 0 0 0 0 0 0 0 0 0 0 0 0 0 0 0 0
0 0 2 8 1 0 0 0 0 38 9 0 7 0 0 185 525 622 642 512 148 9 0 0 0 0 0 0 0 0 0 0 0 0 0 0 0 0 0 0 0 0 0 0 0 0 0 0 0
0 0 0 0 0 0 0 0 0 0 0 0 0 1 0 107 557 651 591 356 130 0 0 0 0 0 0 0 0 0 0 0 0 0 0 0 0 0 0 0 0 0 0 0 0 0 0 0 0
3 3 0 0 0 0 0 0 0 0 0 2 0 0 9 131 412 472 398 235 51 0 0 0 0 0 0 0 0 0 0 0 0 0 0 0 0 0 0 0 0 0 0 0 0 0 0 0 0

GFSSGP_con_mlcape_021.txt.gz
CAPE
0 0 0 0 0 0 0 0 0 0 188 871 951 777 762 881 580 213 459 454 642 615 567 407 146 95 176 200 124 70 15 4 2 0 0 0 0 0 0 0 0 0 0 0 0 0 0 0 0
0 0 0 0 0 0 0 0 31 58 624 560 518 792 688 858 933 749 611 648 752 601 585 311 173 276 288 241 150 46 26 23 13 2 0 0 0 2 0 0 0 0 0 0 0 0 0 0 0
0 0 0 0 0 0 0 145 612 545 233 174 90 487 939 1030 870 780 667 684 645 609 485 364 340 353 368 201 65 35 46 27 14 4 11 26 28 13 9 0 2 0 0 0 0 0 0 0 0
0 0 0 0 0 0 0 0 11 368 309 66 138 438 933 1043 945 717 519 569 352 448 433 235 395 457 335 140 79 54 41 28 19 54 60 89 64 41 35 16 9 0 0 0 0 0 0 0 0
0 0 0 0 0 0 0 141 55 342 156 52 40 654 811 864 724 460 464 442 410 291 277 94 183 239 136 75 85 83 65 41 31 95 101 138 154 100 49 5 0 0 0 0 0 0 0 0 0
0 0 0 0 0 0 378 313 413 303 49 94 445 432 562 837 726 470 301 152 37 24 10 48 142 125 26 87 112 55 53 25 48 63 91 109 110 33 0 0 0 0 0 0 0 0 0 0 0
0 0 0 0 0 2 302 189 376 165 115 103 364 451 529 547 540 233 36 3 0 0 0 1 3 0 0 86 58 9 41 2 13 35 56 21 3 0 0 0 0 0 0 0 0 0 0 0 0
0 0 0 0 28 13 286 222 140 107 61 2 51 359 370 505 234 101 5 2 0 0 0 0 0 18 21 50 16 0 0 0 10 25 6 0 0 0 0 0 0 0 0 0 0 0 0 0 0
0 0 0 0 0 8 152 208 128 187 233 325 292 431 358 277 112 6 9 8 4 2 0 0 0 0 1 10 22 0 0 0 8 7 1 0 1 0 0 0 0 0 0 0 0 0 0 0 0
0 0 0 0 0 18 78 47 68 217 347 372 297 297 258 223 118 49 37 3 3 3 1 0 0 0 119 208 59 5 2 17 3 1 0 0 0 0 0 0 0 0 0 0 0 0 0 0 0
0 0 0 0 2 146 36 11 91 183 119 171 266 183 142 145 65 61 20 2 1 0 0 0 2 68 184 113 1 0 0 0 0 0 0 1 7 0 0 0 0 0 0 0 0 0 0 0 0
0 0 0 0 0 64 40 42 131 118 50 221 227 141 93 54 5 69 59 5 0 12 21 0 11 110 195 59 3 0 0 0 0 1 50 16 0 0 0 0 0 0 0 0 0 0 0 0 0
0 0 0 0 0 39 50 50 0 0 158 167 60 57 63 15 12 28 56 19 0 4 26 3 2 163 187 0 0 0 0 35 112 24 34 4 0 0 0 0 0 0 0 0 0 0 0 0 0
0 0 0 0 0 39 9 18 32 27 377 116 105 47 4 26 18 14 21 0 0 0 0 13 59 246 138 0 0 0 104 243 196 139 29 0 0 0 0 0 0 0 0 0 0 0 0 0 0
0 0 0 0 0 18 18 9 46 31 382 425 477 73 0 0 8 2 26 0 12 18 36 39 148 212 33 0 0 15 247 212 185 64 0 0 0 0 0 0 0 0 0 0 0 0 0 0 0
0 0 13 0 14 11 33 100 88 179 272 493 520 321 95 68 3 30 3 137 203 165 126 129 206 174 41 0 5 38 165 118 46 0 0 0 0 0 0 0 0 0 0 0 0 0 0 0 0
0 0 0 12 0 1 10 183 133 327 416 464 498 509 339 189 51 32 56 295 319 273 171 217 187 115 20 9 56 68 31 3 0 0 0 0 0 0 0 0 0 0 0 0 0 0 0 0 0
0 0 0 0 0 0 15 195 163 143 175 394 343 497 468 255 173 142 228 406 357 281 166 197 162 48 7 0 0 0 0 0 0 0 0 0 0 0 0 0 0 0 0 0 0 0 0 0 0
0 0 0 0 0 0 0 107 211 181 144 281 336 455 442 427 419 409 426 326 349 156 228 143 59 8 0 0 0 0 0 0 0 0 0 0 0 0 0 0 0 0 0 0 0 0 0 0 0
0 0 0 0 0 0 0 26 229 186 253 325 273 363 392 449 402 513 399 280 264 218 207 124 99 8 0 0 0 0 0 0 0 0 0 0 0 0 0 0 0 0 0 0 0 0 0 0 0
0 0 0 0 0 0 0 0 235 160 80 113 152 267 214 266 273 410 374 276 202 176 212 153 120 26 0 0 0 0 0 0 0 0 0 0 0 0 0 0 0 0 0 0 0 0 0 0 0
0 0 0 0 0 0 0 0 11 100 177 80 77 136 168 127 118 339 355 291 180 186 166 149 139 62 5 0 0 0 0 0 0 0 0 0 0 0 0 0 0 0 0 0 0 0 0 0 0
0 0 0 0 0 0 0 0 0 2 89 121 83 32 57 61 45 190 283 251 141 104 90 99 116 48 11 0 0 0 0 0 0 0 0 0 0 0 0 0 0 0 0 0 0 0 0 0 0
0 0 0 0 0 0 0 0 0 0 0 15 27 20 31 2 25 15 181 136 104 85 103 177 213 67 4 0 0 0 0 0 0 0 0 0 0 0 0 0 0 0 0 0 0 0 0 0 0
0 0 0 0 0 0 0 0 0 0 0 0 0 0 0 0 0 0 26 148 140 182 148 186 212 126 5 0 0 0 0 0 0 0 0 0 0 0 0 0 0 0 0 0 0 0 0 0 0
0 0 0 0 0 0 0 0 0 0 0 0 0 0 0 0 0 0 5 41 102 181 244 289 141 17 0 0 0 0 0 0 0 0 0 0 0 0 0 0 0 0 0 0 0 0 0 0 0
0 0 0 0 0 0 0 0 0 0 0 0 0 0 0 0 0 26 42 65 95 160 123 174 42 0 0 0 0 0 0 0 0 0 0 0 0 0 0 0 0 0 0 0 0 0 0 0 0
0 0 0 0 0 0 0 0 0 8 12 0 0 0 0 9 50 67 162 160 138 168 37 0 0 0 0 0 0 0 0 0 0 0 0 0 0 0 0 0 0 0 0 0 0 0 0 0 0
0 0 0 0 0 0 0 0 0 0 0 0 0 0 0 6 146 221 269 256 199 60 0 0 0 0 0 0 0 0 0 0 0 0 0 0 0 0 0 0 0 0 0 0 0 0 0 0 0
0 0 0 0 0 0 0 0 0 0 0 0 0 0 0 0 67 335 420 207 63 11 0 0 0 0 0 0 0 0 0 0 0 0 0 0 0 0 0 0 0 0 0 0 0 0 0 0 0

GFSSGP_con_mlcape_024.txt.gz
CAPE
0 0 0 0 0 0 0 0 0 0 242 1141 1128 895 861 797 454 260 494 665 687 679 636 277 169 191 149 103 57 7 1 4 0 0 0 1 0 1 1 0 0 2 0 0 0 0 35 48 9
0 0 0 0 0 0 0 0 0 152 695 363 296 892 862 832 622 567 546 809 718 701 596 346 444 366 144 104 80 26 7 6 7 7 13 22 9 12 19 0 0 0 0 0 0 0 0 0 9
0 0 0 0 0 0 0 0 380 355 260 250 349 700 855 843 847 771 800 864 741 672 533 421 455 370 220 106 24 58 30 7 29 34 45 44 48 30 4 2 9 10 4 0 0 0 0 0 0
0 0 0 0 0 0 0 0 0 13 236 159 284 678 986 1014 1087 869 938 886 767 648 453 311 262 265 194 98 90 81 42 23 47 75 86 117 92 80 8 8 16 16 13 0 0 0 0 0 0
0 0 0 0 0 0 0 255 502 221 240 279 256 594 704 803 790 797 654 619 562 449 264 179 68 131 152 166 136 100 12 28 86 160 173 162 164 67 5 4 10 2 0 0 0 0 0 0 0
0 0 0 0 0 0 49 451 547 389 347 500 565 539 636 846 725 468 227 71 57 40 25 121 77 55 27 125 135 39 109 100 208 252 259 222 89 24 5 5 1 0 0 0 0 0 0 0 0
0 0 0 0 0 0 188 398 580 372 239 368 567 507 789 785 466 157 14 0 1 0 0 1 0 8 19 80 97 108 78 184 218 272 184 59 18 1 0 0 0 0 0 0 0 0 0 0 0
0 0 0 0 0 20 516 411 350 234 228 139 325 438 720 586 195 3 3 1 0 1 3 3 0 1 56 96 123 65 75 119 149 55 20 10 4 4 0 0 0 0 0 0 0 0 0 0 0
0 0 0 0 0 1 299 355 200 423 459 434 507 520 652 343 23 1 2 2 0 0 0 3 0 0 0 55 34 34 73 72 27 23 25 7 2 0 0 0 0 0 0 0 0 0 0 0 0
0 0 0 0 0 11 149 160 385 391 504 460 654 805 574 183 12 2 2 1 0 2 0 0 0 0 0 2 71 3 4 6 12 6 5 0 0 0 0 0 0 0 0 0 0 0 0 0 0
0 0 0 0 0 32 126 123 246 358 297 303 499 529 547 207 19 27 1 0 0 1 1 3 0 0 0 26 58 1 0 0 0 0 0 2 1 0 0 0 0 0 0 0 0 0 0 0 0
0 0 0 0 0 3 112 82 203 128 65 343 530 456 289 93 40 59 4 0 1 0 0 0 0 13 45 61 4 0 0 0 0 0 1 8 0 0 0 0 0 0 0 0 0 0 0 0 0
0 0 0 0 0 57 86 32 0 144 394 370 369 301 147 56 71 78 46 9 0 0 0 0 0 24 133 35 0 0 0 0 0 0 2 0 0 0 0 0 0 0 0 0 0 0 0 0 0
0 0 0 0 1 71 35 5 20 337 356 215 143 85 78 3 26 73 86 24 5 2 0 0 0 76 189 0 0 0 0 0 0 16 6 0 0 0 0 0 0 0 0 0 0 0 0 0 0
0 0 0 0 45 61 47 33 12 315 207 59 64 64 55 0 21 51 56 0 0 0 0 0 0 139 179 0 0 0 0 100 115 37 0 0 0 0 0 0 0 0 0 0 0 0 0 0 0
0 0 0 0 10 34 1 69 88 337 271 240 81 76 29 23 28 4 0 0 0 5 5 0 56 142 167 0 0 0 77 95 61 20 0 0 0 0 0 0 0 0 0 0 0 0 0 0 0
0 0 7 10 21 36 0 118 139 336 405 337 373 162 0 0 20 3 0 0 0 26 59 63 91 146 88 0 0 0 68 46 7 0 0 0 0 0 0 0 0 0 0 0 0 0 0 0 0
0 0 0 11 0 2 37 99 50 277 440 411 398 445 178 130 57 6 23 63 129 153 106 125 145 118 48 5 0 0 8 0 0 0 0 0 0 0 0 0 0 0 0 0 0 0 0 0 0
1 0 0 0 0 1 5 76 100 223 333 423 382 461 450 350 317 116 94 81 243 240 144 138 144 63 65 9 7 6 34 0 0 0 0 0 0 0 0 0 0 0 0 0 0 0 0 0 0
0 0 0 0 0 0 0 0 134 104 273 282 354 356 438 458 389 250 196 147 293 287 210 148 179 91 56 16 0 0 0 0 0 0 0 0 0 0 0 0 0 0 0 0 0 0 0 0 0
0 0 0 0 0 0 0 0 175 126 124 133 224 289 333 428 437 372 349 238 301 308 232 222 138 44 12 0 0 0 0 0 0 0 0 0 0 0 0 0 0 0 0 0 0 0 0 0 0
0 0 0 0 0 0 0 0 13 161 172 118 194 263 274 303 409 455 491 416 302 291 217 212 56 19 0 0 0 0 0 0 0 0 0 0 0 0 0 0 0 0 0 0 0 0 0 0 0
0 0 0 0 0 0 0 0 0 7 231 223 178 184 226 204 272 306 460 457 304 258 236 245 99 25 1 0 0 0 0 0 0 0 0 0 0 0 0 0 0 0 0 0 0 0 0 0 0
0 0 0 0 0 0 0 0 0 0 0 28 152 92 53 31 69 136 259 275 217 167 191 203 143 70 1 0 0 0 0 0 0 0 0 0 0 0 0 0 0 0 0 0 0 0 0 0 0
0 0 0 0 0 0 0 0 0 0 0 0 0 1 29 36 13 10 119 215 193 193 197 173 154 43 3 0 0 0 0 0 0 0 0 0 0 0 0 0 0 0 0 0 0 0 0 0 0
0 0 0 0 0 0 0 0 0 0 0 0 0 0 0 0 0 5 31 111 166 148 130 120 124 46 0 0 0 0 0 0 0 0 0 0 0 0 0 0 0 0 0 0 0 0 0 0 0
0 0 0 0 0 0 0 0 0 0 0 0 0 0 0 0 0 0 0 18 65 84 143 153 149 55 0 0 0 0 0 0 0 0 0 0 0 0 0 0 0 0 0 0 0 0 0 0 0
0 0 0 0 0 0 0 0 0 0 0 0 0 0 0 0 0 0 0 0 0 15 55 67 94 55 0 0 0 0 0 0 0 0 0 0 0 0 0 0 0 0 0 0 0 0 0 0 0
0 0 0 0 0 0 0 0 0 0 0 0 0 0 0 0 0 0 9 8 16 16 24 36 28 12 0 0 0 0 0 0 0 0 0 0 0 0 0 0 0 0 0 0 0 0 0 0 0
0 0 0 0 0 0 0 0 0 0 0 0 0 0 0 0 0 57 65 50 52 86 29 0 0 0 0 0 0 0 0 0 0 0 0 0 0 0 0 0 0 0 0 0 0 0 0 0 0

GFSSGP_con_mlcape_027.txt.gz
CAPE
0 0 0 0 0 0 0 0 0 0 21 1087 1097 784 669 672 464 213 688 765 870 651 433 432 407 252 143 65 35 24 12 23 10 37 29 24 32 7 9 8 0 0 17 190 265 171 121 151 55
0 0 0 0 0 0 0 0 23 369 410 318 469 1037 975 720 620 705 822 921 921 699 439 316 475 316 268 191 159 127 67 13 20 50 45 66 63 40 27 13 4 0 0 90 138 246 238 175 5
0 0 0 0 0 0 0 0 0 521 378 335 601 792 862 965 768 820 989 1057 924 683 493 429 434 345 256 173 92 58 44 54 50 66 54 82 68 72 73 53 25 3 0 0 2 6 17 0 0
0 0 0 0 0 0 0 0 0 49 391 368 759 753 926 991 1213 1099 1077 1021 892 743 599 419 273 160 261 154 103 63 51 36 79 66 64 110 80 88 107 81 55 27 0 0 0 0 0 0 0
0 0 0 0 0 0 0 134 662 355 387 613 665 731 810 1018 776 839 924 885 780 658 489 270 169 86 171 277 117 55 26 52 86 107 126 125 102 95 82 81 83 44 0 0 0 0 0 0 0
0 0 0 0 0 0 0 502 671 560 645 748 827 700 953 988 769 458 481 405 294 355 294 296 66 26 23 199 75 67 87 120 146 144 151 121 83 30 12 9 1 0 0 0 0 0 0 0 0
0 0 0 0 0 51 283 527 606 489 489 708 777 704 806 788 247 156 129 113 183 101 51 0 6 0 9 55 99 148 233 216 203 205 149 83 41 18 5 0 0 0 0 0 0 0 0 0 0
0 0 0 0 0 0 410 487 492 317 433 530 554 561 704 405 49 2 2 1 2 3 3 3 0 0 0 47 224 271 244 253 202 187 100 24 21 9 0 0 0 0 0 0 0 0 0 0 0
0 0 0 0 0 0 257 469 504 633 646 655 723 667 601 57 4 1 2 2 1 3 3 2 2 0 5 65 212 251 221 224 225 98 17 14 58 17 0 0 0 0 0 0 0 0 0 0 0
0 0 0 0 0 0 46 300 535 670 580 701 731 654 249 57 8 1 1 1 3 4 3 0 0 0 0 1 52 121 151 44 30 45 27 10 6 0 0 0 0 0 0 0 0 0 0 0 0
0 0 0 0 0 0 0 150 335 640 498 533 747 651 239 73 2 2 4 3 3 3 2 0 0 0 0 0 0 1 0 18 26 18 16 4 0 0 0 0 0 0 0 0 0 0 0 0 0
0 0 0 0 0 0 153 233 327 205 196 441 877 624 206 131 4 4 0 0 4 5 5 0 0 0 0 0 75 9 8 16 7 0 0 1 0 0 0 0 0 0 0 0 0 0 0 0 0
0 0 0 0 0 0 125 75 147 454 620 691 632 486 148 100 36 24 15 5 4 5 4 2 0 0 10 51 75 0 0 0 0 16 59 28 0 0 0 0 0 0 0 0 0 0 0 0 0
0 0 0 0 20 79 146 95 60 405 557 474 450 311 266 163 103 41 31 4 1 2 4 2 11 57 39 136 0 0 0 0 0 0 10 0 0 0 0 0 0 0 0 0 0 0 0 0 0
0 0 0 0 62 134 52 134 60 435 320 162 91 101 153 52 125 101 43 0 0 0 3 2 0 102 248 142 0 0 0 0 1 33 14 0 0 0 0 0 0 0 0 0 0 0 0 0 0
0 0 16 0 49 62 17 133 329 422 332 83 52 95 92 10 1 123 107 45 4 0 0 0 0 45 315 140 0 0 0 52 147 35 1 0 0 0 0 0 0 0 0 0 0 0 0 0 0
0 0 9 1 19 71 45 125 244 380 353 131 70 40 38 14 57 58 120 47 27 51 20 0 1 51 305 144 0 0 27 202 108 23 0 0 0 0 0 0 0 0 0 0 0 0 0 0 0
0 0 0 51 14 16 89 146 274 458 471 395 263 72 18 13 37 51 53 12 9 66 82 64 36 135 218 80 0 1 48 37 24 13 0 0 0 0 0 0 0 0 0 0 0 0 0 0 0
0 0 0 0 0 10 11 75 156 460 514 524 457 407 147 42 78 99 66 50 25 48 90 117 124 152 164 35 4 26 95 47 0 0 0 0 0 0 0 0 0 0 0 0 0 0 0 0 0
0 0 0 0 0 0 0 11 127 276 350 446 519 460 478 277 228 202 116 111 138 152 172 200 188 188 170 94 45 54 12 0 0 0 0 0 0 0 0 0 0 0 0 0 0 0 0 0 0
0 0 0 0 0 0 0 0 13 115 253 276 309 448 462 538 435 433 346 202 177 235 300 306 256 218 178 124 5 0 0 0 0 0 0 0 0 0 0 0 0 0 0 0 0 0 0 0 0
0 0 0 0 0 0 0 0 0 134 185 182 257 254 374 396 497 562 436 328 237 207 302 340 212 136 125 29 19 13 39 0 0 0 0 0 0 0 0 0 0 0 0 0 0 0 0 0 0
0 0 0 0 0 0 0 0 0 0 75 143 248 246 267 325 394 499 591 475 375 255 290 384 252 135 82 4 1 0 0 0 0 0 0 0 0 0 0 0 0 0 0 0 0 0 0 0 0
0 0 0 0 0 0 0 0 0 0 3 50 181 232 248 273 326 385 497 582 523 367 334 410 334 196 76 0 0 0 0 0 0 0 0 0 0 0 0 0 0 0 0 0 0 0 0 0 0
0 0 0 0 0 0 0 0 0 0 0 0 0 69 167 219 267 279 295 421 528 423 391 398 381 288 88 0 0 0 0 0 0 0 0 0 0 0 0 0 0 0 0 0 0 0 0 0 0
0 0 0 0 0 0 0 0 0 0 0 0 0 0 0 2 57 198 230 324 448 402 413 402 425 404 131 27 2 0 0 0 0 0 0 0 0 0 0 0 0 0 0 0 0 0 0 0 0
0 0 0 0 0 0 0 0 0 0 0 0 0 0 0 0 0 1 36 131 296 306 343 415 448 387 143 152 46 0 0 0 0 0 0 0 0 0 0 0 0 0 0 0 0 0 0 0 0
0 0 0 0 0 0 0 0 0 0 0 0 0 0 0 0 0 0 0 0 93 167 179 190 302 432 319 125 91 0 0 0 0 0 0 0 0 0 0 0 0 0 0 0 0 0 0 0 0
0 0 0 0 0 0 0 0 0 0 0 0 0 0 0 0 0 0 0 0 3 55 96 143 227 292 250 54 7 0 0 0 0 0 0 0 0 0 0 0 0 0 0 0 0 0 0 0 0
0 0 0 0 0 0 0 0 0 0 0 0 0 0 0 0 0 11 30 20 24 36 54 86 111 133 13 0 0 0 0 0 0 0 0 0 0 0 0 0 0 0 0 0 0 0 0 0 0

GFSSGP_con_mlcape_033.txt.gz
CAPE
0 0 0 0 0 0 0 1 15 12 7 464 610 272 74 504 471 288 1724 1594 990 720 825 1189 1170 1085 904 650 358 115 0 0 6 16 22 24 31 62 76 148 233 245 234 239 2 0 0 0 0
0 0 0 0 0 0 8 2 0 6 312 809 1016 1412 840 665 916 1043 1398 1409 617 578 771 1229 1084 939 712 522 222 27 1 20 29 59 78 90 99 95 189 451 560 372 321 202 16 0 0 0 0
0 0 0 0 0 0 11 1 2 7 644 790 926 1141 593 425 50 639 1400 1497 319 418 560 1097 933 816 633 350 137 40 88 34 68 138 150 166 132 110 250 526 593 485 440 192 3 0 0 0 0
0 0 0 0 0 2 0 0 0 64 265 613 874 950 459 1 0 0 379 1118 532 214 426 779 821 665 439 235 99 105 61 83 176 208 201 219 153 139 145 264 399 501 421 72 17 0 0 0 0
0 0 0 0 0 0 0 0 4 231 373 562 625 887 1119 530 124 90 30 622 276 193 826 645 586 461 308 116 125 122 86 200 290 241 246 238 176 150 109 109 171 197 150 7 0 0 0 0 0
0 0 0 20 1 0 0 55 335 619 668 884 768 1274 1349 730 927 710 1250 941 521 674 656 571 445 353 261 142 137 122 138 262 302 291 370 316 242 196 93 20 34 84 12 0 0 0 0 0 0
0 0 6 1 22 43 370 636 701 880 864 744 781 805 1078 726 357 351 494 509 457 427 283 304 156 195 244 151 151 144 207 271 329 409 307 154 125 92 36 0 0 0 0 0 0 0 0 0 0
0 0 8 11 18 10 130 477 675 660 940 968 1252 1149 1184 505 204 135 64 123 132 101 17 0 16 51 115 126 204 232 221 333 345 297 182 122 85 43 14 0 0 0 0 0 0 0 0 0 0
0 0 10 13 3 0 1 195 910 965 812 1099 1433 1239 735 326 197 141 34 12 2 2 2 0 0 5 43 65 207 280 340 287 265 177 48 50 44 48 84 73 0 0 0 0 0 0 0 0 0
0 0 8 0 0 0 16 206 639 718 998 988 581 461 409 376 408 222 38 2 2 2 2 2 0 0 0 0 5 19 21 12 149 75 127 95 84 157 97 55 1 0 0 0 0 0 0 0 0
0 0 0 17 0 0 0 134 306 579 28 0 563 349 282 387 316 46 3 2 0 3 2 2 0 0 0 0 0 0 64 155 173 218 207 234 196 135 139 28 0 0 0 0 0 0 0 0 0
0 0 0 0 0 41 357 15 0 662 398 189 552 335 273 285 192 3 4 4 3 4 3 5 5 0 0 0 0 37 36 131 193 214 254 210 200 232 226 87 6 0 0 0 0 0 0 0 0
0 0 0 0 0 229 367 552 609 1044 885 1090 540 446 458 277 140 4 4 3 2 1 1 1 0 0 0 2 1 42 60 99 107 158 175 155 214 199 146 94 13 0 0 0 0 0 0 0 0
1 0 0 0 0 139 273 517 567 989 1070 764 800 468 95 72 41 24 7 5 2 2 0 0 0 0 0 0 0 39 100 26 72 86 107 143 110 176 140 77 0 0 0 0 0 0 0 0 0
0 0 0 0 5 38 54 51 621 1037 972 645 523 239 0 21 36 70 36 5 1 0 0 0 0 0 0 0 0 7 0 23 71 65 224 242 87 172 119 65 0 0 0 0 0 0 0 0 0
0 0 0 1 42 94 16 0 837 963 655 424 393 90 165 237 176 72 63 35 9 0 0 0 0 2 0 1 19 71 50 60 49 212 458 415 296 222 130 34 0 0 0 0 0 0 0 0 0
1 5 3 22 0 108 94 0 606 768 477 282 200 223 202 240 262 55 30 19 11 0 0 2 6 0 21 69 145 59 34 117 112 322 494 513 359 190 144 59 0 0 0 0 0 0 0 0 0
6 7 11 10 12 21 106 109 598 661 551 434 191 65 49 70 87 158 1 16 27 26 2 21 46 44 40 169 189 16 0 21 147 546 613 602 381 162 126 47 0 0 0 0 0 0 0 0 0
2 5 21 12 0 5 80 23 204 621 593 357 350 267 70 21 27 144 236 39 45 13 1 4 22 48 143 179 96 2 0 43 356 575 652 545 330 143 80 17 0 0 0 0 0 0 0 0 0
1 13 19 20 0 0 15 58 8 466 632 565 407 304 255 56 33 87 225 226 141 113 118 74 53 125 186 80 89 0 0 45 330 569 596 559 417 120 47 6 0 0 0 0 0 0 0 0 0
3 22 26 21 2 0 0 36 32 85 459 719 508 373 205 178 112 100 112 249 242 236 187 183 191 224 302 232 141 1 0 124 295 493 578 572 401 142 24 1 0 0 0 0 0 0 0 0 0
6 1 1 0 0 8 0 20 2 37 140 472 595 444 276 184 216 198 171 139 209 208 323 308 286 278 328 311 158 8 66 118 342 455 514 478 380 145 22 0 0 0 0 0 0 0 0 0 0
17 1 22 36 32 24 3 0 0 0 29 109 330 520 396 292 234 265 295 261 221 238 253 355 368 398 423 495 347 131 225 267 319 432 507 369 343 117 6 0 0 0 0 0 0 0 0 0 0
5 0 11 34 9 34 2 2 0 1 7 30 39 215 411 296 323 276 345 506 535 441 452 444 417 381 446 559 610 531 466 417 397 652 481 351 104 1 0 0 0 0 0 0 0 0 0 0 0
0 4 31 36 39 19 19 1 4 0 17 4 0 87 204 416 343 280 314 473 605 874 914 765 642 581 581 633 713 752 642 589 598 702 377 34 0 0 0 0 0 0 0 0 0 0 0 0 0
0 2 13 12 26 111 32 0 3 34 21 0 0 0 1 273 397 471 427 407 549 730 1084 1168 982 911 759 866 801 854 830 899 985 774 279 0 0 0 0 0 0 0 0 0 0 0 0 0 0
7 13 0 15 14 51 60 6 9 3 0 0 11 37 71 35 234 473 512 613 715 797 1078 1419 1332 1169 1128 976 936 991 906 901 962 806 326 0 0 0 0 0 0 0 0 0 0 0 0 0 0
0 26 13 12 37 17 16 41 23 0 0 0 0 10 18 119 218 169 346 629 776 941 1190 1596 1621 1521 1365 1324 1118 1061 1087 905 776 445 13 0 0 0 0 0 0 0 0 0 0 0 0 0 0
0 1 8 19 28 64 48 72 13 3 0 0 0 0 0 14 242 386 279 323 513 909 1143 1432 1730 1741 1663 1471 1428 1361 1127 1002 738 200 0 0 0 0 0 0 0 0 0 0 0 0 0 0 0
16 8 24 28 58 79 74 107 0 0 2 0 0 0 0 28 134 460 521 431 417 558 836 1201 1456 1520 1616 1538 1456 1405 995 631 243 9 1 0 0 1 0 0 0 0 0 0 0 0 0 0 1

GFSSGP_con_mlcape_036.txt.gz
CAPE
0 0 0 0 0 0 0 0 0 0 2 302 450 122 24 746 363 169 544 0 7 1206 1611 1419 1206 1050 943 658 363 122 32 8 0 0 0 2 48 96 155 177 238 262 0 0 0 0 0 0 0
0 0 0 0 0 0 0 0 22 1 287 279 26 297 0 160 459 1071 1342 1023 1119 1324 1645 1495 1168 974 848 549 280 138 98 32 0 0 16 95 156 196 220 276 300 178 0 0 0 0 0 0 0
0 0 0 0 0 0 0 0 0 0 0 228 254 972 691 172 72 508 297 823 810 1103 1318 1366 1123 938 735 424 216 197 156 30 18 101 179 165 380 571 539 379 413 236 76 0 0 0 0 0 0
0 0 0 0 0 0 1 0 0 0 13 55 341 223 313 96 71 43 0 9 186 341 1046 1056 978 766 524 339 307 237 88 140 145 247 226 203 545 694 609 586 510 242 93 0 0 0 0 0 0
0 0 0 0 0 0 0 0 0 0 29 102 241 305 37 1259 774 596 47 79 0 3 870 802 752 604 437 362 259 143 188 183 309 356 248 221 318 468 598 677 465 137 81 0 0 0 0 0 0
0 0 0 0 6 50 35 59 0 33 164 152 255 43 535 733 666 517 615 132 16 50 491 580 591 478 297 231 224 269 342 383 395 294 338 266 195 253 317 367 225 89 11 0 0 0 0 0 0
0 0 0 0 33 31 1 0 54 385 333 60 0 0 261 523 261 480 529 172 0 0 124 216 277 347 259 282 280 276 311 320 434 446 263 158 113 120 199 210 100 14 0 0 0 0 0 0 0
0 0 0 10 11 23 23 1 4 321 342 7 0 21 442 252 72 176 179 129 49 1 56 20 45 138 228 235 293 386 413 409 285 239 155 112 74 30 47 91 36 1 0 0 0 0 0 0 0
0 0 0 3 0 0 0 17 0 15 44 3 233 458 262 137 133 146 114 35 11 2 8 8 8 40 73 124 201 223 274 253 199 141 81 42 34 11 33 25 27 8 0 0 0 0 0 0 0
0 0 0 0 0 0 0 0 214 118 22 0 1 197 283 367 173 91 98 29 3 2 4 0 0 2 4 23 75 60 191 162 76 23 53 104 124 147 71 34 34 8 0 0 0 0 0 0 0
0 0 0 0 0 0 0 18 109 435 0 0 0 155 326 165 79 7 3 2 2 2 2 1 0 0 0 0 0 6 58 80 76 154 143 170 195 145 109 24 0 0 0 0 0 0 0 0 0
0 0 0 0 0 0 131 179 12 615 0 56 298 272 362 259 3 2 3 3 3 2 4 3 0 0 0 0 0 0 0 100 178 214 243 277 276 166 40 27 12 0 0 0 0 0 0 0 0
0 0 0 0 0 3 16 98 662 916 887 616 486 617 388 111 2 3 3 3 1 3 2 0 0 0 0 0 0 0 1 104 137 262 283 265 233 257 96 114 31 0 0 0 0 0 0 0 0
0 0 0 0 0 19 12 176 48 834 758 753 608 376 68 4 1 4 2 2 0 0 0 0 0 0 0 2 11 0 45 55 105 166 210 165 266 236 223 259 125 37 0 0 0 0 0 0 0
0 0 0 0 0 20 7 0 0 593 407 378 369 56 1 10 3 2 3 2 1 0 0 0 0 0 6 0 6 20 22 0 12 101 116 205 96 139 239 111 58 47 0 0 0 0 0 0 0
0 0 0 2 5 0 0 0 0 1 527 321 0 1 0 0 23 2 2 2 0 0 0 0 0 0 0 0 0 0 0 8 32 52 149 126 178 176 271 150 70 6 0 0 0 0 0 0 0
0 0 0 7 14 44 3 0 1 169 536 291 0 24 99 63 0 18 0 0 1 0 0 0 0 0 0 0 0 0 4 55 106 83 367 323 422 265 230 205 70 7 0 0 0 0 0 0 0
0 0 3 26 14 28 45 2 0 88 374 231 49 70 33 56 0 0 0 0 0 0 0 0 0 0 0 0 0 0 13 8 1 23 362 257 361 345 230 271 62 0 0 0 0 0 0 0 0
0 0 5 6 6 11 54 105 187 56 446 310 72 0 0 1 43 0 0 0 0 0 0 0 0 0 2 0 0 65 0 0 0 59 384 401 395 308 234 241 15 0 0 0 0 0 0 0 0
0 0 0 9 0 0 0 181 51 70 467 143 242 15 0 0 12 13 2 3 0 0 0 0 0 0 2 3 58 63 0 0 0 258 380 287 248 232 220 176 24 2 0 0 0 0 0 0 0
0 0 0 18 0 0 0 0 93 204 368 330 179 261 92 0 5 41 32 18 38 3 0 14 50 20 9 48 58 95 4 0 0 362 357 406 449 399 151 106 66 13 0 0 0 0 0 0 0
0 0 0 22 2 0 1 0 4 124 132 343 302 241 102 69 8 59 89 196 64 129 37 14 0 0 37 112 65 113 0 0 26 439 525 454 493 470 239 118 62 6 1 0 0 0 0 0 0
0 0 0 14 0 3 13 1 0 0 3 86 366 371 272 126 99 36 67 204 302 270 235 170 160 161 192 245 272 207 2 0 7 343 454 583 555 494 239 186 19 4 0 0 0 0 0 0 0
0 0 5 10 1 1 13 18 8 0 0 15 117 408 356 222 151 198 108 111 272 301 375 431 293 314 280 349 278 314 41 49 217 368 399 476 368 319 300 63 0 0 0 0 0 0 0 0 0
1 7 6 14 10 2 24 23 2 0 0 0 22 41 26 288 260 219 276 214 197 255 359 482 495 472 482 512 592 388 395 263 295 429 508 461 378 212 35 0 0 0 0 0 0 0 0 0 0
0 0 0 0 21 40 0 28 15 0 0 0 1 12 36 384 328 360 267 406 431 360 415 417 467 492 486 543 675 780 539 611 756 579 525 383 257 10 0 0 0 0 0 0 0 0 0 0 0
10 0 0 3 66 10 0 42 19 9 0 0 0 0 0 0 432 384 429 327 629 725 731 733 733 647 618 636 639 649 923 743 565 4 437 371 21 0 0 0 0 0 0 0 0 0 0 0 0
0 0 20 17 8 3 0 51 36 0 3 0 0 0 0 50 109 249 508 535 559 671 1123 1150 966 850 902 873 907 820 786 792 408 202 575 190 0 0 0 0 0 0 0 0 0 0 0 0 0
0 0 0 7 46 44 17 25 11 0 0 0 0 0 0 0 182 198 203 234 533 800 782 1029 1174 1268 1193 1199 1142 984 605 320 12 460 532 5 0 0 0 0 0 0 0 0 0 0 0 0 0
0 5 0 7 11 51 51 50 0 0 0 0 0 0 0 0 49 282 376 303 349 480 933 1561 1577 1564 1670 1619 1117 924 958 962 791 507 211 0 0 0 0 0 0 0 0 0 0 0 0 0 0

GFSSGP_con_mlcape_039.txt.gz
CAPE
0 0 0 0 0 0 0 0 0 2 96 253 350 240 237 838 760 228 582 99 0 0 0 947 1098 1075 734 386 136 111 73 7 11 56 140 247 253 170 442 9 0 0 0 0 0 0 0 0 0
0 0 0 0 0 0 0 0 0 0 151 230 259 205 312 419 590 993 838 177 5 0 61 795 968 1063 644 316 259 191 53 31 94 135 207 276 269 368 458 0 0 0 0 0 0 0 0 0 0
0 0 0 0 0 0 0 0 0 0 0 187 858 741 785 478 368 327 116 532 50 147 809 982 835 1022 519 284 298 153 48 63 133 225 321 343 371 506 328 35 44 0 0 0 0 0 0 0 0
0 0 0 0 0 0 0 6 0 0 0 299 444 162 206 216 196 147 39 173 532 601 706 813 843 771 504 391 316 107 128 165 234 332 539 724 732 549 348 122 109 5 0 0 0 0 0 0 0
0 0 0 0 0 0 5 5 8 140 173 212 512 121 60 690 646 553 230 80 414 443 570 557 735 520 382 425 363 263 146 220 243 530 788 891 803 711 530 181 99 5 0 0 0 0 0 0 0
0 0 0 0 0 29 11 0 0 95 93 2 0 101 456 444 632 656 512 176 60 60 38 0 307 376 278 112 86 469 511 330 294 481 709 863 885 829 403 134 66 1 0 0 0 0 0 0 0
0 0 0 0 0 8 1 0 37 121 63 26 0 0 14 295 274 472 253 19 159 282 340 228 214 236 46 1 5 295 461 326 330 302 379 492 587 581 232 105 8 0 0 0 0 0 0 0 0
0 0 0 0 0 8 15 2 14 97 36 84 0 0 11 152 94 251 108 16 66 131 87 163 99 104 202 126 285 419 380 162 72 38 81 143 235 273 178 75 16 0 0 0 0 0 0 0 0
0 0 0 0 0 0 0 0 0 48 2 0 25 208 85 162 111 137 109 89 0 35 66 51 59 70 66 33 255 415 250 111 72 17 0 6 43 96 81 42 13 0 0 0 0 0 0 0 0
0 0 0 0 0 0 0 0 113 38 5 0 34 221 164 141 172 177 64 22 10 41 25 1 0 1 0 0 76 199 98 36 11 1 0 0 4 22 54 55 24 3 0 0 0 0 0 0 0
0 0 0 0 0 0 21 133 360 84 0 0 0 181 201 145 71 29 16 1 0 3 0 0 0 0 2 2 3 48 47 7 17 30 20 63 59 13 32 50 24 0 0 0 0 0 0 0 0
0 0 0 0 0 0 0 99 257 94 39 1 148 251 187 90 16 2 0 2 1 1 2 1 0 0 0 0 0 17 10 19 36 52 97 96 80 18 8 2 0 0 0 0 0 0 0 0 0
0 0 0 0 0 0 11 374 496 369 373 314 250 338 191 5 3 3 2 2 3 4 4 3 0 0 0 0 1 3 5 55 85 138 126 145 58 35 29 1 0 0 0 0 0 0 0 0 0
0 0 0 0 0 0 0 26 38 118 353 333 233 149 39 6 2 2 1 1 1 2 0 3 0 0 0 0 0 0 10 35 12 117 115 147 142 37 20 40 0 0 0 0 0 0 0 0 0
0 0 0 0 0 6 0 0 0 384 509 270 64 2 0 0 1 2 2 0 0 2 1 2 0 0 0 0 0 0 2 5 13 42 101 108 126 145 165 112 38 2 0 0 0 0 0 0 0
0 0 0 0 4 0 2 10 0 51 366 80 0 0 0 3 0 0 0 0 1 1 0 0 0 0 0 0 0 0 0 0 0 0 48 76 101 118 124 61 31 0 0 0 0 0 0 0 0
0 0 0 0 4 0 0 0 0 0 174 27 0 0 0 0 0 0 0 1 0 0 0 0 0 0 0 0 0 0 0 0 0 0 0 26 114 71 82 73 26 0 0 0 0 0 0 0 0
0 0 0 1 5 8 2 0 0 2 203 109 0 0 0 0 0 0 0 0 0 0 0 0 0 0 0 0 0 0 0 0 0 1 12 12 89 189 137 98 63 0 0 0 0 0 0 0 0
0 0 0 1 0 17 26 0 0 0 69 188 0 1 63 0 0 0 0 0 0 0 0 0 0 0 0 0 0 0 0 0 0 4 37 130 148 237 188 116 100 0 0 0 0 0 0 0 0
0 0 0 0 5 8 61 52 0 0 168 70 0 1 44 0 0 0 0 0 0 0 0 0 0 0 0 0 0 0 0 0 0 0 0 111 206 206 194 82 19 0 0 0 0 0 0 0 0
0 0 0 0 2 5 0 30 30 0 0 218 4 0 0 0 0 0 0 0 0 0 0 0 0 0 0 0 0 0 0 0 0 0 0 96 170 102 87 71 7 0 0 0 0 0 0 0 0
0 0 0 0 2 0 0 0 44 8 102 212 50 11 0 7 0 0 0 0 0 0 0 0 0 0 0 0 0 0 0 0 0 0 18 109 171 55 57 114 50 0 0 0 0 0 0 0 0
0 0 0 0 0 0 0 21 7 25 146 190 79 116 24 8 0 0 0 0 0 0 0 0 0 0 0 0 0 0 0 0 0 0 0 73 122 176 182 59 24 0 0 0 0 0 0 0 0
0 0 0 0 0 0 0 5 5 26 92 118 79 178 126 3 0 6 0 0 0 0 0 0 0 0 0 0 0 4 5 0 0 0 77 181 235 235 167 90 30 5 0 0 0 0 0 0 0
0 0 0 0 0 0 5 18 20 5 4 12 238 254 189 96 4 15 35 38 5 8 0 0 0 0 0 0 0 7 3 0 0 0 0 237 311 194 177 119 23 0 0 0 0 0 0 0 0
0 0 0 0 0 0 0 0 4 0 0 0 266 266 167 98 43 21 58 48 94 37 33 19 6 6 8 3 43 36 27 42 13 22 66 207 184 150 35 5 0 0 0 0 0 0 0 0 0
0 0 0 0 31 15 0 0 1 0 0 0 0 74 77 1 105 62 27 21 54 145 128 159 190 139 111 132 113 126 87 64 110 27 161 112 178 5 0 0 0 0 0 0 0 0 0 0 0
0 0 0 0 0 0 0 0 16 0 0 0 0 0 0 6 91 145 54 48 44 49 149 162 222 308 256 165 189 258 304 201 163 274 47 24 0 0 0 0 0 0 0 0 0 0 0 0 0
0 0 0 1 0 10 0 0 1 7 0 0 0 0 0 21 78 143 217 121 86 92 93 123 170 191 272 279 135 227 262 312 341 197 74 14 0 0 0 0 0 0 0 0 0 0 0 0 0
0 0 0 0 0 0 3 0 0 0 0 0 0 0 0 17 148 173 163 123 110 253 235 212 210 260 19 0 237 263 115 112 96 85 0 2 0 0 0 0 0 0 0 0 0 0 0 0 0

GFSSGP_con_mlcape_042.txt.gz
CAPE
0 0 0 0 0 0 0 0 0 0 0 175 245 282 538 837 546 298 407 328 356 606 870 432 312 736 426 92 14 5 46 228 309 251 399 559 194 68 39 9 0 0 0 0 0 0 0 0 12
0 0 0 0 0 0 0 0 0 0 56 175 386 479 491 381 707 887 569 209 187 434 496 112 295 691 353 237 116 76 147 276 403 338 463 615 187 94 37 0 0 0 0 0 0 0 0 0 0
0 0 0 0 0 0 0 0 0 53 183 487 787 420 547 489 459 398 160 617 119 11 62 309 53 215 419 410 109 177 297 392 440 421 599 663 186 97 19 0 0 0 0 0 0 0 0 0 0
0 0 0 0 0 0 0 0 11 143 110 196 361 246 396 968 644 727 146 654 210 96 228 553 164 404 198 33 285 352 408 363 437 502 717 669 136 81 22 0 0 0 0 0 0 0 0 0 0
0 0 0 0 0 0 0 0 51 16 123 72 237 171 262 769 629 699 261 628 887 725 650 681 436 162 28 0 158 355 409 425 513 581 717 596 203 141 41 0 0 0 0 0 0 0 0 0 0
0 0 0 0 0 0 0 0 59 41 16 1 4 48 151 552 503 684 454 277 514 423 596 664 448 302 77 4 264 261 415 545 648 669 752 601 329 237 17 0 0 0 0 0 0 0 0 0 0
0 0 0 0 0 0 0 0 35 79 67 7 0 0 0 168 194 536 210 107 254 301 210 319 44 0 189 55 275 149 392 484 657 716 743 699 226 123 0 0 0 0 0 0 0 0 0 0 0
0 0 0 0 0 0 5 0 40 20 1 23 0 2 1 60 128 268 174 269 260 310 218 59 131 17 0 1 318 170 220 368 486 511 506 368 104 46 0 0 0 0 0 0 0 0 0 0 0
0 0 0 0 0 0 0 1 50 0 0 7 123 201 67 84 85 239 142 198 232 233 93 20 1 6 0 83 61 73 89 158 253 307 313 175 54 2 0 0 0 0 0 0 0 0 0 0 0
0 0 0 0 0 0 2 4 26 0 0 0 3 189 119 142 88 217 203 67 203 85 49 1 0 34 53 50 62 55 24 34 59 53 62 28 0 0 0 0 0 0 0 0 0 0 0 0 0
0 0 0 0 0 0 77 51 21 0 0 0 0 85 138 101 29 12 19 12 22 4 5 1 2 1 0 12 34 11 0 0 0 1 36 4 0 1 9 0 0 0 0 0 0 0 0 0 0
0 0 0 0 0 0 0 99 123 2 0 0 3 105 42 1 6 1 1 0 0 1 1 3 4 4 3 4 0 0 0 0 0 2 12 0 0 8 2 0 0 0 0 0 0 0 0 0 0
0 0 0 0 0 25 188 209 122 107 95 68 57 79 42 19 2 1 2 2 1 0 0 0 0 0 0 0 0 0 0 0 2 9 0 3 1 0 0 0 0 0 0 0 0 0 0 0 0
0 0 0 0 0 16 2 35 26 223 114 84 104 131 7 20 1 0 2 2 1 2 1 0 0 0 0 0 0 0 6 15 35 19 21 24 6 0 0 0 0 0 0 0 0 0 0 0 0
0 0 0 0 0 0 0 0 4 259 207 66 18 8 0 2 0 0 0 1 2 2 3 1 0 0 0 0 0 0 0 16 23 40 37 39 23 17 3 0 0 0 0 0 0 0 0 0 0
0 0 0 0 0 0 0 0 6 328 290 5 0 0 0 0 0 0 0 1 2 2 2 1 0 0 0 0 0 1 0 0 1 19 34 92 105 54 32 53 1 0 0 0 0 0 0 0 0
0 0 0 0 0 0 0 0 0 259 314 30 0 0 0 0 0 0 0 1 2 1 1 1 1 0 0 0 0 0 0 0 0 3 4 59 75 93 107 52 48 0 0 0 0 0 0 0 0
0 0 0 0 0 2 2 0 0 26 259 0 0 0 0 0 0 0 0 0 0 0 0 0 0 0 0 0 0 0 0 0 0 0 0 1 27 36 30 9 1 0 0 0 0 0 0 0 0
0 0 0 0 0 15 0 0 0 0 199 18 0 0 0 0 0 0 0 0 0 0 0 0 0 0 0 0 0 0 0 0 0 0 0 0 0 45 28 0 15 0 0 0 0 0 0 0 0
0 0 0 0 3 16 7 1 0 0 18 223 52 2 0 0 0 0 0 0 0 0 0 0 0 0 0 0 0 0 0 0 0 0 0 0 33 4 84 16 12 0 0 0 0 0 0 0 0
0 0 0 0 0 1 0 1 1 0 0 87 239 21 0 0 0 0 0 0 0 0 0 0 0 0 0 0 0 0 0 0 0 0 0 0 9 94 71 79 17 0 0 0 0 0 0 0 0
0 0 0 0 0 0 0 0 0 0 0 1 106 32 13 0 0 0 0 0 0 0 0 0 0 0 0 0 0 0 0 0 0 0 0 0 0 30 64 84 37 1 0 0 0 0 0 0 0
0 0 0 0 0 0 0 0 0 0 1 11 47 33 30 1 0 0 0 0 0 0 0 0 0 0 0 0 0 0 0 0 0 0 0 0 0 0 27 43 12 5 0 0 0 0 0 0 0
0 0 0 0 0 0 0 0 0 0 2 0 79 48 43 8 5 0 0 0 0 0 0 0 0 0 0 0 0 0 0 0 0 0 0 0 0 0 28 47 0 0 0 0 0 0 0 0 0
0 0 0 0 0 0 0 0 0 0 0 0 50 124 30 27 14 0 0 0 0 0 0 0 0 0 0 0 0 0 0 0 0 0 0 0 0 0 20 63 29 14 1 0 0 0 0 0 0
0 0 0 0 0 0 0 0 0 0 0 0 18 80 106 8 28 29 6 0 0 0 0 0 0 0 0 0 0 0 0 0 0 0 0 7 8 33 73 50 35 11 0 0 0 0 0 0 0
0 0 0 0 0 0 0 0 0 0 0 0 0 19 157 97 30 77 34 19 16 0 0 0 0 0 0 0 0 0 0 0 21 18 0 0 0 20 73 33 6 0 0 0 0 0 0 0 0
0 0 0 0 0 0 0 0 0 0 0 0 0 60 59 23 49 32 59 79 65 24 1 0 0 0 0 0 0 0 0 7 20 11 11 0 0 6 0 10 0 0 0 0 0 0 0 0 0
0 0 0 0 0 0 0 0 0 0 0 0 0 0 82 22 31 27 15 69 86 92 49 21 1 0 0 3 5 3 0 5 34 13 1 3 3 0 22 0 0 0 0 0 0 0 0 0 0
0 0 0 0 0 0 0 0 0 0 0 0 0 0 0 1 0 0 30 61 58 73 101 170 107 115 131 86 50 45 29 58 27 54 21 17 0 6 0 0 1 0 0 0 0 0 0 0 0

GFSSGP_con_mlcape_045.txt.gz
CAPE
0 0 0 0 0 0 0 0 0 0 0 66 204 350 383 433 445 209 524 425 866 1049 671 349 181 181 162 392 398 190 282 522 583 413 331 330 169 106 31 8 67 86 62 12 3 4 5 2 0
0 0 0 0 0 0 0 0 0 3 12 112 307 446 315 389 711 839 712 411 662 1161 876 669 383 197 50 45 373 590 157 420 667 490 388 280 143 15 0 8 77 102 52 16 2 2 2 1 0
0 0 0 0 0 0 0 0 0 17 49 152 434 273 469 428 486 594 335 476 523 827 842 535 457 207 96 38 99 545 475 493 781 486 347 185 42 0 0 0 23 42 12 0 0 0 0 0 0
0 0 0 0 0 0 0 0 0 1 9 23 74 86 420 633 452 657 379 915 713 604 654 649 394 104 46 11 61 450 423 511 825 431 286 84 3 0 0 0 0 3 0 0 0 0 0 0 0
0 0 0 0 0 0 0 0 0 4 14 11 77 23 199 789 705 752 449 804 490 342 253 456 531 138 47 54 58 591 162 521 644 417 280 60 3 0 0 0 0 0 0 0 0 0 0 0 0
0 0 0 0 0 0 0 0 0 22 4 0 0 11 339 519 618 767 646 370 745 617 295 246 283 153 50 18 10 554 297 441 639 445 273 67 1 0 0 0 0 0 0 0 0 0 0 0 0
0 0 0 0 0 0 0 0 0 24 29 8 0 0 27 173 183 507 255 274 644 633 667 389 202 165 0 0 3 138 385 349 484 389 341 180 0 0 0 0 0 0 0 0 0 0 0 0 0
0 0 0 0 0 0 0 0 1 21 0 5 0 0 2 46 203 213 139 307 453 334 374 267 216 69 1 0 26 151 195 451 571 437 298 71 0 0 0 0 0 0 0 0 0 0 0 0 0
0 0 0 0 0 0 0 0 2 0 0 0 47 189 46 45 126 152 217 225 261 241 127 142 118 29 0 0 0 98 298 507 500 313 198 21 0 0 0 0 0 0 0 0 0 0 0 0 0
0 0 0 0 0 0 0 0 5 0 0 0 0 57 51 39 85 246 111 133 167 73 1 3 0 7 8 1 0 69 333 227 229 229 65 0 0 0 0 0 0 0 0 0 0 0 0 0 0
0 0 0 0 0 0 0 0 0 0 0 0 0 9 23 14 14 20 36 55 69 18 0 2 0 1 0 18 29 44 38 53 125 118 2 0 0 0 0 0 0 0 0 0 0 0 0 0 0
0 0 0 0 0 0 0 0 5 0 0 0 0 21 12 0 2 0 1 0 12 3 0 0 6 4 0 0 0 0 48 80 114 37 0 0 0 0 0 0 0 0 0 0 0 0 0 0 0
0 0 0 0 0 0 3 26 61 0 2 2 0 46 0 17 4 1 0 0 0 1 1 0 0 0 7 3 12 1 32 69 35 16 0 0 0 0 0 0 0 0 0 0 0 0 0 0 0
0 0 0 0 0 14 6 1 10 25 7 0 0 0 1 18 0 0 0 0 1 2 2 1 1 0 0 9 0 0 8 3 4 0 0 0 0 0 0 0 0 0 0 0 0 0 0 0 0
0 0 0 0 0 0 4 0 0 9 30 0 1 0 0 0 0 0 1 1 0 2 1 1 0 2 0 4 0 0 0 5 0 0 0 0 0 0 0 0 0 0 0 0 0 0 0 0 0
0 0 0 0 0 0 0 0 0 77 49 0 0 0 0 0 0 1 1 1 1 0 0 0 1 0 0 0 0 0 16 18 26 2 0 0 0 1 1 0 0 0 0 0 0 0 0 0 0
0 0 0 0 0 0 0 0 0 109 130 0 0 0 0 0 0 0 0 1 2 1 0 1 0 0 0 0 0 1 2 13 32 26 14 6 4 16 17 9 0 0 0 0 0 0 0 0 0
0 0 0 0 0 0 0 0 0 74 145 16 0 0 0 0 0 0 0 0 2 1 1 0 0 0 0 0 0 0 3 0 1 20 59 61 42 61 58 37 44 1 0 0 0 0 0 0 0
0 0 0 0 0 0 0 0 0 9 127 61 0 0 0 0 0 0 0 0 1 1 1 1 1 0 0 1 1 5 1 0 0 0 1 22 34 72 61 34 41 13 0 0 0 0 0 0 0
0 0 0 0 0 0 0 5 0 0 21 33 0 0 0 0 0 0 0 0 1 0 0 0 0 0 0 0 0 0 0 0 0 0 0 0 3 8 21 25 14 9 0 0 0 0 0 0 0
0 0 0 0 0 0 3 4 1 0 0 34 49 0 0 0 0 0 0 0 0 0 0 0 0 0 0 0 0 0 0 0 0 0 0 0 0 0 8 26 27 0 0 0 0 0 0 0 0
0 0 0 0 0 0 0 0 0 0 0 0 6 84 2 0 0 0 0 0 0 0 0 0 0 0 0 0 0 0 0 0 0 0 0 0 0 0 5 87 62 20 0 0 0 0 0 0 0
0 0 0 0 0 0 0 0 0 0 0 0 0 27 56 12 5 0 0 0 0 0 0 0 0 0 0 0 0 0 0 0 0 0 0 0 0 0 0 45 95 34 2 0 0 0 0 0 0
0 0 0 0 0 0 0 0 0 0 0 0 0 2 0 27 15 6 0 0 0 0 0 0 0 0 0 0 0 0 0 0 0 0 0 0 0 0 0 0 0 13 1 0 0 0 0 0 0
0 0 0 0 0 0 0 0 0 0 0 0 0 3 1 24 9 4 2 0 0 0 0 0 0 0 0 0 0 0 0 0 0 0 0 0 0 0 0 0 0 0 2 0 0 0 0 0 0
0 0 0 0 0 0 0 0 0 0 0 0 0 0 0 31 13 1 0 0 0 0 0 0 0 0 0 0 0 0 0 0 0 0 0 0 0 0 0 0 0 0 7 0 0 0 0 0 0
0 0 0 0 0 0 0 0 0 0 0 0 0 0 1 26 27 12 0 0 0 0 0 0 0 0 0 0 0 0 0 0 0 0 0 0 0 0 0 1 0 22 20 0 0 0 0 0 0
0 0 0 0 0 0 0 0 0 0 0 0 0 0 0 7 9 16 5 9 0 0 0 0 0 0 0 0 0 0 0 0 0 0 0 0 0 0 0 0 5 7 11 0 0 1 0 0 0
0 0 0 0 0 0 0 0 0 0 0 0 0 0 0 0 8 10 51 12 16 5 0 0 0 0 0 0 0 0 0 0 0 0 0 0 0 1 2 0 0 0 2 1 0 0 0 0 0
0 0 0 0 0 0 0 0 0 0 0 0 0 0 0 0 1 17 15 40 22 35 41 0 0 0 0 0 0 0 0 0 0 0 0 0 0 15 0 1 0 0 0 0 0 1 0 0 0

GFSSGP_con_mlcape_051.txt.gz
CAPE
0 0 0 0 0 0 0 0 0 0 0 17 119 186 62 191 125 25 376 418 711 167 697 438 485 769 1048 1287 1389 1363 1259 1115 967 707 565 617 491 240 120 52 20 11 7 6 11 10 11 17 14
0 0 0 0 0 0 0 0 0 0 0 6 21 107 160 116 392 541 571 419 899 662 1097 946 511 654 1125 1199 1213 1207 1250 1154 907 701 521 479 251 199 123 64 35 9 7 10 10 8 8 12 9
0 0 0 0 0 0 0 0 0 0 0 0 57 64 222 211 277 488 164 321 969 1144 1115 1176 956 645 1065 1222 1178 1270 1207 1017 882 703 424 296 235 212 130 98 80 12 14 20 7 12 8 5 0
0 0 0 0 0 0 0 0 0 0 0 0 0 5 85 298 256 451 301 438 813 1105 1214 1356 1222 852 802 1076 1230 1318 1066 872 649 563 279 229 286 235 128 122 63 18 126 154 10 3 3 0 0
0 0 0 0 0 0 0 0 0 0 0 0 0 0 0 514 458 562 548 355 640 990 1293 1059 934 697 1041 1307 1311 1282 1015 778 472 473 285 302 311 145 126 117 111 65 54 26 15 0 0 0 0
0 0 0 0 0 0 0 0 0 0 0 0 0 0 8 269 298 320 404 398 727 730 1060 903 607 526 789 959 1037 1103 783 632 642 370 218 257 250 154 102 14 0 0 7 104 3 0 0 0 0
0 0 0 0 0 0 0 0 0 0 0 0 0 0 0 21 104 147 211 347 598 469 512 606 493 250 119 201 476 457 577 427 380 214 116 196 180 130 5 0 0 21 138 17 0 0 0 0 0
0 0 0 0 0 0 0 0 0 0 0 0 0 0 0 13 20 160 157 186 412 492 407 231 94 144 1 0 29 166 113 133 103 199 108 130 134 37 0 0 157 145 58 2 0 0 0 0 0
0 0 0 0 0 0 0 0 0 0 0 0 22 30 25 1 39 137 87 253 260 304 425 337 365 247 2 0 0 44 82 54 54 202 113 103 58 0 0 6 72 44 10 0 0 0 0 0 0
0 0 0 0 0 0 0 0 0 0 0 0 1 7 0 1 11 127 62 130 139 199 317 250 210 94 2 0 0 8 69 70 61 200 107 44 0 0 0 0 10 13 5 2 0 0 0 0 0
0 0 0 0 0 0 0 0 0 0 0 0 0 0 0 3 9 68 50 112 59 73 83 137 60 19 1 1 0 0 16 27 51 228 83 0 0 0 0 0 5 7 11 17 1 0 0 0 0
0 0 0 0 0 0 0 0 0 0 0 0 0 0 0 0 41 49 19 9 5 0 1 5 2 3 3 3 0 1 25 21 52 185 3 0 0 0 0 0 0 0 3 21 2 0 0 0 0
0 0 0 0 0 0 0 0 0 0 0 0 0 0 0 1 2 11 5 4 0 0 1 0 0 1 1 1 9 2 0 27 57 114 5 0 0 0 0 0 0 0 0 0 0 0 0 0 0
0 0 0 0 0 0 0 0 0 0 0 0 0 0 1 1 1 0 0 1 4 3 2 2 2 1 0 5 3 14 6 33 90 89 14 13 0 0 0 0 0 0 0 0 0 0 0 0 0
0 0 0 0 0 0 0 0 0 0 0 0 0 0 2 0 1 1 0 0 0 1 2 2 3 1 0 4 3 4 4 4 36 76 36 10 0 0 0 0 0 0 0 0 0 0 0 0 0
0 0 0 0 0 0 0 0 0 0 0 0 0 0 0 0 1 0 0 0 0 0 2 1 1 1 0 6 6 10 0 4 15 43 67 18 0 0 0 0 0 0 0 0 0 0 0 0 0
0 0 0 0 0 0 0 0 0 0 6 2 0 0 0 0 1 0 1 0 2 0 0 2 2 0 0 0 5 9 2 8 5 17 63 36 2 0 0 0 0 0 0 0 0 0 0 0 0
0 0 0 0 0 0 0 0 0 0 1 6 0 0 0 0 0 0 4 1 1 1 2 1 2 5 6 2 0 2 11 0 5 18 45 37 14 1 0 0 0 0 0 0 0 0 0 0 0
0 0 0 0 0 0 0 0 0 0 0 10 14 3 0 0 0 0 1 3 1 4 3 1 1 1 2 1 1 1 8 0 1 43 53 55 41 21 4 2 0 0 0 0 0 0 0 0 0
0 0 0 0 0 0 0 0 0 0 0 0 6 8 3 0 0 0 0 2 1 2 2 1 1 1 2 1 1 0 0 0 2 14 44 46 41 26 23 22 3 0 0 0 0 0 0 0 0
0 0 0 0 0 0 0 0 0 0 0 0 0 11 26 1 0 0 0 1 0 1 2 2 1 1 1 2 0 0 0 0 0 7 21 19 33 34 59 62 54 39 17 2 0 0 0 0 0
0 0 0 0 0 0 0 0 0 0 0 0 0 0 0 8 0 0 0 1 1 0 0 0 5 1 1 0 0 0 0 0 0 0 2 18 25 51 91 117 90 56 77 74 48 16 0 0 0
0 0 0 0 0 0 0 0 0 0 0 0 0 0 0 0 0 0 0 0 0 0 0 0 3 5 2 0 0 0 0 0 0 0 0 4 1 6 22 20 33 44 44 43 40 13 0 0 0
0 0 0 0 0 0 0 0 0 0 0 0 0 0 0 0 0 0 0 0 0 0 0 0 1 3 2 1 0 0 0 0 0 0 0 0 0 0 0 0 4 8 5 1 12 20 1 0 0
0 0 0 0 0 0 0 0 0 0 0 0 0 0 0 0 0 0 0 0 0 0 0 0 2 0 1 0 0 0 0 0 0 0 0 0 0 0 0 0 0 0 0 0 0 4 9 0 0
0 0 0 0 0 0 0 0 0 0 0 0 0 0 0 0 0 0 0 0 0 0 0 0 2 1 0 0 0 0 0 0 0 0 0 0 0 0 0 0 0 0 0 0 0 0 1 2 0
0 0 0 0 0 0 0 0 0 0 0 0 0 0 0 0 0 0 0 0 0 0 0 0 0 0 0 0 0 0 0 0 0 0 0 0 0 0 0 0 0 0 0 0 0 0 5 15 11
0 0 0 0 0 0 0 0 0 0 0 0 0 0 0 0 0 0 0 0 0 0 0 0 0 0 0 0 0 0 0 0 0 0 0 0 0 0 0 0 0 0 0 0 0 0 8 3 0
0 0 0 0 0 0 0 0 0 0 0 0 0 0 0 0 0 0 0 0 0 0 0 0 0 0 0 0 0 0 0 0 0 0 0 0 0 0 0 0 0 0 0 0 0 0 5 0 0
0 0 0 0 0 0 0 0 0 0 0 0 0 0 0 0 0 0 0 0 0 0 0 0 0 0 0 0 0 0 0 0 0 0 0 0 0 0 0 0 0 0 0 0 0 0 16 1 0

GFSSGP_con_mlcape_054.txt.gz
CAPE
0 0 0 0 0 0 0 0 0 0 0 0 85 118 42 100 93 94 678 752 1057 871 968 924 1033 1160 1653 1535 1408 1262 1394 1263 1064 909 885 805 675 765 660 380 239 132 57 17 7 10 13 16 7
0 0 0 0 0 0 0 0 0 0 0 0 77 34 138 124 390 730 814 777 1032 720 1031 793 986 1155 1844 1795 1667 1512 1511 1353 1077 1032 951 843 605 453 308 132 62 8 4 9 14 19 10 12 0
0 0 0 0 0 0 0 0 0 0 0 2 21 132 224 276 413 783 562 658 936 898 893 744 949 1280 1449 1860 1776 1655 1518 1349 1113 1034 907 696 479 263 135 39 10 0 5 9 11 21 18 7 0
0 0 0 0 0 0 0 0 0 0 0 0 0 0 152 409 482 774 616 694 926 1346 1172 1124 957 1299 1300 1735 1717 1641 1490 1262 992 891 723 649 531 262 138 40 23 36 16 12 7 14 13 0 0
0 0 0 0 0 0 0 0 0 0 0 0 0 0 25 641 611 705 806 575 962 1125 1396 1260 955 1065 716 564 1660 1575 1387 1157 999 741 639 669 556 273 154 98 116 83 57 4 8 8 0 0 0
0 0 0 0 0 0 0 0 0 0 0 0 0 0 24 619 531 656 589 816 1184 1025 1476 1175 1122 601 564 676 939 1372 1178 815 875 711 655 693 574 223 137 176 152 116 23 0 3 1 0 0 0
0 0 0 0 0 0 0 0 0 0 0 0 0 0 5 153 347 567 434 757 961 690 845 1062 840 616 305 339 776 1045 953 664 632 786 805 581 415 223 190 111 129 105 62 0 0 0 0 0 0
0 0 0 0 0 0 0 0 0 0 0 5 0 0 0 278 133 289 559 553 808 823 437 565 379 396 455 330 175 533 596 462 288 491 342 351 241 116 51 37 125 131 72 0 0 0 0 0 0
0 0 0 0 0 0 0 0 0 0 0 1 30 32 248 62 69 207 385 513 563 417 428 289 107 49 140 93 52 244 232 240 235 302 200 212 202 101 23 3 127 148 0 0 0 0 0 0 0
0 0 0 0 0 0 0 0 0 0 0 0 9 153 86 0 26 138 170 419 298 212 361 301 12 29 73 33 26 62 111 126 109 67 72 253 189 49 8 199 148 77 0 0 0 0 0 0 0
0 0 0 0 0 0 0 0 0 0 0 0 0 49 79 39 14 73 226 111 295 195 82 365 144 116 8 0 0 0 65 16 9 22 52 190 126 15 114 197 124 51 0 0 0 0 0 0 0
0 0 0 0 0 0 0 0 0 0 0 0 0 2 48 65 100 104 102 119 86 30 65 137 180 76 58 9 9 7 46 11 38 3 12 247 79 35 46 50 52 23 2 3 1 0 0 0 0
0 0 0 0 0 0 0 0 0 0 0 0 1 14 27 103 103 31 23 93 24 1 15 21 16 24 2 2 2 6 18 7 28 42 94 126 49 35 28 31 45 43 44 25 6 0 0 0 0
0 0 0 0 0 0 0 0 0 0 15 21 45 4 13 8 13 3 0 1 51 2 1 3 5 4 3 2 6 7 4 15 38 41 106 52 43 27 5 8 0 8 33 26 2 0 0 0 0
0 0 0 0 0 0 0 0 0 0 48 57 51 6 0 21 1 2 3 6 2 12 2 4 2 2 1 2 7 4 18 14 42 77 68 34 31 22 8 0 0 0 0 1 0 0 0 0 0
0 0 0 0 0 0 0 0 0 1 30 30 60 6 0 0 0 0 1 0 1 3 2 4 4 3 2 5 3 2 36 28 57 96 71 35 1 1 0 0 0 0 0 0 0 0 0 0 0
0 0 0 0 0 0 0 0 0 0 0 3 50 45 2 0 0 0 0 2 1 2 1 1 2 4 4 8 8 2 1 7 34 61 57 16 1 0 0 0 1 6 0 0 0 0 0 0 0
0 0 0 0 0 0 0 0 0 0 0 8 35 78 28 0 0 0 0 1 3 2 2 3 4 6 4 8 6 9 3 2 18 34 91 62 7 3 2 0 7 19 2 0 0 0 0 0 0
0 0 0 0 0 0 0 0 0 0 0 11 42 104 76 9 0 0 0 2 3 5 3 1 2 2 1 4 4 3 2 0 0 0 54 129 18 14 24 5 18 12 25 25 3 0 0 0 0
0 0 0 0 0 0 0 0 0 0 0 10 40 84 114 54 0 0 0 0 2 6 4 4 2 2 1 4 8 9 1 0 0 0 27 93 83 29 47 17 10 6 45 62 47 32 2 1 0
0 0 0 0 0 0 0 0 0 0 0 0 21 42 103 98 15 0 0 0 3 6 7 2 4 2 2 1 3 2 1 3 0 0 23 70 131 74 60 59 45 29 33 54 100 99 81 82 5
0 0 0 0 0 0 0 0 0 0 0 0 0 55 72 105 73 0 0 0 0 0 6 9 3 2 3 3 2 1 0 0 0 0 9 49 114 107 73 83 96 108 69 49 108 129 113 135 75
0 0 0 0 0 0 0 0 0 0 0 0 0 0 61 84 120 58 3 0 0 0 2 4 5 5 2 3 1 0 1 0 0 0 7 50 87 100 67 81 121 151 213 183 215 181 188 168 146
0 0 0 0 0 0 0 0 0 0 0 0 0 0 2 38 84 121 69 5 0 0 0 1 8 8 3 2 2 0 0 0 0 0 0 7 19 62 83 115 171 153 178 223 220 241 244 220 145
0 0 0 0 0 0 0 0 0 0 0 0 0 0 0 2 46 78 100 52 2 0 0 0 1 5 3 2 2 1 0 0 0 0 0 0 0 7 20 51 70 70 94 138 147 133 216 233 187
0 0 0 0 0 0 0 0 0 0 0 0 0 0 0 0 30 45 95 81 39 0 0 0 0 0 7 4 1 8 10 7 1 0 0 0 0 0 0 7 16 15 33 47 63 68 89 96 156
0 0 0 0 0 0 0 0 0 0 0 0 0 0 0 0 13 23 82 104 91 26 0 0 0 0 0 4 6 2 5 8 2 0 0 0 0 0 0 0 0 0 0 0 13 21 19 38 87
0 0 0 0 0 0 0 0 0 0 0 0 0 0 0 0 0 0 29 94 95 72 1 0 0 0 0 0 1 2 4 8 7 3 0 0 0 0 0 0 0 0 0 0 0 7 4 11 57
0 0 0 0 0 0 0 1 0 0 0 0 0 0 0 0 0 0 21 80 78 80 40 1 0 0 0 0 0 1 1 1 3 2 0 0 0 0 0 0 0 0 0 0 0 0 4 5 34
0 0 0 0 0 0 0 0 0 0 0 0 0 0 0 0 0 0 59 100 79 98 85 78 8 0 0 0 0 0 0 2 0 0 0 0 0 0 0 0 0 0 0 0 0 0 9 20 25

GFSSGP_con_mlcape_057.txt.gz
CAPE
0 0 0 0 0 0 0 0 0 0 0 0 0 0 0 0 0 79 952 1054 1410 1195 1276 846 1310 1823 1764 1568 1397 1276 928 983 1061 837 847 795 754 707 699 436 336 285 94 18 12 34 25 25 2
0 0 0 0 0 0 0 0 0 0 0 0 0 0 0 3 82 174 870 1095 1213 1156 1419 967 1012 1569 1799 1575 1412 1310 1359 1260 1066 905 893 763 621 691 613 406 343 143 24 5 4 16 16 2 0
0 0 0 0 0 0 0 0 0 0 0 0 0 8 0 0 264 562 912 1040 1189 1342 1329 1271 1012 1253 1365 1560 1462 1436 1401 1254 1175 1015 1025 830 680 703 467 205 139 57 19 7 4 11 9 1 0
0 0 0 0 0 0 0 0 0 0 0 0 0 0 17 260 487 875 924 914 1329 1487 1125 1216 789 1023 1362 1506 1558 1434 1385 1100 915 888 1128 989 793 498 231 119 47 28 13 19 19 11 4 0 0
0 0 0 0 0 0 0 0 0 0 0 0 0 5 8 501 613 758 883 873 1184 1532 1354 1196 838 593 1343 1309 1376 1203 1204 986 941 1091 992 823 556 318 132 69 29 28 3 10 10 2 0 0 0
0 0 0 0 0 0 0 0 0 0 0 0 0 0 1 767 472 751 767 922 1044 1457 1609 1165 1053 714 574 658 592 378 776 775 936 981 877 687 419 169 153 191 138 23 5 0 3 0 0 0 0
0 0 0 0 0 0 0 0 0 0 0 0 15 0 0 242 385 535 693 736 948 1271 1522 1357 1163 974 416 422 411 71 772 893 909 843 705 489 261 147 248 252 179 2 0 0 0 0 0 0 0
0 0 0 0 0 0 0 0 0 0 0 3 0 0 0 613 432 426 487 501 575 1160 870 1126 1056 760 480 341 221 142 301 435 715 720 739 671 232 197 278 205 140 4 0 0 0 0 0 0 0
0 0 0 0 0 0 0 0 0 0 0 0 0 0 97 393 210 257 346 374 525 845 674 403 605 656 495 391 206 270 169 209 434 663 424 390 279 250 170 190 172 1 0 0 0 0 0 0 0
0 0 0 0 0 0 0 0 0 0 0 0 0 0 286 236 110 103 116 175 431 546 493 272 104 154 196 184 39 88 54 108 206 358 217 149 168 194 179 195 148 3 0 0 0 0 0 0 0
0 0 0 0 0 0 0 0 0 0 0 4 0 0 215 262 73 140 62 245 325 380 384 196 84 46 87 6 76 123 253 178 138 62 0 0 64 173 153 228 150 0 0 0 0 0 0 0 0
0 0 0 0 0 0 0 0 0 0 0 0 0 0 78 58 119 177 168 312 363 372 166 166 18 3 2 0 17 50 31 48 4 15 13 14 55 157 262 213 116 0 0 0 0 0 0 0 0
0 0 0 0 0 0 0 0 0 0 0 0 0 8 0 0 39 146 158 255 190 177 235 53 61 69 4 1 0 0 52 7 15 0 11 23 97 137 257 200 118 3 3 0 0 3 1 0 0
0 0 0 0 0 0 0 0 0 0 0 0 1 62 26 0 0 78 159 227 179 3 1 1 2 7 1 0 3 3 33 8 9 0 0 10 102 111 182 175 161 47 51 13 0 8 0 0 0
0 0 0 0 0 0 0 0 0 0 0 0 13 71 42 15 0 3 41 131 121 57 4 1 2 2 1 2 2 6 23 9 0 0 7 64 112 164 217 240 155 99 102 53 20 1 0 0 0
0 0 0 0 0 0 0 0 0 0 0 0 13 58 51 3 0 0 3 48 42 3 3 4 3 2 2 2 2 5 3 7 5 0 61 104 103 118 115 70 39 28 69 38 8 0 0 0 0
0 0 0 0 0 0 0 0 0 0 0 0 1 56 60 31 0 0 0 0 33 3 0 2 4 3 3 3 2 4 7 12 15 44 102 106 74 52 22 0 2 9 11 3 1 0 0 0 0
0 0 0 0 0 0 0 0 0 0 0 0 0 34 75 48 6 0 0 0 3 6 1 2 3 2 4 3 1 4 3 12 30 47 84 51 34 29 12 0 0 3 0 0 0 0 0 0 0
0 0 0 0 0 0 0 0 0 0 0 0 0 8 67 67 46 0 0 0 0 5 8 8 1 1 3 3 2 5 2 5 16 64 52 53 27 29 4 1 24 55 23 7 9 0 0 0 0
0 0 0 0 0 0 0 0 0 0 0 0 0 8 39 120 46 6 0 0 0 4 9 4 2 2 2 3 6 0 1 2 1 19 78 48 64 40 7 16 9 76 64 69 53 13 2 0 0
0 0 0 0 0 0 0 0 0 0 0 0 0 0 9 80 85 38 13 1 0 2 9 3 2 2 2 6 21 6 3 5 15 0 36 84 130 45 31 32 51 63 106 152 135 111 82 44 8
0 0 0 0 0 0 0 0 0 0 0 0 0 0 0 8 89 79 35 29 0 0 3 7 2 1 6 3 4 1 1 2 0 0 0 14 102 79 23 57 103 116 96 167 195 177 152 141 106
0 0 0 0 0 0 0 0 0 0 0 0 0 0 0 0 48 97 74 45 24 0 2 7 3 2 2 6 2 4 4 1 0 0 0 15 58 44 66 90 106 135 133 128 160 177 215 192 156
0 0 0 0 0 0 0 0 0 0 0 0 0 0 0 0 12 103 108 74 49 0 0 7 10 3 2 3 5 2 1 2 0 0 0 7 28 56 48 92 84 137 197 205 181 165 216 241 181
0 0 0 0 0 0 0 0 0 0 0 0 0 0 0 0 0 73 134 97 61 21 0 0 3 12 2 2 2 1 6 0 1 0 0 0 1 9 38 64 47 123 168 189 159 176 214 237 181
0 0 0 0 0 1 0 0 0 0 0 0 0 0 0 0 0 53 164 181 82 65 8 0 0 2 6 2 3 6 6 3 3 1 0 0 0 0 21 75 76 99 148 189 129 117 142 71 102
0 0 0 0 0 0 1 0 0 0 0 0 0 0 0 0 0 1 76 230 220 108 55 5 0 0 1 4 2 2 1 3 4 2 0 0 0 0 2 32 62 72 72 83 92 141 133 96 106
0 0 0 0 1 0 1 7 10 0 0 0 0 0 0 6 13 2 21 123 277 230 122 40 1 0 0 1 3 3 1 0 1 0 5 0 0 0 6 8 17 27 35 45 58 49 38 34 55
0 0 3 0 0 0 4 3 1 2 0 0 0 0 2 0 0 2 0 36 222 294 234 119 25 0 0 0 0 4 3 10 10 13 10 11 9 0 0 4 9 6 12 13 23 8 0 9 16
9 0 0 0 2 4 16 2 0 0 0 0 0 0 0 0 0 0 18 101 210 312 325 219 61 14 0 0 4 31 57 55 40 39 100 82 34 21 9 0 11 0 0 1 18 19 3 7 23

GFSSGP_con_mlcape_060.txt.gz
CAPE
0 0 0 0 0 0 0 0 0 0 0 0 0 0 0 0 0 183 1031 1158 1325 1175 1303 1058 1316 1666 1528 1294 1253 1090 994 972 762 753 797 795 569 483 641 638 477 359 336 282 176 86 24 44 6
0 0 0 0 0 0 0 0 0 0 0 0 0 0 0 0 54 201 1273 1187 1180 1104 1376 1248 1408 1829 1714 1412 1239 1227 1259 1216 1129 1041 814 672 620 746 606 556 363 243 141 192 120 66 19 5 0
0 0 0 0 0 0 0 0 0 0 0 0 0 0 0 0 129 326 1017 1122 1123 1180 1529 1224 1167 1560 1819 1545 1271 1118 1118 1151 1030 1047 1036 681 827 626 454 446 292 98 41 54 75 32 3 0 0
0 0 0 0 0 0 0 0 0 0 0 0 0 0 5 31 60 765 892 821 1227 1368 1486 1304 1051 1193 1634 1688 1326 1136 1029 999 976 932 995 734 838 665 554 357 153 34 16 14 46 18 0 0 0
0 0 0 0 0 0 0 0 0 0 0 0 0 0 1 507 705 652 812 816 978 1299 1596 1298 1122 911 1141 1233 1124 1188 1061 1056 881 823 976 790 778 665 425 264 157 95 42 24 14 0 0 0 0
0 0 0 0 0 0 0 0 0 0 0 0 0 0 10 649 501 816 854 763 1037 1216 1502 1401 941 825 599 1019 889 684 548 563 788 838 866 907 601 371 194 126 116 128 85 9 4 0 0 0 0
0 0 0 0 0 0 0 0 0 0 0 0 4 0 0 467 380 583 757 723 897 989 1326 1518 1173 914 377 377 408 279 15 16 469 894 818 642 432 220 114 174 110 59 41 6 0 0 0 0 0
0 0 0 0 0 0 0 0 0 0 0 0 0 0 0 780 517 484 488 456 509 1006 1214 1240 1056 999 611 278 258 14 0 0 0 641 655 435 276 195 237 170 106 39 0 0 0 0 0 0 0
0 0 0 0 0 0 0 0 0 0 0 0 0 0 132 416 192 273 177 319 142 419 972 622 853 865 489 131 174 12 0 0 43 415 409 213 213 258 252 139 72 23 11 0 0 0 0 0 0
0 0 0 0 0 0 1 0 0 0 0 0 0 3 112 250 119 42 23 143 272 429 609 360 500 499 254 144 136 8 0 0 69 268 213 261 285 222 156 123 61 0 0 0 0 0 0 0 0
0 0 0 0 0 0 0 0 0 0 0 0 2 0 348 436 83 72 52 51 247 407 426 379 188 266 140 104 92 52 0 94 71 92 111 211 220 194 152 84 7 0 0 0 0 0 0 0 0
0 0 0 0 0 0 0 0 0 0 0 0 0 0 0 138 47 114 85 164 263 268 272 194 168 134 47 98 90 17 6 32 46 11 13 27 0 86 130 82 0 0 0 0 0 0 0 0 0
0 0 0 0 0 0 0 0 0 0 0 0 0 0 0 2 0 27 77 236 203 138 266 63 3 0 55 17 108 51 17 0 0 0 0 0 7 21 57 65 0 0 0 0 0 0 0 0 0
0 0 0 0 0 0 0 0 0 0 0 0 0 0 23 29 0 4 109 195 129 34 20 2 9 30 0 26 17 69 31 2 0 0 0 0 12 8 45 117 9 0 0 0 0 1 0 0 0
0 0 0 0 0 0 0 0 0 0 0 0 0 0 41 40 0 0 23 144 144 14 0 1 0 6 2 4 15 43 19 1 0 0 0 0 5 1 110 135 55 23 5 0 0 3 0 1 0
0 0 0 0 0 0 0 0 0 0 0 0 0 2 46 45 29 0 0 70 86 8 0 0 1 7 2 2 4 3 34 7 2 0 0 1 15 69 116 131 105 53 38 21 19 0 0 0 0
0 0 0 0 0 0 0 0 0 0 0 0 0 6 39 62 37 2 0 14 48 0 1 1 1 0 0 1 3 3 13 2 2 0 0 0 1 78 65 61 82 99 58 31 12 0 0 0 3
0 0 0 0 0 0 0 0 0 0 0 0 0 0 39 59 68 16 0 0 32 0 2 1 1 2 3 3 3 9 7 2 2 0 0 0 17 15 1 11 0 4 15 13 1 0 0 0 1
0 0 0 0 0 0 0 0 0 0 0 0 0 0 1 79 81 14 3 0 10 0 2 0 1 3 2 1 2 2 2 7 5 1 5 37 28 5 8 3 4 3 2 0 2 3 0 0 0
0 0 0 0 0 0 0 0 0 0 0 0 0 0 0 38 70 13 13 0 0 0 1 8 1 2 4 1 1 2 3 3 10 25 0 0 12 6 1 12 4 10 55 18 14 0 5 0 0
0 0 0 0 0 0 0 0 0 0 0 0 0 0 3 19 73 18 26 1 0 0 3 2 3 3 1 4 2 2 2 1 0 8 1 7 6 0 0 16 43 43 70 5 26 17 11 0 0
0 0 0 0 0 0 0 0 0 0 0 0 0 0 0 1 91 82 49 46 0 5 0 2 3 1 2 3 5 0 1 2 0 0 0 19 45 14 18 51 36 4 24 81 86 64 59 26 0
0 0 0 0 0 0 0 0 0 0 0 0 0 0 0 0 9 106 97 80 17 4 0 0 1 2 1 3 3 2 2 1 0 0 0 2 23 73 30 31 85 25 0 30 77 113 97 102 98
0 0 0 0 0 0 0 0 0 0 0 0 1 0 0 0 0 78 170 94 88 0 7 0 3 4 2 0 4 2 3 0 0 0 0 0 7 72 75 25 40 85 93 26 62 117 136 120 156
0 0 0 0 0 0 0 0 0 0 0 0 0 0 0 3 3 28 176 129 139 25 25 0 0 5 6 1 0 0 5 1 0 0 0 0 0 19 50 32 18 61 54 73 68 75 87 168 130
0 0 0 1 0 0 0 0 0 0 0 0 0 0 0 0 0 0 141 215 161 71 43 0 0 3 4 3 2 2 2 2 0 0 0 0 0 0 14 19 6 20 39 52 117 81 83 86 130
0 0 0 0 0 0 0 0 0 0 0 0 0 0 0 0 0 0 94 291 185 166 32 13 0 2 1 0 6 2 5 0 0 0 0 0 0 0 4 19 8 6 25 60 107 101 86 60 86
0 0 0 0 0 0 7 6 0 0 0 0 0 0 0 5 1 9 22 293 291 235 127 37 0 0 0 1 2 1 1 2 0 0 0 0 0 0 0 4 35 31 31 56 108 99 45 65 73
0 0 0 0 0 0 0 1 0 0 0 6 0 0 0 0 0 0 32 65 379 344 264 105 27 0 0 0 1 3 1 1 3 1 1 0 0 0 0 0 1 7 36 46 57 48 51 54 55
0 0 0 0 4 0 0 8 0 0 0 0 0 0 0 0 0 0 0 88 149 422 383 307 107 36 0 0 0 0 3 1 1 0 0 0 0 0 0 0 0 0 0 4 11 14 12 17 20

GFSSGP_con_mlcape_063.txt.gz
CAPE
0 0 0 0 0 0 0 0 0 0 0 0 0 0 0 0 9 113 1060 712 1260 1189 905 1164 1570 1250 1180 1146 1109 1075 958 821 794 785 526 350 362 269 442 688 641 595 555 377 117 140 44 88 51
0 0 0 0 0 0 0 0 0 0 0 0 0 0 0 0 580 1020 1134 1003 1067 1269 1015 1041 1574 1572 1333 1265 1194 1177 1137 1052 1048 993 678 518 599 615 737 676 641 657 478 347 224 77 116 42 14
0 0 0 0 0 0 0 0 0 0 0 0 0 0 0 0 95 722 927 1002 1003 1185 1233 1155 1453 1753 1567 1356 1276 1207 1196 1026 1059 974 820 811 820 780 671 606 646 473 475 363 195 56 36 8 7
0 0 0 0 0 0 0 0 0 0 0 0 0 0 0 4 10 594 811 792 817 1031 1326 1300 1273 1660 1756 1518 1311 1169 1274 1026 1097 923 844 973 1007 825 596 452 357 383 473 206 69 42 5 0 0
0 0 0 0 0 0 0 0 0 0 0 0 0 0 22 447 757 680 597 707 956 836 1191 1258 1174 1289 1606 1688 1374 1162 1072 889 937 930 1033 973 904 641 474 331 260 290 250 68 31 3 0 0 0
0 0 0 0 0 0 0 0 0 0 0 0 0 0 129 558 431 658 579 634 932 1096 1307 1221 1000 1165 1084 1318 1266 1229 1071 639 523 827 816 830 695 530 359 244 107 107 77 17 3 0 0 0 0
0 0 0 0 0 0 0 0 0 0 0 0 0 0 297 411 657 701 584 431 552 887 981 1330 860 760 805 743 676 399 440 42 105 300 747 658 468 475 337 327 190 73 29 3 0 0 0 0 0
0 0 0 0 0 0 0 0 0 0 0 0 0 0 214 347 368 258 332 353 448 732 863 975 1009 897 435 290 272 102 56 0 4 2 56 254 280 338 315 313 202 82 28 7 0 0 0 0 0
0 0 0 0 0 0 0 0 0 0 0 0 0 0 53 414 267 102 183 290 65 614 357 499 663 830 428 135 44 6 0 0 0 0 0 327 311 260 213 154 147 33 3 0 0 0 0 0 0
0 0 0 0 0 0 0 0 0 0 0 0 0 122 356 94 47 31 13 179 106 260 268 306 515 625 203 89 57 28 0 0 0 1 0 235 244 193 162 100 76 8 0 0 0 0 0 0 0
0 0 0 0 0 0 0 0 0 0 0 0 0 37 75 34 10 0 0 27 70 318 368 219 380 266 90 23 21 28 0 0 0 88 69 168 230 188 50 42 25 0 0 0 0 0 0 0 0
0 0 0 0 0 0 0 0 0 0 0 0 0 20 230 163 16 1 19 52 216 267 300 217 218 116 39 43 10 0 0 18 1 7 104 94 141 58 29 23 15 2 0 0 0 0 0 0 0
0 0 0 0 0 0 0 0 0 0 0 0 0 0 10 29 22 29 52 102 119 208 114 71 106 34 41 26 2 1 12 8 18 45 22 7 41 24 0 1 1 0 0 0 0 0 0 0 0
0 0 0 0 0 0 0 0 0 0 0 0 0 0 0 0 0 0 54 75 30 59 8 7 10 29 8 19 1 1 26 4 3 3 0 2 57 15 0 0 0 0 0 0 0 0 0 0 0
0 0 0 0 0 0 0 0 0 0 0 0 0 0 0 0 0 0 25 55 21 4 1 0 1 3 17 7 5 2 3 0 0 0 0 0 1 1 9 0 0 0 0 0 0 0 0 0 0
0 0 0 0 0 0 0 0 0 0 0 0 0 0 0 8 0 0 0 50 11 0 0 2 6 9 16 6 0 4 0 0 0 0 0 0 0 0 17 1 0 1 0 0 0 0 0 0 0
0 0 0 0 0 0 0 0 0 0 0 0 0 0 0 0 0 0 0 27 0 0 0 0 0 2 3 5 14 15 3 1 0 0 0 0 0 0 13 22 0 19 0 0 0 0 0 0 0
0 0 0 0 0 0 0 0 0 0 0 0 0 0 0 0 0 0 0 2 0 0 0 0 2 1 0 1 1 2 30 7 0 0 0 0 0 3 26 32 0 40 29 15 10 0 0 0 0
0 0 0 0 0 0 0 0 0 0 0 0 0 0 0 9 0 0 0 0 0 0 0 0 1 2 0 1 1 0 0 1 2 0 0 0 0 2 0 21 24 5 37 18 0 3 0 0 0
0 0 0 0 0 0 0 0 0 0 0 0 0 0 0 8 3 0 0 0 0 0 0 0 0 1 1 3 5 8 2 1 1 1 0 0 0 0 0 1 8 0 24 4 2 6 5 2 0
0 0 0 0 0 0 0 0 0 0 0 0 0 0 0 6 10 0 0 0 0 0 0 0 0 1 1 2 2 4 2 2 2 2 1 0 0 0 0 0 0 0 1 1 5 10 3 6 0
0 0 0 0 0 0 0 0 0 0 0 0 0 0 0 13 14 0 0 0 0 0 0 0 0 0 1 2 0 0 1 1 1 0 0 0 0 0 0 0 0 0 10 26 17 7 0 0 4
0 0 0 0 0 0 0 0 0 0 0 0 0 0 0 4 4 1 0 0 0 0 0 0 1 1 0 2 2 0 0 0 1 0 0 0 0 0 0 0 0 1 16 28 16 0 0 1 1
0 0 0 0 0 0 0 0 0 0 0 0 0 0 0 0 1 17 0 6 0 0 0 0 0 1 2 1 2 0 0 0 0 0 0 0 0 0 0 0 0 0 0 7 63 5 3 1 18
0 0 0 0 0 0 0 0 0 0 0 0 0 0 0 0 16 12 22 11 0 0 0 0 0 0 4 2 1 0 0 0 0 0 0 0 0 0 0 0 5 26 7 0 7 70 54 31 15
0 0 0 0 0 0 0 0 0 0 0 0 0 0 0 0 25 31 28 27 0 0 0 0 0 0 4 2 2 0 0 0 0 0 0 0 0 0 2 0 0 5 36 60 47 25 87 79 48
0 0 0 0 0 0 0 0 0 0 0 0 0 0 0 3 25 62 46 45 6 0 0 0 0 0 2 2 1 1 2 0 0 0 0 0 0 0 0 0 10 0 6 42 75 99 60 83 92
0 0 0 0 0 0 0 0 1 0 0 0 0 0 0 2 0 106 94 66 49 5 0 0 0 0 0 2 2 2 0 3 0 0 0 0 0 0 0 0 0 5 4 8 54 70 65 62 33
0 0 0 1 0 0 0 0 0 0 0 0 0 0 0 0 1 6 131 95 88 29 15 0 0 0 0 0 0 4 1 0 2 0 0 0 0 0 0 0 0 0 0 0 0 18 28 27 19
4 9 0 0 0 0 0 0 0 0 0 0 0 0 0 0 0 0 0 1 83 84 13 15 0 0 0 0 0 0 2 3 2 1 0 0 0 0 0 0 0 0 0 0 0 0 2 3 0

GFSSGP_con_mlcape_066.txt.gz
CAPE
0 0 0 0 0 0 0 0 0 0 0 0 0 0 0 0 0 4 537 712 1185 1100 1319 1210 1131 1198 1191 955 791 861 965 1008 923 817 684 525 362 197 152 262 549 620 493 359 317 339 400 229 181
0 0 0 0 0 0 0 0 0 0 0 0 0 0 0 19 452 741 670 1017 1174 1053 1177 1376 1253 1255 1317 1133 918 910 1119 1113 871 753 676 540 400 641 724 671 590 559 334 128 137 309 244 208 101
0 0 0 0 0 0 0 0 0 0 0 0 0 0 0 54 397 302 894 916 1218 1169 1111 1308 1392 1312 1276 1257 1145 1029 1000 1027 853 732 720 644 783 861 801 831 847 701 492 424 306 197 213 96 36
0 0 0 0 0 0 0 0 0 0 0 0 0 0 0 71 466 439 872 803 1115 1185 1192 1232 1421 1504 1369 1342 1230 1214 1107 1026 840 797 873 873 977 888 880 832 761 665 588 546 310 210 88 32 32
0 0 0 0 0 0 0 0 0 0 0 0 0 0 2 488 533 522 672 772 639 1108 1256 1337 1369 1579 1567 1396 1269 1271 1195 1138 973 946 969 960 1051 932 749 619 601 495 448 313 186 153 73 20 3
0 0 0 0 0 0 0 0 0 0 0 0 0 0 92 720 473 376 446 628 883 913 1124 1342 1504 1473 1530 1369 1162 1169 1098 1065 969 968 1045 1135 885 693 599 508 457 527 280 161 109 25 10 0 0
0 0 0 0 0 0 0 0 0 0 0 0 0 1 363 550 460 470 305 483 840 1025 954 1135 1285 1305 1069 971 862 786 543 594 484 147 454 913 724 526 465 405 429 268 108 125 12 0 0 0 0
0 0 0 0 0 0 0 0 0 0 0 2 0 3 90 493 584 516 352 117 468 600 734 839 794 717 579 597 603 488 357 140 75 7 0 200 290 446 358 326 266 146 47 30 6 0 0 0 0
0 0 0 0 0 0 0 0 0 0 0 0 0 0 0 528 557 328 115 73 329 625 522 433 616 643 294 166 192 142 164 190 40 0 0 18 79 213 312 240 143 71 40 29 1 0 0 0 0
0 0 0 0 0 0 0 0 0 0 0 0 0 5 335 414 296 53 85 39 325 421 244 331 435 491 264 61 6 4 24 36 42 0 0 3 48 143 274 211 103 31 35 11 0 0 0 0 0
0 0 0 0 0 0 0 0 0 0 0 0 0 15 383 277 54 29 20 12 4 113 188 226 361 372 273 50 1 0 0 0 0 0 0 0 55 126 212 124 47 27 18 0 0 0 0 0 0
0 0 0 0 0 0 0 0 0 0 0 0 0 33 77 22 44 10 7 0 29 199 172 185 228 258 167 6 1 0 0 0 0 0 0 3 47 77 68 38 5 4 0 0 0 0 0 0 0
0 0 0 0 0 0 0 0 0 0 0 0 17 55 8 28 33 5 17 49 129 164 69 111 129 145 119 7 1 1 0 0 0 11 0 13 50 35 17 16 3 0 0 0 0 0 0 0 0
0 0 0 0 0 0 0 0 0 0 0 0 3 21 98 49 36 5 47 66 114 78 48 73 108 113 59 14 1 2 2 14 4 47 21 63 8 8 7 0 0 0 0 0 0 0 0 0 0
0 0 0 0 0 0 0 0 0 0 0 0 0 0 1 44 24 17 45 48 44 29 14 27 57 75 36 4 0 2 1 10 23 43 19 27 21 1 0 0 0 0 0 0 0 0 0 0 0
0 0 0 0 0 0 0 0 0 0 0 0 0 0 0 0 17 36 41 38 25 0 0 4 32 61 10 5 2 0 2 1 4 2 10 8 19 1 0 0 0 0 0 0 0 0 0 0 0
0 0 0 0 0 0 0 0 0 0 0 0 0 0 0 5 2 20 40 23 8 0 0 0 1 32 5 6 1 0 0 0 0 0 0 11 8 1 0 0 0 0 0 0 0 0 0 0 0
0 0 0 0 0 0 0 0 0 0 0 0 0 0 0 12 4 4 33 15 0 0 0 0 0 1 5 8 5 1 1 1 0 0 0 11 1 26 1 0 0 0 0 0 0 0 0 0 0
0 0 0 0 0 0 0 0 0 0 0 0 0 0 0 2 7 3 3 12 0 0 0 0 0 0 0 3 3 6 3 3 1 0 0 2 0 3 24 0 0 0 0 0 0 0 0 0 0
0 0 0 0 0 0 0 0 0 0 0 0 0 0 0 13 0 9 19 0 0 0 0 0 0 0 1 1 2 0 1 0 1 1 0 1 0 0 9 11 0 9 0 0 0 0 0 0 2
0 0 0 0 0 0 0 0 0 0 0 0 0 0 0 9 2 4 20 0 0 0 0 0 0 0 0 0 0 0 0 1 1 1 2 0 0 0 1 18 5 15 21 0 0 0 0 0 0
0 0 0 0 0 0 0 0 0 0 0 0 0 0 0 0 0 1 25 0 0 0 0 0 0 0 0 0 0 0 0 3 4 1 1 1 0 1 0 3 0 14 25 8 0 0 0 0 7
2 9 0 0 0 0 0 0 0 0 0 0 0 0 0 0 0 0 28 8 0 0 0 0 0 0 0 1 0 0 1 1 0 1 2 1 0 0 0 0 6 2 33 10 2 0 1 0 2
19 3 0 0 0 0 0 0 0 0 0 0 0 0 0 0 0 5 5 9 0 0 0 0 0 0 0 5 2 0 0 0 1 1 1 0 0 0 0 0 13 8 0 0 0 0 4 0 1
16 4 0 0 0 0 0 0 0 0 0 0 0 0 0 0 3 1 0 0 0 0 0 0 0 0 0 0 3 0 0 0 0 0 0 0 0 0 0 0 0 1 0 0 25 9 10 4 0
1 0 0 0 0 0 0 0 0 0 0 0 0 0 0 0 0 5 5 4 0 0 0 0 0 0 0 0 0 1 0 0 0 0 0 0 0 0 0 0 0 0 0 0 5 76 36 1 0
0 0 0 0 0 0 0 0 0 0 0 0 0 0 0 2 1 11 1 0 0 0 0 0 0 0 0 0 1 0 0 0 0 0 0 0 0 0 0 0 0 0 0 2 1 2 28 47 19
3 1 0 0 0 0 0 0 0 0 0 0 0 0 0 20 31 38 44 9 0 0 0 0 0 0 0 0 0 0 0 0 0 0 0 0 0 0 1 0 0 0 0 4 24 22 11 3 1
0 0 0 0 0 0 0 7 0 0 0 0 0 0 0 0 9 21 13 7 0 0 0 0 0 0 0 0 0 0 0 0 0 0 0 0 0 0 0 0 0 0 0 0 0 8 18 15 15
0 0 2 0 0 0 0 0 0 0 0 0 0 0 0 0 0 0 0 13 41 7 0 0 1 0 0 0 0 0 0 1 2 0 0 0 0 0 0 0 0 0 0 0 0 0 0 0 8

GFSSGP_con_mlcape_069.txt.gz
CAPE
0 0 0 0 0 0 0 0 0 0 0 0 0 0 0 0 0 0 320 719 1023 1015 1068 1068 1100 1058 920 904 906 930 686 912 1125 1180 1114 984 850 748 677 763 854 758 704 646 724 680 672 576 412
0 0 0 0 0 0 0 0 0 0 0 0 0 0 0 0 291 278 419 730 1091 1071 1141 1091 1099 1143 1015 906 995 1116 1012 804 896 994 983 879 787 702 638 731 751 676 653 665 830 744 627 413 257
0 0 0 0 0 0 0 0 0 0 0 0 0 0 0 0 385 293 490 904 1048 1096 1153 1135 1162 1132 1056 1007 994 1085 1179 1020 886 857 835 770 673 599 627 746 680 627 615 579 700 542 411 230 118
0 0 0 0 0 0 0 0 0 0 0 0 0 0 0 204 224 547 722 1046 1068 1033 1221 1261 1179 1176 1223 1085 996 1074 1199 978 919 883 774 720 759 728 763 707 656 471 355 508 595 337 197 110 50
0 0 0 0 0 0 0 0 0 0 0 0 0 0 0 281 647 711 795 1044 976 1030 1113 1323 1271 1244 1327 1223 1076 1027 1205 961 820 853 821 889 916 914 854 816 820 673 539 468 320 148 69 62 26
0 0 0 0 0 0 0 0 0 0 0 0 0 0 1 527 651 708 657 731 937 935 1104 1122 1410 1387 1379 1331 998 831 1017 973 849 940 981 1122 979 976 889 892 672 521 395 254 145 63 43 7 0
0 0 0 0 0 0 0 0 0 0 0 0 0 0 106 578 570 440 634 630 744 911 998 1192 1324 1585 1431 1201 1142 759 612 552 752 509 134 550 691 859 796 735 536 447 298 204 112 33 1 0 0
0 0 0 0 0 0 0 0 0 0 0 0 0 0 11 553 657 424 415 579 763 726 648 911 1146 821 587 700 810 677 276 89 40 146 247 125 210 312 396 507 500 367 289 176 65 5 0 0 0
0 0 0 0 0 0 0 0 0 0 0 0 0 52 63 570 675 402 163 177 421 586 573 633 711 530 430 580 759 733 216 0 0 85 133 42 0 94 189 305 314 274 163 74 4 0 0 0 0
0 0 0 0 0 0 0 0 0 0 0 0 0 167 230 689 643 465 193 28 220 250 378 342 425 308 206 284 304 398 1 0 18 29 32 17 9 93 54 152 222 159 107 15 0 0 0 0 0
0 0 0 0 0 0 0 0 0 0 0 0 0 32 267 624 556 371 111 22 6 195 251 161 237 259 169 65 24 43 46 14 12 9 0 0 5 69 50 100 137 100 65 2 0 0 0 0 0
0 0 0 0 0 0 0 0 0 0 0 0 0 11 311 391 345 168 32 7 75 134 34 60 149 206 143 30 0 0 0 1 1 0 0 4 1 17 46 82 40 24 12 0 0 0 0 0 0
0 0 0 0 0 0 0 0 0 0 0 0 0 150 320 292 239 38 32 24 22 30 46 59 86 132 77 55 1 1 0 1 2 2 0 4 11 29 66 52 20 5 0 0 0 0 0 0 0
0 0 0 0 0 0 0 0 0 0 0 0 0 286 250 165 86 31 9 35 34 52 55 29 39 66 82 68 1 0 0 1 1 2 0 17 36 72 31 20 1 0 0 0 0 0 0 0 0
0 0 0 0 0 0 0 0 0 0 0 0 0 232 177 72 51 34 19 39 71 61 33 17 23 46 76 65 0 1 2 0 0 2 0 30 94 71 20 1 0 0 0 0 0 0 0 0 0
0 0 0 0 0 0 0 0 0 0 0 0 0 142 171 93 88 44 27 52 81 53 19 9 18 20 37 42 8 2 0 0 6 9 16 3 86 42 6 0 0 0 0 0 0 0 0 0 0
0 0 0 0 0 0 0 0 0 0 0 0 0 0 18 60 109 36 40 56 73 41 1 0 0 1 3 24 9 0 0 0 0 2 3 18 17 1 0 0 0 0 0 0 0 0 0 0 0
0 0 0 0 0 0 0 0 0 0 0 0 0 0 0 4 46 19 40 41 45 16 0 0 0 2 0 10 2 1 0 0 0 0 4 3 17 0 0 0 0 0 0 0 0 0 0 0 0
0 0 0 0 0 0 0 0 0 0 0 0 0 0 0 0 3 5 26 29 11 0 0 0 0 2 1 4 4 1 0 0 0 0 0 5 28 0 0 0 0 0 0 0 0 0 0 0 0
0 0 0 0 0 0 0 0 0 0 0 0 0 0 0 0 0 11 24 18 12 0 0 0 0 2 1 4 2 4 2 1 0 0 0 0 2 14 0 0 0 0 0 0 0 0 0 0 0
0 0 0 0 0 0 0 0 0 0 0 0 0 0 0 0 0 16 24 23 4 0 0 0 0 0 1 4 0 0 0 0 1 1 1 1 0 0 4 0 0 0 0 0 0 0 0 0 0
0 0 0 0 0 0 0 0 0 0 0 0 0 0 0 0 0 8 26 27 9 0 0 0 0 0 0 2 0 0 1 0 1 1 1 2 0 0 0 13 0 0 1 3 11 2 0 0 0
0 1 10 0 0 0 0 0 0 0 0 0 0 0 0 0 0 4 43 44 8 0 0 0 0 0 0 0 0 0 0 0 0 1 1 1 1 0 0 0 3 0 12 2 20 15 5 8 8
0 6 0 2 0 0 0 0 0 0 0 0 0 0 0 0 0 3 42 32 11 0 0 0 0 0 0 0 0 0 0 1 2 2 4 1 1 0 0 0 0 2 11 18 13 26 7 2 10
1 7 0 0 0 0 0 0 0 0 0 0 0 0 0 0 0 0 20 34 19 0 0 0 0 0 0 0 0 0 0 0 2 0 1 1 1 1 0 0 0 0 4 24 5 5 0 0 2
0 8 1 0 0 0 0 0 0 0 0 0 0 0 0 0 0 0 7 33 24 0 0 0 0 0 0 0 0 0 0 0 0 1 0 1 1 0 0 0 0 0 0 12 19 2 0 0 0
2 1 2 1 0 0 0 0 0 0 0 0 0 0 0 0 0 0 3 31 24 2 0 0 0 0 0 0 0 0 0 0 0 0 1 0 0 0 0 0 0 0 0 0 0 0 2 0 0
0 5 2 0 1 0 2 11 0 0 0 0 0 0 0 0 0 0 5 23 4 0 0 1 0 0 0 0 0 0 0 0 0 0 0 0 0 0 0 0 0 0 0 0 0 0 0 0 0
2 1 0 1 6 1 0 4 1 0 0 0 0 0 0 0 2 0 0 0 0 0 0 1 2 1 1 0 0 0 0 0 0 0 0 0 0 0 0 0 0 0 0 0 0 0 0 0 2
0 0 2 0 0 0 0 1 10 3 0 0 0 0 0 0 0 0 0 0 0 0 0 0 1 0 0 1 0 1 0 0 0 0 0 0 0 0 0 0 0 1 0 0 0 3 9 7 1

GFSSGP_con_mlcape_072.txt.gz
CAPE
0 0 0 0 0 0 0 0 0 0 0 0 0 0 0 0 0 0 24 633 755 671 786 988 991 1100 986 754 748 1000 1247 1459 1453 1342 1219 1230 1209 1097 1061 1094 1082 1048 957 778 873 822 862 796 592
0 0 0 0 0 0 0 0 0 0 0 0 0 0 0 0 47 46 249 679 939 793 794 962 1036 1119 1073 951 733 1144 1429 1518 1501 1374 1293 1233 1154 1106 1195 1164 1118 1002 747 823 897 943 814 658 459
0 0 0 0 0 0 0 0 0 0 0 0 0 0 0 0 192 172 406 535 861 864 786 987 1108 1185 1132 979 874 904 1522 1545 1561 1472 1344 1203 1091 1091 1234 1146 1040 925 888 995 1011 883 675 477 325
0 0 0 0 0 0 0 0 0 0 0 0 0 0 0 68 229 385 569 860 936 894 876 1025 1124 1175 1215 1036 1096 875 1035 1363 1532 1430 1342 1280 1227 1209 1190 1003 833 776 803 805 730 790 457 331 231
0 0 0 0 0 0 0 0 0 0 0 0 0 0 0 116 572 611 793 1046 813 969 977 1036 1167 1252 1339 1230 1114 1153 866 992 1248 1308 1281 1196 1220 1173 1038 853 669 812 810 710 675 507 302 154 85
0 0 0 0 0 0 0 0 0 0 0 0 0 0 0 244 541 660 1099 1145 1066 952 1117 1123 1193 1308 1332 1302 1110 760 1134 1013 906 1148 1154 1078 831 778 885 782 672 620 809 580 483 357 177 83 30
0 0 0 0 0 0 0 0 0 0 0 0 0 0 0 212 683 821 980 1043 1071 966 1041 1120 1179 1312 1317 1322 847 423 396 730 1002 632 620 548 437 311 333 444 632 641 495 409 292 196 109 35 2
0 0 0 0 0 0 0 0 0 0 0 0 0 0 0 168 687 710 739 706 758 893 1000 1031 1143 1330 1227 715 549 642 335 325 347 310 137 45 149 128 164 363 412 446 349 282 245 120 73 22 0
0 0 0 0 0 0 0 0 0 0 0 0 0 0 132 528 563 613 581 660 721 678 652 783 1038 1055 869 647 409 272 242 301 292 167 34 86 115 79 144 127 305 354 228 223 91 54 31 0 0
0 0 0 0 0 0 0 0 0 0 0 0 0 10 156 731 664 523 427 558 555 415 348 503 719 693 486 561 573 223 137 110 62 62 24 63 68 78 11 40 119 127 139 52 6 1 0 0 0
0 0 0 0 0 0 0 0 0 0 0 0 0 0 0 222 796 569 419 424 338 320 362 374 349 217 168 205 222 92 24 1 0 0 16 0 1 82 75 4 47 97 62 0 0 0 0 0 0
0 0 0 0 0 0 0 0 0 0 0 0 0 0 0 15 626 694 510 312 204 225 261 238 187 168 40 39 81 81 81 4 2 4 2 24 10 51 5 23 27 46 0 0 0 0 0 0 0
0 0 0 0 0 0 0 0 0 0 0 0 0 0 0 3 416 678 494 269 155 158 209 110 70 80 33 28 28 27 18 2 1 1 1 6 15 30 0 9 37 33 0 0 0 0 0 0 0
0 0 0 0 0 0 0 0 0 0 0 0 0 0 0 20 342 473 391 230 86 122 78 41 44 47 17 18 10 13 1 0 1 2 2 6 13 40 17 27 22 4 0 0 0 0 0 0 0
0 0 0 0 0 0 0 0 0 0 0 0 0 0 0 144 484 486 285 83 69 70 44 43 31 18 9 0 2 1 1 2 2 1 1 15 16 32 63 36 3 2 0 0 0 0 0 0 0
0 0 0 0 0 0 0 0 0 0 0 0 0 0 0 140 394 358 172 71 54 58 48 32 27 14 2 0 3 2 2 2 1 2 2 3 40 78 84 26 3 0 0 0 0 0 0 0 0
0 0 0 0 0 0 0 0 0 0 0 0 0 0 0 26 322 220 111 59 84 59 49 28 27 0 0 0 5 6 1 3 4 0 2 2 72 89 42 3 10 0 0 0 0 0 0 0 0
0 0 0 0 0 0 0 0 0 0 0 0 0 0 0 0 75 176 64 66 67 58 51 27 15 1 1 0 7 7 0 3 2 4 14 4 56 21 8 0 2 0 0 0 0 0 0 0 0
0 0 0 0 0 0 0 0 0 0 0 0 0 0 0 0 1 99 64 74 45 40 45 12 0 1 2 0 2 3 1 0 0 1 6 8 3 1 0 8 1 0 0 0 0 0 0 0 0
0 0 0 0 0 0 0 0 0 0 0 0 0 0 0 0 0 17 65 75 59 45 28 0 0 1 1 1 2 1 0 0 0 0 1 11 8 0 0 1 0 0 0 0 0 0 0 0 0
0 0 0 0 0 0 0 0 0 0 0 0 0 0 0 0 0 0 24 59 47 43 6 0 0 3 1 1 1 1 0 0 0 0 1 2 6 3 0 0 0 0 0 0 0 0 0 0 0
0 0 0 0 0 0 0 0 0 0 0 0 0 0 0 0 0 0 1 21 52 32 0 0 0 2 1 1 3 1 0 0 2 0 1 1 2 4 0 0 0 0 0 0 0 0 0 0 0
0 0 1 2 0 0 0 0 0 0 0 0 0 0 0 0 0 0 0 7 29 16 0 0 0 1 0 1 3 3 1 0 0 1 0 1 1 0 0 0 0 0 0 0 0 0 0 0 0
0 0 1 0 0 0 0 0 0 0 0 0 0 0 0 0 0 0 3 15 15 6 0 0 0 0 2 1 0 1 0 0 0 0 0 3 0 0 1 2 0 0 0 0 0 2 9 22 6
0 5 0 0 0 0 0 0 0 0 0 0 0 0 0 0 0 0 0 9 6 3 0 0 0 0 0 0 0 0 0 0 0 0 0 1 2 1 1 1 0 0 0 0 0 4 4 16 24
0 0 0 0 0 0 0 0 0 0 0 0 0 0 0 0 0 0 0 0 14 4 0 0 0 0 0 0 0 0 0 0 1 3 0 2 6 5 0 0 0 0 0 0 0 3 9 9 12
0 0 3 5 0 0 0 0 0 0 0 0 0 0 0 0 0 0 0 0 11 1 0 0 0 0 0 0 0 0 0 0 0 1 0 5 4 2 0 0 0 0 0 0 0 9 16 11 13
0 3 2 0 1 0 0 3 1 0 0 0 0 0 0 0 0 0 0 0 3 0 1 2 0 0 0 0 0 0 0 0 0 0 0 1 0 0 0 0 1 0 0 0 0 0 4 7 10
0 1 0 0 0 0 3 10 11 1 0 0 0 1 0 0 0 0 1 0 3 2 1 1 2 0 1 0 0 0 0 0 0 0 0 0 0 0 0 0 0 0 0 0 1 0 0 0 2
6 2 0 0 0 1 3 0 5 0 0 0 1 1 3 2 0 0 1 1 1 2 2 2 3 2 0 0 1 0 1 0 0 0 0 0 0 0 0 0 0 0 0 1 4 2 0 0 0

GFSSGP_con_mlcape_078.txt.gz
CAPE
0 0 0 0 0 0 0 0 0 0 0 0 0 0 0 0 0 0 333 1240 1198 1278 1565 1043 884 831 1013 1152 1074 1097 1313 1433 1327 1285 1286 1335 1399 1437 1340 1292 1391 1384 1235 1280 1270 1309 1303 1153 942
0 0 0 0 0 0 0 0 0 0 0 0 0 0 0 0 0 52 841 1128 1129 1153 1611 1561 944 907 1085 1102 1070 1219 1512 1649 1562 1471 1426 1465 1562 1503 1335 1249 1422 1446 1390 1422 1403 1332 1262 1021 795
0 0 0 0 0 0 0 0 0 0 0 0 0 0 0 0 89 80 423 1193 1236 1260 1509 1687 1051 1107 1214 1193 1112 1260 1619 1811 1791 1716 1627 1628 1605 1472 1366 1178 1450 1490 1433 1524 1508 1302 1167 904 744
0 0 0 0 0 0 0 0 0 0 0 0 0 0 0 0 250 246 556 1194 1208 1394 1490 1520 1066 1094 1203 1201 1202 1300 1743 1818 1886 1828 1766 1742 1649 1539 1311 1299 1387 1514 1467 1418 1253 1162 984 783 651
0 0 0 0 0 0 0 0 0 0 0 0 0 0 0 0 276 713 925 1354 1313 1592 1667 1576 986 1042 1093 1152 1194 1405 1505 1723 1898 1922 1845 1732 1612 1468 1084 1320 1265 1312 1380 1298 1170 1099 846 675 505
0 0 0 0 0 0 0 0 0 0 0 0 0 0 0 57 291 732 1236 1527 1800 1733 1852 1833 1254 1156 1240 1141 1127 1298 1381 1348 1754 1832 1362 1532 1250 1253 925 846 1016 1095 968 975 1051 922 733 528 357
0 0 0 0 0 0 0 0 0 0 0 0 0 0 0 3 456 1247 1382 1642 1973 1886 1907 1927 1651 1498 1266 1224 1116 1006 1218 1003 583 935 588 717 533 666 415 387 419 546 671 945 939 767 580 369 184
0 0 0 0 0 0 0 0 0 0 0 0 0 0 0 0 625 1465 1567 1512 1709 2126 2212 1650 1763 1717 1739 1601 1068 996 838 675 485 579 363 279 270 220 184 184 265 238 640 853 738 594 379 198 77
0 0 0 0 0 0 0 0 0 0 0 0 0 0 0 0 301 1430 1644 1500 1629 1952 2060 1969 1728 1755 1686 1945 1730 1122 920 671 470 375 320 281 345 208 51 108 183 124 263 489 538 370 211 105 22
0 0 0 0 0 0 0 0 0 0 0 0 0 0 0 0 12 1046 1303 1377 1692 1807 1850 1926 1673 1653 1666 1642 1843 1548 1292 741 556 614 482 596 300 185 278 143 208 112 79 229 234 201 107 86 91
0 0 0 0 0 0 0 0 0 0 0 0 0 0 0 0 0 129 1129 1113 1487 1600 1595 1761 1949 1762 1677 1523 1552 1570 1217 1010 721 725 492 431 269 138 23 51 141 137 87 163 176 167 245 180 131
0 0 0 0 0 0 0 0 0 0 0 0 0 0 0 0 0 0 201 1078 1287 1507 1521 1545 1467 1330 1433 1400 1256 1356 1289 1120 837 844 559 202 169 66 40 5 81 84 106 127 197 261 189 130 82
0 0 0 0 0 0 0 0 0 0 0 0 0 0 0 0 0 0 0 262 1163 1450 1439 1466 1282 1042 1123 1009 879 887 1137 863 737 877 732 267 121 138 122 138 109 35 91 73 206 154 101 123 111
0 0 0 0 0 0 0 0 0 0 0 0 0 0 0 0 0 0 0 110 853 1339 1490 1522 1199 1142 1081 879 546 596 686 691 366 418 578 582 280 133 65 77 68 44 42 65 139 111 96 103 86
0 0 0 0 0 0 0 0 0 0 0 0 0 0 0 0 0 0 0 213 827 1242 1464 1460 998 866 927 810 363 236 275 314 259 248 256 171 107 88 56 48 70 43 32 48 94 77 79 96 62
0 0 0 0 0 0 0 0 0 0 0 0 0 0 0 0 0 0 6 315 860 1202 1352 1218 761 894 867 473 172 49 53 209 163 74 91 62 83 100 77 49 29 15 4 47 63 74 66 62 77
0 0 0 0 0 0 0 0 0 0 0 0 0 0 0 0 0 0 85 508 976 1252 1364 1180 817 742 551 303 78 34 38 59 39 30 13 32 68 87 54 57 23 3 1 5 63 94 87 56 71
0 0 0 0 0 0 0 0 0 0 0 0 0 0 0 0 0 0 95 625 1030 1187 1406 1097 568 554 446 249 39 3 35 13 11 4 4 8 24 77 40 65 9 5 1 8 62 72 63 95 77
0 0 0 0 0 0 0 0 0 0 0 0 0 0 0 0 0 0 41 619 965 1241 1343 1034 529 469 236 78 11 2 23 12 10 5 3 3 3 4 72 31 2 2 0 1 21 97 84 64 73
0 0 0 0 0 0 0 0 0 0 0 0 0 0 0 0 0 0 68 629 912 1182 1252 926 584 351 218 94 2 3 1 6 25 18 8 15 34 27 4 5 3 1 2 0 16 47 70 50 47
0 0 0 0 0 0 0 0 0 0 0 0 0 0 0 0 0 0 38 557 810 1056 1146 840 605 467 262 203 83 95 6 11 9 12 6 1 114 21 6 2 5 2 2 0 12 36 35 30 33
0 0 0 0 0 0 0 0 0 0 0 0 0 0 0 0 0 0 0 294 663 885 1022 795 645 369 351 143 38 11 1 2 8 2 0 6 5 3 0 2 2 1 5 1 5 19 11 23 30
0 0 0 0 0 0 0 0 0 0 0 0 0 0 0 0 0 0 0 39 424 765 920 813 640 346 218 71 3 5 5 4 15 2 1 2 3 2 1 2 2 2 1 24 41 17 30 18 19
0 0 0 0 3 0 0 0 0 0 0 0 0 0 0 0 0 0 0 71 319 689 848 653 457 205 168 72 9 4 2 3 32 3 7 2 2 2 2 1 2 0 0 4 0 0 0 0 6
0 0 0 2 2 0 0 0 0 0 0 0 0 0 0 5 12 0 28 144 386 704 487 310 298 120 68 7 5 9 16 20 7 15 1 2 2 2 1 1 2 0 0 0 1 0 2 0 0
0 0 0 1 1 2 7 0 0 0 0 0 0 0 31 161 139 0 133 210 370 568 84 108 174 26 12 3 2 18 13 2 4 14 21 14 4 12 5 1 1 1 0 0 0 0 0 1 5
19 3 13 12 1 7 0 0 2 2 1 0 0 0 0 90 301 13 44 324 399 471 17 48 59 2 1 2 5 17 16 16 7 5 1 1 2 7 6 2 2 2 0 0 0 0 0 0 0
23 20 0 3 1 6 7 10 13 6 7 0 0 1 1 1 96 31 138 327 395 158 13 39 26 2 1 0 4 2 15 19 7 1 1 10 11 16 23 4 2 1 2 2 0 0 0 0 0
4 6 0 0 1 14 7 7 4 2 2 2 3 4 5 5 1 60 105 166 101 10 10 10 11 4 4 2 0 2 0 11 2 6 0 0 2 9 1 15 11 3 2 2 2 0 0 0 0
15 7 8 3 8 1 0 6 8 2 0 1 2 3 6 6 8 1 1 5 4 7 5 7 8 4 5 3 1 2 5 14 17 9 3 5 8 9 12 12 7 2 1 2 2 2 2 1 0

GFSSGP_con_mlcape_081.txt.gz
CAPE
0 0 0 0 0 0 0 0 0 0 0 0 0 0 0 0 0 11 296 1197 888 1152 1007 533 656 754 823 1235 1043 1157 1450 1301 1138 1131 1253 1183 1311 1446 1428 1423 1399 1429 1582 1570 1383 1197 1270 1162 1048
0 0 0 0 0 0 0 0 0 0 0 0 0 0 0 0 0 19 478 1040 1130 1112 1476 1120 669 902 1035 1143 1205 1126 1411 1527 1380 1272 1348 1045 1451 1482 1178 1482 1536 1601 1578 1383 1422 1456 1456 1171 944
0 0 0 0 0 0 0 0 0 0 0 0 0 0 0 0 0 0 645 906 632 598 1200 1586 780 870 1104 1232 1166 1205 1479 1696 1639 1467 1500 1375 1519 1548 1151 1235 1571 1511 1556 1296 1301 1568 1313 977 846
0 0 0 0 0 0 0 0 0 0 0 0 0 0 0 0 54 67 761 835 565 670 924 1481 1073 959 1115 1209 1148 1275 1556 1898 1873 1724 1643 1639 1559 1447 975 1017 1523 1467 1492 1331 1340 1317 1115 877 808
0 0 0 0 0 0 0 0 0 0 0 0 0 0 0 0 0 193 557 753 929 967 1302 1788 1106 891 1060 1258 1210 1342 1638 1738 1876 1829 1784 1665 1537 1417 853 993 1412 1480 1217 1313 1182 1262 963 839 751
0 0 0 0 0 0 0 0 0 0 0 0 0 0 0 0 0 118 621 1086 1135 1335 1644 2007 1146 1008 1145 1297 1291 1372 1483 1700 1812 1787 1532 1598 1148 1024 665 624 810 761 789 840 1082 1072 909 790 670
0 0 0 0 0 0 0 0 0 0 0 0 0 0 0 0 4 215 736 1289 1611 1722 1908 2216 1588 1318 1160 1189 1281 1322 1473 1472 1509 1495 837 955 592 468 252 375 410 482 404 665 876 914 796 677 484
0 0 0 0 0 0 0 0 0 0 0 0 0 0 0 0 3 639 1161 1306 1697 1932 2076 2335 2014 1930 1790 1666 1263 1152 1252 1250 1000 985 664 613 526 373 325 255 133 216 287 399 653 620 590 406 255
0 0 0 0 0 0 0 0 0 0 0 0 0 0 0 0 0 650 1078 1356 1314 1853 2129 2083 2046 2030 2009 1789 1695 1189 1109 965 850 694 568 393 622 379 221 69 36 89 210 187 324 311 322 174 154
0 0 0 0 0 0 0 0 0 0 0 0 0 0 0 0 0 73 1002 1396 1223 1705 2019 2490 2091 2113 2027 1596 2013 1755 1692 1235 1022 663 782 630 725 403 60 0 0 55 141 190 215 184 132 124 105
0 0 0 0 0 0 0 0 0 0 0 0 0 0 0 0 0 0 235 1046 1334 1625 1881 2031 2144 2055 1962 1565 1894 2000 1620 1349 1216 1011 980 692 692 246 72 29 44 152 135 225 139 107 187 248 164
0 0 0 0 0 0 0 0 0 0 0 0 0 0 0 0 0 0 0 407 993 1443 1721 1853 2164 1961 1782 1520 2050 1785 1450 1365 1346 1131 945 609 599 404 211 247 208 174 157 115 122 115 244 163 111
0 0 0 0 0 0 0 0 0 0 0 0 0 0 0 0 0 0 0 0 672 1137 1598 1832 1937 1716 1605 1624 1608 1758 1587 1542 1395 1158 973 648 556 318 98 110 147 88 135 93 109 109 219 137 76
0 0 0 0 0 0 0 0 0 0 0 0 0 0 0 0 0 0 0 0 38 870 1479 1771 1933 1562 1472 1375 1306 1424 1607 1502 1371 1173 1019 731 537 344 131 60 97 202 160 68 58 79 124 127 73
0 0 0 0 0 0 0 0 0 0 0 0 0 0 0 0 0 0 0 0 0 221 1334 1851 1992 1655 1528 1400 1186 1250 1128 1079 836 928 956 674 569 325 213 197 161 72 81 46 36 77 92 134 96
0 0 0 0 0 0 0 0 0 0 0 0 0 0 0 0 0 0 0 0 0 177 1276 1868 1848 1542 1458 1210 1088 754 846 922 637 664 579 545 416 424 105 65 83 65 41 52 52 66 88 58 75
0 0 0 0 0 0 0 0 0 0 0 0 0 0 0 0 0 0 0 0 4 525 1354 1870 1723 1377 1387 1217 675 423 442 397 476 409 197 340 284 242 94 81 30 23 39 56 32 54 80 45 41
0 0 0 0 0 0 0 0 0 0 0 0 0 0 0 0 0 0 0 0 97 758 1457 1849 1649 1505 1320 986 546 574 196 93 54 78 156 211 129 62 102 42 11 18 22 47 18 40 57 64 29
0 0 0 0 0 0 0 0 0 0 0 0 0 0 0 0 0 0 0 0 297 1012 1618 1857 1629 1418 1127 768 501 304 226 253 67 34 14 21 30 124 130 40 5 3 10 6 17 34 50 47 29
0 0 0 0 0 0 0 0 0 0 0 0 0 0 0 0 0 0 0 0 542 1163 1610 1812 1531 1289 1027 724 413 225 224 277 173 109 36 8 8 29 19 37 5 3 9 10 8 30 44 69 30
0 0 0 0 3 0 0 0 0 0 0 0 0 0 0 0 0 0 0 0 666 1058 1605 1735 1459 1150 875 661 397 175 47 128 92 94 84 29 109 85 54 12 13 15 1 0 0 24 48 51 20
0 0 3 2 0 0 12 7 0 0 0 0 0 0 0 0 0 0 0 0 584 987 1448 1632 1447 1147 884 667 328 227 166 24 82 34 75 61 49 109 77 7 6 8 1 1 0 29 41 31 34
0 7 7 4 0 0 0 0 0 3 0 0 0 0 0 0 0 0 0 0 418 950 1404 1555 1381 1177 891 729 533 236 61 97 81 29 18 4 5 0 2 5 2 2 2 1 0 24 24 45 39
0 4 2 0 0 0 0 1 0 18 3 0 1 2 0 0 0 0 0 0 181 803 1348 1440 1373 1188 936 863 497 199 95 86 134 68 27 2 1 1 1 1 2 3 3 1 0 24 37 34 31
2 13 0 0 5 0 20 8 8 13 2 0 2 8 29 19 4 0 0 2 68 688 1313 1387 1348 947 964 736 438 161 95 137 23 85 20 1 1 2 0 0 1 0 2 10 7 30 25 41 38
0 0 0 1 1 6 0 22 80 23 1 19 47 52 26 43 396 217 3 13 287 717 1245 1303 1245 757 862 716 419 137 72 70 131 92 32 4 2 2 1 1 1 0 1 2 29 43 43 53 46
17 0 0 0 0 0 0 0 106 25 16 24 35 24 6 3 0 328 109 428 522 969 1150 945 925 412 626 574 326 87 52 18 38 28 44 63 26 10 3 1 0 1 0 0 0 5 6 18 28
0 36 15 5 1 8 5 4 40 5 6 4 4 5 2 0 0 2 283 596 711 995 479 340 554 198 298 426 197 43 34 16 43 38 12 3 4 9 26 7 0 1 0 0 0 0 0 0 7
27 3 14 23 36 15 7 21 2 2 1 0 0 0 3 5 5 6 51 668 692 263 111 197 138 124 77 67 46 0 2 3 23 17 20 6 18 19 16 22 7 2 2 2 1 0 0 0 0
39 43 18 18 1 20 17 2 1 0 0 0 0 0 2 3 4 5 6 1 46 40 46 65 115 33 2 7 6 2 2 1 14 12 12 17 16 12 13 15 11 4 2 3 3 2 0 0 0

GFSSGP_con_mlcape_084.txt.gz
CAPE
0 0 0 0 0 0 0 0 0 0 0 0 0 0 0 0 1 49 1020 855 1521 1207 612 674 851 1088 1081 1114 1376 1330 1200 1138 1166 1142 1072 1067 1188 1214 1248 1281 1312 1454 1591 1712 1476 1115 1126 991 830
0 0 0 0 0 0 0 0 0 0 0 0 0 0 0 0 0 245 846 961 1280 1023 486 663 703 790 1008 1153 1124 1419 1491 1385 1329 1273 1249 1148 1220 1223 1258 1415 1433 1566 1459 1535 1493 1334 1351 1200 951
0 0 0 0 0 0 0 0 0 0 0 0 0 0 0 0 0 159 949 1031 1119 1312 889 1066 609 650 730 945 1233 1250 1507 1622 1501 1413 1417 1157 1117 1036 1182 1222 1405 1419 1455 1464 1454 1415 1405 1005 894
0 0 0 0 0 0 0 0 0 0 0 0 0 0 0 0 87 210 799 804 633 1095 1213 1034 452 681 852 939 1082 1219 1416 1695 1681 1602 1413 1514 1315 1040 1071 1083 1260 1397 1393 1209 1337 1398 1147 881 799
0 0 0 0 0 0 0 0 0 0 0 0 0 0 0 0 0 448 851 635 685 1252 1590 1373 950 763 1005 1165 1180 1238 1488 1795 1890 1779 1696 1613 1430 1034 860 991 1119 1391 1129 1211 1205 1319 939 802 740
0 0 0 0 0 0 0 0 0 0 0 0 0 0 0 0 0 64 728 978 1295 1645 2215 1602 1197 1040 1091 1202 1172 1214 1530 1755 1790 1735 1664 1650 1559 1061 738 687 730 773 611 665 694 882 886 770 709
0 0 0 0 0 0 0 0 0 0 0 0 0 0 0 0 2 235 775 1271 1654 1784 2258 2047 1229 1089 1091 1169 1159 1231 1418 1381 1515 1602 1643 1563 1145 806 648 471 275 115 254 398 413 821 783 736 640
0 0 0 0 0 0 0 0 0 0 0 0 0 0 0 0 7 420 916 1385 1713 2127 2278 2541 1758 1344 1217 1114 1107 1188 1338 1424 1524 1533 1430 1197 795 727 458 314 0 82 186 220 313 584 701 586 503
0 0 0 0 0 0 0 0 0 0 0 0 0 0 0 0 0 419 816 1187 1818 2179 2280 2692 2269 2128 2005 1878 1378 1091 1153 1333 1182 1095 959 820 784 581 469 109 67 117 57 126 224 237 266 316 317
0 0 0 0 0 0 0 0 0 0 0 0 0 0 0 0 0 0 750 1099 1661 2126 2173 2514 2021 2307 2244 1837 1714 1515 1432 1244 1124 999 851 986 923 631 384 51 46 3 68 96 134 150 129 132 164
0 0 0 0 0 0 0 0 0 0 0 0 0 0 0 0 0 0 1 780 1374 1812 2171 2737 2084 2408 2287 1770 2097 1816 1781 1601 1362 1129 1019 1035 999 557 26 0 1 14 63 114 100 51 109 177 160
0 0 0 0 0 0 0 0 0 0 0 0 0 0 0 0 0 0 0 15 893 1459 1968 2708 2275 2131 2170 1677 1794 1774 2065 1827 1461 1304 1053 906 849 331 40 0 0 19 110 144 133 126 145 167 215
0 0 0 0 0 0 0 0 0 0 0 0 0 0 0 0 0 0 0 0 14 1084 1710 2075 2416 2206 2268 1999 1787 2035 1862 1552 1431 1363 1197 993 895 534 406 145 20 42 151 136 134 105 71 96 128
0 0 0 0 0 0 0 0 0 0 0 0 0 0 0 0 0 0 0 0 0 181 1575 2050 2301 2271 2094 1854 1774 1747 1770 1755 1471 1282 1176 975 745 583 493 412 227 141 153 146 76 42 57 63 57
0 0 0 0 0 0 0 0 0 0 0 0 0 0 0 0 0 0 0 0 0 14 762 2022 2189 1997 1792 1534 1613 1456 1472 1753 1561 1377 1104 1019 711 484 221 166 196 84 135 103 31 39 32 68 63
0 0 0 0 0 0 0 0 0 0 0 0 0 0 0 0 0 0 0 0 0 0 266 2120 2193 1851 1674 1477 1368 1223 1200 1436 1213 1082 890 898 641 491 247 93 79 170 108 43 18 23 36 58 60
0 0 0 0 0 0 0 0 0 0 0 0 0 0 0 0 0 0 0 0 0 0 78 2077 2154 1889 1852 1581 1261 938 845 1170 958 833 907 682 577 342 247 165 133 58 42 38 35 27 36 54 41
0 0 0 0 0 0 0 0 0 0 0 0 0 0 0 0 0 0 0 0 0 0 752 2246 2090 1764 1678 1502 949 594 559 700 780 622 530 446 376 310 264 115 46 29 31 22 23 30 23 36 8
0 0 0 0 0 0 0 0 0 0 0 0 0 0 0 0 0 0 0 0 0 65 1541 2308 2002 1602 1579 1113 706 567 352 325 281 227 147 260 211 216 133 71 25 20 17 25 35 24 27 34 13
0 0 0 0 0 0 0 0 0 0 0 0 0 0 0 0 0 0 0 0 24 632 1505 2313 1987 1700 1629 1122 717 778 499 397 124 72 44 62 130 143 60 54 11 8 15 15 14 9 31 13 35
0 0 0 0 0 0 3 0 0 0 0 0 0 0 0 0 0 0 0 0 80 782 1650 2180 1930 1828 1546 1131 897 646 516 370 160 63 87 45 30 25 78 80 9 2 5 4 13 4 15 30 32
0 0 0 19 6 0 6 2 0 0 0 0 0 0 0 0 0 0 0 0 196 677 1850 2079 1935 1684 1526 1148 836 553 298 247 166 72 76 92 110 80 88 5 2 2 17 4 10 4 11 32 23
0 0 7 9 11 10 0 0 0 0 0 0 0 1 0 0 0 0 1 3 458 759 1715 2034 1890 1573 1388 1140 832 544 327 240 115 148 96 68 25 69 103 7 4 5 8 3 7 8 7 19 17
0 0 0 3 3 1 0 0 0 0 31 0 32 34 99 11 0 0 0 0 253 789 1723 1972 1820 1500 1284 1184 797 656 371 197 100 93 51 12 0 0 5 4 2 4 5 1 4 3 5 20 30
0 0 0 0 0 0 0 2 0 32 10 3 29 98 62 20 32 158 230 12 39 875 1574 1958 1807 1529 1348 1154 1133 652 517 219 139 78 43 3 2 1 1 2 2 2 1 1 2 7 21 17 19
0 0 3 0 0 0 0 0 16 29 92 3 3 0 0 0 0 3 13 40 106 1138 1757 1855 1735 1474 1355 1223 989 612 371 115 140 133 38 2 0 0 2 1 0 0 1 1 3 4 12 6 7
2 0 0 3 0 0 0 0 20 0 0 0 0 0 0 0 0 0 0 19 204 1185 1773 1715 1632 1350 1261 1191 850 457 246 92 211 114 35 3 0 2 0 0 0 0 1 8 2 1 5 6 2
0 6 15 1 1 0 0 19 28 1 2 0 0 0 0 0 0 1 2 0 1022 1353 1450 1457 1338 1012 1091 964 742 355 209 51 67 64 72 56 8 0 1 2 0 0 0 0 0 1 16 15 33
16 6 0 28 11 6 0 0 5 0 0 0 0 0 0 2 1 0 1 5 11 570 708 520 578 546 651 644 429 197 69 28 87 87 35 8 14 20 6 2 1 0 0 0 0 3 8 9 14
77 29 51 7 0 13 9 19 1 0 4 0 0 0 1 2 2 4 2 2 2 3 12 168 200 250 274 224 101 43 28 70 62 21 12 14 12 11 6 11 5 0 0 0 0 0 0 0 0

GFSSGP_con_mlcape_087.txt.gz
CAPE
0 0 0 0 0 0 0 0 0 0 0 0 0 0 0 0 0 63 1226 1035 952 706 911 1027 1109 1205 1215 1172 1123 1095 1130 1128 1069 994 888 857 864 996 1144 1267 1386 1648 1777 1691 1415 1315 1271 1060 827
0 0 0 0 0 0 0 0 0 0 0 0 0 0 0 0 79 1010 1191 1291 962 780 959 1011 1000 1066 1240 1335 1296 1240 1230 1283 1242 1156 1061 996 1029 1151 1168 1205 1342 1581 1735 1693 1453 1355 1350 933 684
0 0 0 0 0 0 0 0 0 0 0 0 0 0 0 0 486 836 1124 1265 837 450 813 1016 1026 995 1107 1263 1411 1394 1385 1393 1341 1270 1290 1159 1061 1025 1117 1192 1315 1532 1615 1650 1522 1509 1265 750 699
0 0 0 0 0 0 0 0 0 0 0 0 0 0 0 0 340 948 1128 1199 1085 315 818 626 727 837 1018 1246 1273 1418 1526 1538 1503 1404 1365 1339 1126 1118 1062 1129 1226 1529 1457 1461 1440 1591 1036 728 695
0 0 0 0 0 0 0 0 0 0 0 0 0 0 0 0 616 894 911 1114 1256 1187 1078 544 655 794 965 1094 1270 1345 1472 1608 1628 1632 1534 1523 1200 1104 1102 1074 1040 1396 1378 967 1339 1361 824 749 697
0 0 0 0 0 0 0 0 0 0 0 0 0 0 0 0 455 651 618 1158 1419 1487 1370 925 842 888 1086 1172 1186 1261 1416 1635 1761 1770 1758 1710 1452 1194 955 905 720 647 557 527 636 847 769 699 672
0 0 0 0 0 0 0 0 0 0 0 0 0 0 0 0 119 616 739 1307 1740 1811 1508 1254 1034 957 1108 1178 1119 1180 1424 1662 1775 1718 1613 1637 1575 1330 890 721 460 294 249 212 234 557 738 662 577
0 0 0 0 0 0 0 0 0 0 0 0 0 0 0 28 487 668 1071 1219 1944 1930 1818 1361 885 795 981 1130 1133 1174 1330 1263 1388 1472 1611 1753 1524 1094 787 591 400 154 0 8 91 327 534 592 435
0 0 0 0 0 0 0 0 0 0 0 0 0 0 0 0 45 653 1050 1418 1679 2057 2011 1860 1103 873 836 843 1055 1178 1276 1274 1397 1612 1566 1223 1079 798 786 426 163 7 0 1 17 170 222 157 273
0 0 0 0 0 0 0 0 0 0 0 0 0 0 0 0 0 10 350 1039 1764 1982 2266 2127 1950 1583 1402 1485 1156 977 1096 1164 1091 1064 906 941 859 676 544 238 52 0 0 51 15 130 106 89 160
0 0 0 0 0 0 0 0 0 0 0 0 0 0 0 0 0 0 13 411 1615 1993 2406 2214 2102 2263 2056 1850 1413 1160 1031 901 894 801 737 976 762 469 378 249 103 52 10 25 5 92 88 91 127
0 0 0 0 0 0 0 0 0 0 0 0 0 0 0 0 0 0 0 0 219 2075 2212 2180 2041 1979 1991 1961 1656 1473 1478 1260 991 826 917 972 679 399 233 185 75 19 55 50 46 6 106 104 129
0 0 0 0 0 0 0 0 0 0 0 0 0 0 0 0 0 0 0 0 0 685 2260 2225 2211 1991 1786 1910 1898 1515 1873 1633 1330 1099 1062 982 710 520 198 47 21 3 0 33 74 27 66 145 112
0 0 0 0 0 0 0 0 0 0 0 0 0 0 0 0 0 0 0 0 0 0 1819 2322 2328 2030 1717 1560 1704 1251 1748 1743 1491 1236 1028 956 798 550 320 43 0 4 83 120 73 38 70 131 126
0 0 0 0 0 0 0 0 0 0 0 0 0 0 0 0 0 0 0 0 0 0 43 2262 2187 2088 1739 1462 1714 1430 1568 1509 1412 1251 1133 1020 931 729 480 237 47 1 113 134 88 41 43 33 45
0 0 0 0 0 0 0 0 0 0 0 0 0 0 0 0 0 0 0 0 0 0 0 2111 2197 2128 1927 1768 1554 1259 1334 1475 1283 1126 1088 953 876 787 536 427 217 95 85 77 78 44 33 19 36
0 0 0 0 0 0 0 0 0 0 0 0 0 0 0 0 0 0 0 0 0 0 0 2089 2064 1987 1785 1588 1311 945 1148 1241 1194 1108 998 943 858 672 393 293 236 146 59 31 27 11 19 19 35
0 0 0 0 0 0 0 0 0 0 0 0 0 0 0 0 0 0 0 0 0 0 0 1824 1930 1769 1462 1271 1069 861 713 934 981 902 771 864 721 581 369 170 124 40 12 10 8 0 14 31 19
0 0 0 0 0 0 0 0 0 0 0 0 0 0 0 0 0 0 0 0 0 0 154 1696 1866 1723 1348 1114 993 773 479 556 874 674 661 617 530 463 218 108 67 11 14 22 19 28 20 20 9
0 0 0 0 0 0 0 0 0 0 0 0 0 0 0 0 0 0 0 0 0 0 801 1782 1919 1727 1231 986 822 584 319 383 447 530 429 453 374 269 141 96 35 11 8 21 22 4 16 20 18
0 0 0 0 0 0 0 0 0 0 0 0 0 0 0 0 0 0 0 0 0 35 1327 1844 1830 1604 1188 911 848 591 334 348 345 306 118 67 137 168 119 59 5 5 4 2 11 13 9 22 22
0 0 0 0 0 0 3 0 0 0 0 0 3 18 0 0 0 0 0 0 30 1035 1897 1820 1692 1556 1136 1063 854 633 506 457 308 153 122 63 61 135 141 86 22 16 10 13 6 9 1 15 9
0 0 0 0 0 0 0 0 0 0 0 0 83 77 1 0 0 0 0 0 56 1740 2022 1767 1713 1489 1155 957 739 580 546 493 298 136 121 117 65 52 43 30 26 24 28 23 24 1 7 11 0
0 0 0 0 0 0 0 0 0 2 2 23 6 0 0 0 0 0 0 0 38 1467 1854 1777 1706 1562 1236 920 722 626 535 405 301 119 115 70 49 59 31 21 20 16 28 20 28 13 0 0 8
0 0 0 0 0 0 0 2 0 21 42 13 0 0 0 0 0 0 0 0 0 98 1683 1716 1603 1431 1246 1009 759 639 469 289 130 203 137 83 4 0 3 0 1 13 18 11 19 6 2 0 1
0 0 0 0 0 0 0 0 1 0 5 0 0 0 0 0 0 0 0 0 0 26 1359 1667 1438 1275 1165 974 820 683 428 284 146 161 113 20 0 0 0 0 0 1 3 1 1 7 4 8 9
0 0 0 5 0 0 0 0 40 0 0 2 0 0 0 0 0 0 0 0 0 402 1351 1453 1389 1227 1103 1010 971 660 412 213 157 106 82 6 0 1 1 2 1 2 1 1 1 6 3 2 6
0 6 11 6 3 0 0 1 1 0 0 0 0 0 0 0 0 0 1 1 4 0 144 610 1005 1078 1037 982 801 473 246 138 153 188 109 5 0 1 2 1 0 0 1 3 1 1 2 3 4
22 38 37 29 18 1 0 0 0 0 0 0 0 0 0 1 2 1 1 4 6 5 0 0 210 480 978 881 531 275 151 84 152 93 110 73 5 0 1 1 0 0 0 0 5 2 2 2 1
0 62 56 15 2 6 21 0 0 0 0 0 0 0 0 1 3 2 0 2 4 5 4 3 0 148 450 435 284 138 54 42 72 69 59 41 10 6 4 4 1 1 0 0 0 1 1 1 1

GFSSGP_con_mlcape_090.txt.gz
CAPE
0 0 0 0 0 0 0 0 0 0 0 0 0 0 0 0 0 1 1075 1133 789 626 1110 1394 1307 1255 1270 1233 1206 1191 1103 955 795 711 748 888 1114 1244 1284 1350 1511 1587 1590 1565 1450 1371 1482 1125 784
0 0 0 0 0 0 0 0 0 0 0 0 0 0 0 0 279 1025 1053 1260 747 736 1105 1323 1365 1359 1326 1290 1295 1338 1321 1173 1002 888 851 935 1150 1235 1311 1477 1620 1753 1741 1675 1625 1574 1456 1061 796
0 0 0 0 0 0 0 0 0 0 0 0 0 0 0 0 559 1027 1092 899 842 832 1095 1215 1421 1465 1409 1334 1330 1368 1394 1284 1148 1083 1029 1122 1196 1259 1280 1364 1336 1732 1698 1751 1694 1611 1273 724 632
0 0 0 0 0 0 0 0 0 0 0 0 0 0 0 0 725 903 1201 936 689 860 1017 1126 1263 1420 1512 1447 1380 1405 1420 1366 1287 1289 1192 1218 1289 1326 1225 1248 1394 1694 1709 1641 1574 1532 742 551 561
0 0 0 0 0 0 0 0 0 0 0 0 0 0 0 119 747 1107 1074 568 91 487 765 1020 1222 1322 1390 1436 1466 1495 1495 1491 1433 1418 1430 1352 1362 1304 1296 1210 1186 1415 1232 1083 1066 965 548 568 529
0 0 0 0 0 0 0 0 0 0 0 0 0 0 0 449 903 1122 1085 521 83 159 503 696 996 1168 1272 1352 1348 1413 1499 1532 1555 1515 1510 1538 1456 1440 1268 1205 1090 928 744 741 817 513 462 480 524
0 0 0 0 0 0 0 0 0 0 0 0 0 0 0 472 631 937 1138 1007 745 576 463 608 915 1084 1146 1231 1235 1268 1430 1542 1610 1620 1639 1575 1558 1440 1278 1065 993 741 633 460 420 249 376 280 373
0 0 0 0 0 0 0 0 0 0 0 0 0 0 0 138 514 1037 1341 1156 1198 1273 1105 880 730 876 1172 1242 1188 1249 1422 1542 1652 1698 1676 1596 1714 1636 1250 1019 808 568 455 390 304 138 273 206 213
0 0 0 0 0 0 0 0 0 0 0 0 0 0 0 283 787 1129 1429 1494 1405 1406 1440 1280 980 722 941 1065 1159 1307 1434 1548 1564 1595 1594 1611 1711 1373 1098 808 682 447 403 333 112 27 29 117 136
0 0 0 0 0 0 0 0 0 0 0 0 0 0 6 249 981 1089 1312 1420 1522 1529 1550 1386 846 559 826 1077 1108 1204 1314 1291 1350 1469 1580 1493 1294 978 840 685 565 79 19 22 21 23 7 126 73
0 0 0 0 0 0 0 0 0 0 0 0 0 0 0 0 348 990 1219 1365 1351 1518 1726 1804 1378 725 680 939 885 954 1086 1079 1113 1327 1196 1030 927 769 714 467 417 106 17 23 69 69 100 92 58
0 0 0 0 0 0 0 0 0 0 0 0 0 0 0 0 0 0 610 1041 1580 1816 1883 2041 1929 1506 1089 1259 1176 881 819 884 864 804 880 729 619 541 511 379 180 69 61 20 0 9 1 63 67
0 0 0 0 0 0 0 0 0 0 0 0 0 0 0 0 0 0 0 0 801 1761 2182 2162 2293 2053 1663 1511 1537 1230 1056 873 758 713 848 681 443 323 250 205 173 162 129 91 0 0 35 47 54
0 0 0 0 0 0 0 0 0 0 0 0 0 0 0 0 0 0 0 0 0 1009 1994 2300 2267 2329 1977 1635 1719 1523 1302 1258 984 765 821 741 547 338 236 195 251 200 158 118 7 0 8 54 82
0 0 0 0 0 0 0 0 0 0 0 0 0 0 0 0 0 0 0 0 0 0 727 1874 2295 2293 2031 1665 1744 1532 1476 1636 1331 974 894 867 637 499 294 242 243 172 146 83 79 10 12 27 65
0 0 0 0 0 0 0 0 0 0 0 0 0 0 0 0 0 0 0 0 0 0 11 1160 2118 2304 1991 1703 1705 1345 1493 1537 1502 1147 913 857 700 602 441 300 148 102 105 59 50 17 18 9 43
0 0 0 0 0 0 0 0 0 0 0 0 0 0 0 0 0 0 0 0 0 0 0 563 1657 2193 2142 1556 1526 1416 1471 1359 1332 1118 968 850 800 685 589 438 290 62 56 122 72 30 25 33 45
0 0 0 0 0 0 0 0 0 0 0 0 0 0 0 0 0 0 0 0 0 0 0 433 1196 1896 2020 1454 1325 1157 1291 1262 1088 986 958 875 769 690 592 451 348 238 92 31 30 8 14 27 32
0 0 0 0 0 0 0 0 0 0 0 0 0 0 0 0 0 0 0 0 0 0 0 351 1197 1750 1824 1436 1268 967 859 1066 1077 864 802 766 714 652 532 327 320 314 121 13 1 1 15 13 38
0 0 0 0 0 0 0 0 0 0 0 0 0 0 0 0 0 0 0 0 0 0 0 600 1131 1376 1767 1381 1162 744 420 495 418 714 599 630 638 444 469 373 237 136 31 3 2 3 0 9 39
0 0 0 0 0 0 0 0 0 0 0 0 0 0 20 5 3 0 0 0 0 0 22 587 1102 1178 1462 1215 588 376 247 279 367 509 492 460 460 460 387 326 191 38 4 2 6 5 1 18 1
0 0 0 0 0 0 0 0 0 0 0 0 0 39 16 0 0 0 0 0 0 0 69 796 1118 1353 1174 917 764 720 544 311 245 325 372 382 397 330 252 157 57 17 3 1 2 11 19 21 2
0 0 0 0 0 0 0 0 0 0 6 6 13 7 0 0 0 0 0 0 0 73 376 1112 1415 1272 967 1034 775 611 380 250 198 244 355 210 80 156 154 96 61 27 0 4 4 11 2 14 1
0 0 0 0 0 0 0 0 0 0 0 0 0 1 2 0 0 0 1 0 0 320 1626 1569 1539 1174 949 907 690 643 433 286 295 271 221 109 101 109 99 121 91 17 1 11 34 33 6 13 0
0 0 0 0 0 0 0 0 0 0 0 0 0 7 0 0 0 0 2 0 0 31 703 1573 1379 1114 1042 813 662 515 438 370 386 292 213 137 141 97 82 57 43 25 15 18 48 44 30 11 0
0 0 0 0 0 0 0 0 0 0 4 0 3 0 0 0 0 0 4 2 1 0 557 1354 1117 894 768 670 476 389 391 412 366 294 167 89 78 63 39 28 30 20 7 15 33 59 39 3 4
0 0 2 1 0 0 0 0 5 0 0 0 6 0 0 0 1 2 4 4 5 2 69 1038 924 838 638 533 459 486 465 356 270 151 196 100 45 27 3 0 1 4 0 7 16 12 3 1 1
0 0 5 1 0 0 0 0 6 5 1 0 0 0 0 2 2 1 3 4 6 5 5 87 545 713 547 434 504 455 424 303 236 140 130 87 30 2 0 0 1 1 1 0 3 8 1 1 1
0 0 0 0 11 5 0 0 17 6 0 4 0 0 0 2 4 2 2 3 7 6 8 6 19 423 427 400 395 439 350 319 210 160 95 71 13 0 0 1 1 0 5 1 5 0 1 1 0
0 0 18 9 0 1 3 0 1 0 0 0 0 0 1 3 3 3 3 2 5 6 10 2 0 2 52 135 241 268 248 208 171 169 120 65 5 0 1 1 1 0 0 0 1 1 1 1 1

GFSSGP_con_mlcape_093.txt.gz
CAPE
0 0 0 0 0 0 0 0 0 0 0 0 0 0 0 0 0 0 766 927 991 817 1093 1043 1311 1407 1251 1095 988 866 741 694 703 794 921 1119 1315 1498 1514 1366 1277 1495 1728 1655 1535 1405 1299 1129 857
0 0 0 0 0 0 0 0 0 0 0 0 0 0 0 0 62 690 1037 1090 1004 816 1237 1222 1294 1417 1342 1234 1220 1159 973 788 760 831 981 1160 1223 1339 1393 1400 1470 1668 1733 1547 1578 1630 1290 983 782
0 0 0 0 0 0 0 0 0 0 0 0 0 0 0 0 57 660 999 1152 921 1214 1363 1385 1412 1463 1439 1373 1399 1380 1250 999 862 886 1005 1188 1334 1364 1422 1461 1510 1771 1600 1641 1369 1464 1202 785 688
0 0 0 0 0 0 0 0 0 0 0 0 0 0 0 0 40 761 1161 1211 783 1130 1314 1404 1470 1427 1406 1454 1523 1517 1340 1153 1023 1013 1097 1200 1364 1384 1406 1488 1570 1756 1672 1548 1566 1436 856 670 663
0 0 0 0 0 0 0 0 0 0 0 0 0 0 0 0 600 991 996 951 661 1006 1259 1428 1476 1428 1427 1457 1521 1557 1443 1314 1258 1212 1185 1237 1350 1382 1318 1348 1650 1738 1491 1303 1081 869 611 506 644
0 0 0 0 0 0 0 0 0 0 0 0 0 0 0 0 736 1023 901 728 742 705 1081 1241 1393 1429 1483 1567 1551 1525 1504 1456 1419 1430 1289 1328 1345 1354 1268 1273 1451 1201 1030 906 838 769 524 530 654
0 0 0 0 0 0 0 0 0 0 0 0 0 0 0 26 959 1035 822 551 688 807 753 918 1133 1286 1402 1496 1577 1536 1540 1555 1530 1550 1547 1488 1408 1383 1339 1283 1257 1239 903 815 791 537 381 507 462
0 0 0 0 0 0 0 0 0 0 0 0 0 0 0 0 349 1084 787 488 599 555 767 837 906 987 1018 1262 1390 1465 1567 1588 1611 1636 1627 1617 1518 1408 1349 1323 1296 1148 775 765 660 383 353 289 252
0 0 0 0 0 0 0 0 0 0 0 0 0 0 0 51 624 1306 1135 610 305 357 381 613 756 889 918 1027 1303 1405 1539 1640 1637 1676 1713 1645 1631 1512 1370 1175 1136 973 728 605 533 376 213 109 91
0 0 0 0 0 0 0 0 0 0 0 0 0 0 0 0 654 1401 1441 1113 874 620 279 375 566 728 777 888 1051 1233 1515 1678 1657 1672 1708 1656 1566 1473 1234 1040 989 832 559 531 404 151 109 37 37
0 0 0 0 0 0 0 0 0 0 0 0 0 0 0 0 0 692 1040 1550 1275 1329 1160 1096 940 725 694 846 958 1066 1362 1392 1444 1405 1477 1471 1429 1279 890 776 612 403 307 309 183 65 20 4 36
0 0 0 0 0 0 0 0 0 0 0 0 0 0 0 0 0 0 0 890 1493 1723 1476 1413 1124 771 645 690 658 822 1038 1131 1123 1240 1319 1319 1250 919 618 563 443 98 63 28 4 36 80 17 29
0 0 0 0 0 0 0 0 0 0 0 0 0 0 0 0 0 0 0 0 520 1380 1979 1646 1315 959 748 740 618 607 743 864 929 969 1179 1111 858 658 517 491 279 119 41 0 40 106 129 42 42
0 0 0 0 0 0 0 0 0 0 0 0 0 0 0 0 0 0 0 0 0 99 1698 2087 1805 1512 1131 918 627 605 685 665 765 799 928 833 519 407 341 199 129 55 15 7 4 0 53 14 35
0 0 0 0 0 0 0 0 0 0 0 0 0 0 0 0 0 0 0 0 0 0 10 1999 2193 2072 1802 1446 1185 993 925 842 750 774 781 687 484 260 178 70 116 61 32 52 0 0 11 14 21
0 0 0 0 0 0 0 0 0 0 0 0 0 0 0 0 0 0 0 0 0 0 0 751 2173 2327 2231 1855 1645 1458 1318 1115 1000 794 784 690 496 277 160 123 106 51 58 81 12 1 0 22 36
0 0 0 0 0 0 0 0 0 0 0 0 0 0 0 0 0 0 0 0 0 0 0 69 1486 2217 2465 2170 1861 1598 1461 1331 1252 1038 911 812 668 465 321 150 105 70 70 41 61 4 0 0 8
0 0 0 0 0 0 0 0 0 0 0 0 0 0 0 0 0 0 0 0 0 0 0 0 726 1519 2349 2031 1639 1467 1367 1331 1380 1374 1189 915 810 629 450 245 123 106 87 29 7 22 2 0 0
0 0 0 0 0 0 0 0 0 0 0 0 0 0 0 0 0 0 0 0 0 0 0 0 558 1282 2020 1876 1662 1517 1515 1301 1278 1290 1261 1034 846 636 550 374 187 98 41 17 15 5 0 0 14
0 0 0 0 0 0 0 0 0 0 0 0 0 0 0 0 0 0 0 0 0 0 0 0 329 899 1553 1695 1716 1446 1491 1191 1061 1007 1081 948 791 645 561 419 262 201 148 48 5 0 2 4 7
0 0 0 0 0 0 0 0 0 0 0 0 0 0 0 0 0 0 0 0 0 0 0 2 353 884 1255 1685 1358 966 856 695 549 783 908 648 686 536 490 360 273 249 60 47 8 0 2 4 8
0 0 0 0 0 0 0 0 0 0 0 0 0 0 0 0 0 0 0 0 0 0 0 21 426 867 1564 1567 1231 1069 1022 839 821 957 818 560 538 504 451 313 328 264 138 10 0 1 2 0 6
0 0 0 0 0 0 0 0 0 0 0 0 0 0 0 0 0 0 0 0 0 0 9 71 737 1209 1564 1227 1126 1014 934 610 323 364 330 506 406 402 399 372 329 202 36 7 1 2 2 0 1
0 0 0 0 0 0 0 0 0 0 0 0 0 0 0 0 0 0 0 0 0 1 22 591 1126 1362 1323 1034 874 989 749 385 318 235 215 346 331 347 345 279 190 113 42 17 0 2 1 3 6
0 0 0 0 0 0 0 0 0 0 0 0 0 2 0 0 1 1 0 0 2 2 2 481 1607 1382 1066 906 664 669 500 411 352 173 169 261 216 174 176 174 123 33 51 24 10 2 5 7 8
0 0 0 0 0 0 0 0 0 0 0 1 0 0 0 0 2 2 0 3 3 5 2 62 1569 1292 941 771 643 428 385 298 257 130 139 172 121 105 72 67 74 78 63 35 27 24 22 19 33
0 0 0 0 0 0 0 0 0 0 0 0 0 0 0 0 1 1 0 4 6 6 4 4 908 1124 922 659 373 273 210 275 166 138 176 160 114 103 118 89 44 55 57 41 16 34 40 37 20
0 0 1 0 0 0 0 0 0 0 0 0 0 0 0 0 0 0 1 3 4 5 6 6 23 882 514 398 262 210 241 174 150 184 191 85 74 73 63 33 11 10 6 4 3 12 22 51 22
0 0 0 0 0 1 0 0 0 7 0 0 0 0 0 0 0 1 1 2 4 5 5 7 4 286 325 293 195 142 149 142 120 134 67 80 75 50 9 0 0 0 0 1 1 1 4 3 1
0 0 0 0 0 0 0 0 0 0 0 0 0 0 2 2 2 3 2 3 4 6 5 4 7 4 35 213 135 91 107 82 71 67 92 74 38 1 0 0 2 2 0 2 1 0 11 10 1

GFSSGP_con_mlcape_096.txt.gz
CAPE
0 0 0 0 0 0 0 0 0 0 0 0 0 0 0 0 0 0 597 814 907 597 961 1028 1148 1292 1196 1090 910 796 810 840 1009 1101 1303 1433 1418 1272 1164 1136 1149 1371 1658 1710 1563 1441 1431 1187 925
0 0 0 0 0 0 0 0 0 0 0 0 0 0 0 0 0 58 938 1035 1014 760 1052 1058 1229 1371 1328 1173 1053 969 979 1011 1036 1169 1271 1475 1564 1430 1440 1337 1280 1585 1685 1643 1570 1491 1460 1043 812
0 0 0 0 0 0 0 0 0 0 0 0 0 0 0 0 0 462 833 951 1140 964 1103 1140 1378 1511 1470 1284 1137 1102 1077 1090 1044 1110 1336 1573 1709 1662 1591 1447 1570 1807 1731 1449 1611 1637 1294 843 714
0 0 0 0 0 0 0 0 0 0 0 0 0 0 0 0 0 248 1008 1051 1190 1064 1254 1273 1420 1571 1495 1397 1324 1230 1064 1036 1057 1166 1306 1436 1566 1670 1566 1513 1597 1882 1742 1635 1625 1306 1034 747 721
0 0 0 0 0 0 0 0 0 0 0 0 0 0 0 0 4 547 1025 1033 757 916 1332 1360 1481 1569 1507 1511 1496 1419 1217 1102 1107 1206 1274 1382 1487 1537 1541 1608 1678 1852 1740 1587 1546 1339 945 771 800
0 0 0 0 0 0 0 0 0 0 0 0 0 0 0 0 28 769 1178 1018 1023 1052 1360 1462 1570 1642 1624 1607 1586 1541 1399 1307 1226 1228 1244 1395 1461 1450 1520 1594 1665 1830 1578 1330 1293 1024 786 745 828
0 0 0 0 0 0 0 0 0 0 0 0 0 0 0 0 0 477 825 846 947 1130 1325 1474 1598 1698 1620 1555 1517 1537 1456 1427 1426 1355 1341 1437 1522 1479 1474 1572 1707 1727 1251 1136 1111 919 734 651 731
0 0 0 0 0 0 0 0 0 0 0 0 0 0 0 0 1 636 802 759 888 1065 1275 1463 1616 1703 1599 1523 1480 1468 1475 1507 1543 1556 1498 1427 1465 1505 1492 1488 1623 1398 1073 1024 1010 768 633 661 637
0 0 0 0 0 0 0 0 0 0 0 0 0 0 0 0 237 590 1046 747 797 968 1095 1259 1440 1543 1563 1600 1568 1572 1583 1549 1632 1649 1618 1613 1483 1495 1465 1460 1474 1359 973 933 885 635 487 341 354
0 0 0 0 0 0 0 0 0 0 0 0 0 0 0 0 0 0 1049 1023 461 702 839 992 1050 1157 1277 1295 1481 1564 1634 1665 1645 1681 1667 1608 1559 1439 1358 1342 1390 1240 844 815 695 542 319 203 171
0 0 0 0 0 0 0 0 0 0 0 0 0 0 0 0 0 0 300 1361 1214 764 622 727 701 772 799 1003 1336 1358 1418 1457 1516 1506 1616 1609 1523 1475 1329 1148 1075 909 757 585 492 347 147 56 130
0 0 0 0 0 0 0 0 0 0 0 0 0 0 0 0 0 0 0 0 742 1528 1255 880 683 781 728 950 1069 1282 1228 1248 1248 1375 1549 1508 1449 1373 1180 1010 723 586 421 299 268 153 50 31 44
0 0 0 0 0 0 0 0 0 0 0 0 0 0 0 0 0 0 0 0 0 58 1260 1572 1250 956 881 859 922 974 1120 1118 1245 1262 1307 1405 1368 1270 1041 763 577 349 169 144 91 37 24 11 29
0 0 0 0 0 0 0 0 0 0 0 0 0 0 0 0 0 0 0 0 0 0 1 1170 1605 1457 1129 935 901 841 988 1018 1012 1080 1242 1331 1217 1105 920 593 406 248 21 1 0 0 8 25 13
0 0 0 0 0 0 0 0 0 0 0 0 0 0 0 0 0 0 0 0 0 0 0 0 995 1610 1427 1082 864 828 783 829 790 894 1174 1101 1017 806 573 379 221 157 3 1 0 0 28 57 37
0 0 0 0 0 0 0 0 0 0 0 0 0 0 0 0 0 0 0 0 0 0 0 0 90 998 1556 1438 1149 980 822 709 690 732 934 928 761 485 341 220 163 25 0 2 0 0 6 43 11
0 0 0 0 0 0 0 0 0 0 0 0 0 0 0 0 0 0 0 0 0 0 0 0 1 373 1102 1782 1608 1261 978 909 763 710 797 738 556 361 239 163 117 17 1 2 2 2 0 7 3
0 0 0 0 0 0 0 0 0 0 0 0 0 0 0 0 0 0 0 0 0 0 0 0 0 322 1216 1925 1777 1613 1321 1170 1061 794 809 731 563 371 327 211 118 31 2 4 7 1 3 11 8
0 0 0 0 0 0 0 0 0 0 0 0 0 0 0 0 0 0 0 0 0 0 0 0 0 132 1247 1952 1916 1700 1630 1478 1302 1091 914 817 727 496 533 330 134 39 49 12 6 3 7 5 12
0 0 0 0 0 0 0 0 0 0 0 0 0 0 0 0 0 0 0 0 0 0 0 0 0 10 932 1622 1913 1779 1665 1526 1432 1197 999 986 860 649 645 470 247 101 43 21 13 4 22 6 14
0 0 0 0 0 0 0 0 0 0 0 0 0 0 0 0 0 0 0 0 0 0 0 0 0 8 641 1657 1889 1474 1430 1180 1062 1004 910 624 773 740 657 467 268 209 77 44 62 42 8 30 21
0 0 0 0 0 0 0 0 0 0 0 0 0 0 0 0 0 0 0 0 0 0 0 0 0 0 1195 1768 1709 1422 1321 1101 1025 998 669 366 412 642 674 432 339 257 144 119 91 30 1 1 2
0 0 0 0 0 0 0 0 0 0 0 0 0 0 0 0 0 0 0 0 0 0 0 0 0 7 1308 1629 1591 1323 1254 1246 1035 899 0 3 284 479 498 412 309 273 145 102 116 34 9 2 2
0 0 0 0 0 0 0 0 0 0 0 0 0 0 0 0 0 0 0 0 1 1 0 2 1 323 1441 1596 1453 1136 1128 972 1001 878 259 137 343 397 443 428 315 197 151 123 106 39 5 4 4
0 0 0 0 0 0 0 0 0 0 0 0 0 0 0 0 0 0 0 0 2 5 3 5 3 279 1474 1448 1282 1064 1022 746 827 812 666 440 467 363 379 297 218 180 154 147 55 34 6 7 4
0 0 0 0 0 0 0 0 0 0 0 0 0 0 0 0 1 0 0 1 2 5 5 5 4 10 1302 1133 1014 821 558 480 486 346 277 268 307 277 251 209 167 161 128 69 46 15 4 3 9
0 0 0 0 0 0 0 0 0 0 0 0 0 0 0 0 1 0 0 1 3 4 6 5 8 1 893 908 615 409 348 418 302 131 55 54 157 141 135 108 106 140 86 66 61 49 26 5 2
0 0 0 0 0 0 0 0 0 0 0 0 0 0 0 2 0 0 0 2 3 3 4 5 6 7 788 615 404 294 267 253 152 63 1 43 82 70 40 14 37 128 124 97 51 26 20 8 20
0 0 0 0 0 1 0 0 0 4 0 0 3 4 3 1 2 1 1 2 3 3 5 5 6 8 9 338 302 274 229 126 53 16 0 6 4 7 52 60 71 68 56 15 8 4 7 7 15
0 0 0 0 0 0 0 0 0 0 0 1 3 2 3 2 0 0 1 2 3 5 5 5 6 8 7 5 230 199 90 111 39 20 0 2 5 28 35 38 39 1 0 1 1 1 0 2 1

GFSSGP_con_mlcape_099.txt.gz
CAPE
0 0 0 0 0 0 0 0 0 0 0 0 0 0 0 0 0 0 263 870 1005 632 1272 1190 1168 1280 1061 867 895 1089 1300 1557 1608 1613 1510 1374 1334 1153 952 907 971 1368 1866 1938 1674 1449 1562 1465 1126
0 0 0 0 0 0 0 0 0 0 0 0 0 0 0 0 0 0 169 963 1052 886 1209 1311 1183 1286 1173 994 886 1077 1317 1430 1628 1727 1705 1568 1517 1307 1182 1140 1284 1810 2000 1838 1812 1695 1496 1114 1040
0 0 0 0 0 0 0 0 0 0 0 0 0 0 0 0 0 0 731 1179 1095 942 1256 1315 1203 1317 1260 1101 1025 1049 1197 1245 1344 1652 1871 1822 1670 1527 1429 1367 1558 1961 2000 1815 1826 1845 1389 957 922
0 0 0 0 0 0 0 0 0 0 0 0 0 0 0 0 0 0 552 1130 1194 1118 1318 1430 1267 1369 1304 1126 1095 1099 1044 1059 1255 1477 1788 1983 1837 1638 1654 1548 1730 1983 1963 1884 1883 1864 1347 924 848
0 0 0 0 0 0 0 0 0 0 0 0 0 0 0 0 0 2 835 1188 1315 1420 1443 1530 1397 1418 1314 1219 1188 1147 1035 1014 1063 1326 1620 1879 1904 1819 1773 1616 1731 2093 1900 1817 1838 1566 1163 912 842
0 0 0 0 0 0 0 0 0 0 0 0 0 0 0 0 0 0 884 1149 1221 1395 1594 1625 1540 1531 1439 1349 1274 1201 1082 1037 1050 1119 1337 1601 1840 1931 1798 1724 1786 1961 1893 1696 1627 1456 1155 984 933
0 0 0 0 0 0 0 0 0 0 0 0 0 0 0 0 0 0 514 1082 1151 1381 1548 1679 1838 1781 1609 1553 1443 1334 1200 1123 1121 1185 1268 1417 1513 1628 1735 1748 1668 1745 1680 1571 1636 1473 1143 1023 1010
0 0 0 0 0 0 0 0 0 0 0 0 0 0 0 0 0 0 683 1014 1108 1174 1467 1564 1668 1843 1954 1904 1644 1542 1378 1274 1238 1293 1369 1391 1370 1429 1572 1728 1749 1729 1689 1438 1269 1217 1045 982 958
0 0 0 0 0 0 0 0 0 0 0 0 0 0 0 0 0 0 466 963 977 972 1053 1291 1490 1673 1823 1865 1937 1725 1589 1480 1444 1468 1465 1511 1725 1687 1674 1758 1780 1582 1410 1198 1058 1085 932 883 776
0 0 0 0 0 0 0 0 0 0 0 0 0 0 0 0 0 0 0 898 947 909 907 1214 1199 1254 1477 1601 1736 2013 1998 1924 1870 1896 1965 1926 1880 1854 1832 1716 1528 1495 1168 1034 855 887 813 639 938
0 0 0 0 0 0 0 0 0 0 0 0 0 0 0 0 0 0 0 144 1317 784 672 901 1003 1085 1084 1228 1436 1825 1833 1866 1795 1727 1861 2044 1972 1827 1743 1793 1731 1755 1236 1208 907 936 875 844 862
0 0 0 0 0 0 0 0 0 0 0 0 0 0 0 0 0 0 0 0 0 553 1045 640 691 837 900 950 1035 1514 1560 1594 1623 1588 1817 1719 1717 1705 1613 1466 1525 1662 1317 1094 1215 953 927 660 661
0 0 0 0 0 0 0 0 0 0 0 0 0 0 0 0 0 0 0 0 0 0 13 1103 939 681 626 839 955 1166 1381 1453 1446 1523 1763 1784 1613 1607 1368 1368 1207 1324 1094 918 835 744 633 541 510
0 0 0 0 0 0 0 0 0 0 0 0 0 0 0 0 0 0 0 0 0 0 0 13 882 1016 860 705 754 962 1209 1302 1370 1445 1556 1749 1649 1548 1269 1044 1093 980 834 599 490 303 408 377 362
0 0 0 0 0 0 0 0 0 0 0 0 0 0 0 0 0 0 0 0 0 0 0 0 12 774 1450 1217 1080 1020 968 1077 1097 1246 1460 1535 1543 1353 1159 915 903 743 595 300 92 48 35 101 239
0 0 0 0 0 0 0 0 0 0 0 0 0 0 0 0 0 0 0 0 0 0 0 0 0 190 1156 1510 1486 1347 1052 917 932 1022 1213 1370 1324 1128 941 824 683 510 361 116 46 23 2 8 14
0 0 0 0 0 0 0 0 0 0 0 0 0 0 0 0 0 0 0 0 0 0 0 0 0 0 93 772 1587 1588 1268 991 891 971 1095 1252 1173 985 813 682 462 405 278 128 29 2 1 2 27
0 0 0 0 0 0 0 0 0 0 0 0 0 0 0 0 0 0 0 0 0 0 0 0 0 0 0 749 1308 1603 1397 1248 1218 1062 1014 1145 1059 804 671 481 345 290 211 105 24 0 3 7 45
0 0 0 0 0 0 0 0 0 0 0 0 0 0 0 0 0 0 0 0 0 0 0 0 0 0 0 758 895 1017 1326 1390 1325 1178 1026 1072 902 684 541 374 257 236 190 128 50 2 4 16 20
0 0 0 0 0 0 0 0 0 0 0 0 0 0 0 0 0 0 0 0 0 0 0 0 0 0 0 131 1189 1252 1243 1456 1553 1349 1127 1048 851 630 488 434 304 261 198 131 83 32 3 15 20
0 0 0 0 0 0 0 0 0 0 0 0 0 0 0 0 0 0 0 0 0 0 0 0 0 0 0 1 1167 1616 1530 1609 1469 1437 1261 1117 931 677 577 528 370 293 246 148 101 61 12 4 20
0 0 0 0 0 0 0 0 0 0 0 0 0 0 0 0 0 0 0 0 0 0 0 0 0 0 0 0 868 1528 1322 1336 1546 1502 1373 1274 847 605 439 436 412 304 224 156 124 80 32 38 22
0 0 0 0 0 0 0 0 0 0 0 0 0 0 0 0 0 0 0 0 0 0 0 0 0 1 1 3 470 1633 1425 1572 1568 1541 1243 1085 860 687 134 0 154 314 280 181 130 70 66 64 46
0 0 0 0 0 0 0 0 0 0 0 0 0 0 0 0 0 0 0 0 0 0 0 1 2 3 1 28 504 1554 1473 1464 1489 1313 1117 1272 808 126 1 2 223 257 227 226 176 109 73 73 35
0 0 0 0 0 0 0 0 0 0 0 0 0 0 0 0 0 0 0 0 1 0 2 4 4 4 4 13 1018 1575 1443 1444 1434 1263 1058 876 328 30 2 73 393 330 278 194 199 115 113 68 36
0 0 0 0 0 0 0 0 0 0 0 0 0 0 0 0 0 0 0 1 2 2 3 5 6 5 5 5 1266 1328 1214 1139 1265 1271 516 393 230 164 170 305 432 414 277 184 99 91 85 103 24
0 0 0 0 0 0 0 0 0 0 0 0 0 0 0 0 0 0 0 0 2 3 3 4 5 5 5 8 1089 1027 859 726 733 1044 872 434 367 322 262 323 283 265 211 138 96 50 117 76 44
0 0 0 0 0 0 0 0 0 0 0 0 0 0 1 0 0 0 0 1 1 3 3 4 4 5 5 10 792 633 580 526 373 329 261 240 208 96 50 152 195 155 131 223 147 49 36 55 46
0 0 0 0 0 0 0 0 0 0 0 0 0 0 0 1 1 0 0 0 2 2 3 4 5 6 8 8 228 401 337 235 173 211 206 155 60 0 60 50 71 108 162 145 139 121 82 50 29
0 0 0 0 0 0 0 0 0 0 0 0 0 0 2 1 1 0 0 1 1 3 4 5 5 6 5 8 6 120 135 124 152 186 146 87 0 2 24 9 25 43 143 140 96 49 12 12 4

GFSSGP_con_mlcape_102.txt.gz
CAPE
0 0 0 0 0 0 0 0 0 0 0 0 0 0 0 0 0 0 0 1338 1562 1303 1958 1540 1290 1042 893 983 1100 1400 1583 1570 1356 1260 1180 1260 1341 1287 1245 1357 1588 1890 2030 1997 2029 1643 1592 1822 1542
0 0 0 0 0 0 0 0 0 0 0 0 0 0 0 0 0 0 0 743 1546 1387 1870 1934 1372 1136 929 918 1078 1424 1754 1650 1566 1533 1437 1547 1544 1459 1375 1351 1526 1834 2185 2133 1897 1784 1815 1684 1446
0 0 0 0 0 0 0 0 0 0 0 0 0 0 0 0 0 0 0 527 1390 1535 1696 1755 1370 1165 978 855 982 1319 1682 1786 1760 1780 1680 1681 1645 1520 1377 1248 1457 1861 2292 2246 2078 1994 1957 1459 1232
0 0 0 0 0 0 0 0 0 0 0 0 0 0 0 0 0 0 0 1411 1582 1567 1602 1725 1393 1242 1049 866 888 1112 1392 1665 1910 1995 1923 1826 1817 1644 1471 1279 1645 2220 2277 2160 2170 2162 1479 1177 1191
0 0 0 0 0 0 0 0 0 0 0 0 0 0 0 0 0 0 0 1342 1965 1810 1745 2016 1502 1466 1225 941 897 999 1107 1327 1612 1878 1970 1945 1926 1789 1581 1501 1792 2109 2266 2118 2076 2090 1491 1118 1113
0 0 0 0 0 0 0 0 0 0 0 0 0 0 0 0 0 0 0 1117 1997 2148 2038 2228 1653 1602 1382 1164 1081 1021 1026 1164 1380 1563 1785 1955 2018 1868 1652 1653 1754 2061 2143 1939 1943 1869 1399 1131 1085
0 0 0 0 0 0 0 0 0 0 0 0 0 0 0 0 0 0 9 1129 2023 2254 2132 2203 2231 1906 1573 1357 1245 1142 1048 1113 1217 1468 1689 1904 2018 1895 1846 1839 1821 1836 1903 1791 1928 1692 1244 1125 1090
0 0 0 0 0 0 0 0 0 0 0 0 0 0 0 0 0 0 0 854 1908 2160 2178 2253 2366 2276 2276 2008 1458 1366 1230 1142 1149 1314 1514 1698 1931 2012 1966 1880 1917 1840 1748 1668 1656 1533 1386 1110 1124
0 0 0 0 0 0 0 0 0 0 0 0 0 0 0 0 0 0 0 67 1704 1927 2021 2092 2037 1907 2029 2419 2194 1613 1451 1313 1265 1351 1422 1571 1846 2073 2123 2049 2012 1874 1641 1732 1510 1431 1288 1119 1104
0 0 0 0 0 0 0 0 0 0 0 0 0 0 0 0 0 0 0 0 1432 1895 1817 1904 1928 1827 1802 1754 2069 2259 2326 1990 1896 1841 1938 1878 1907 2098 1860 1930 2106 1832 1689 1642 1403 1148 1067 966 1270
0 0 0 0 0 0 0 0 0 0 0 0 0 0 0 0 0 0 0 0 0 1041 1712 1715 1929 2023 2004 1808 1899 1930 2271 2310 2356 2291 2263 2119 2158 2202 2084 2160 2060 2002 1759 1623 1248 1288 1146 1041 1084
0 0 0 0 0 0 0 0 0 0 0 0 0 0 0 0 0 0 0 0 0 0 31 1365 1736 1931 1933 1851 1668 1735 1920 1918 1929 2054 2203 2371 2421 2098 2057 1909 1985 1881 1907 1608 1581 1362 1327 1311 1149
0 0 0 0 0 0 0 0 0 0 0 0 0 0 0 0 0 0 0 0 0 0 0 0 1199 1716 1766 1789 1532 1598 1698 1829 1891 2069 2045 2003 2251 2181 1964 1786 2001 1962 1848 1865 1685 1621 1507 1414 1193
0 0 0 0 0 0 0 0 0 0 0 0 0 0 0 0 0 0 0 0 0 0 0 0 4 923 1602 1628 1554 1448 1417 1540 1623 1695 1703 1916 2016 2070 1964 1888 1841 1716 1768 1780 1764 1631 1481 1367 1046
0 0 0 0 0 0 0 0 0 0 0 0 0 0 0 0 0 0 0 0 0 0 0 0 0 2 866 1434 1542 1482 1311 1391 1416 1447 1599 1836 1946 2077 1749 1702 1660 1823 1744 1803 1651 1517 1363 1142 929
0 0 0 0 0 0 0 0 0 0 0 0 0 0 0 0 0 0 0 0 0 0 0 0 0 0 0 519 1083 1575 1646 1566 1446 1441 1473 1668 1847 1946 1763 1634 1566 1370 1426 1136 947 826 711 661 824
0 0 0 0 0 0 0 0 0 0 0 0 0 0 0 0 0 0 0 0 0 0 0 0 0 0 0 0 490 1037 1600 1972 1823 1568 1455 1601 1746 1804 1686 1440 1461 1278 1209 995 744 663 559 513 700
0 0 0 0 0 0 0 0 0 0 0 0 0 0 0 0 0 0 0 0 0 0 0 0 0 0 0 0 7 656 1001 1887 1890 1815 1586 1584 1754 1773 1590 1429 1160 1094 982 1063 797 554 356 277 302
0 0 0 0 0 0 0 0 0 0 0 0 0 0 0 0 0 0 0 0 0 0 0 0 0 0 0 0 0 184 778 1395 1364 1749 1832 1686 1728 1690 1512 1298 1021 915 822 817 620 373 186 143 184
0 0 0 0 0 0 0 0 0 0 0 0 0 0 0 0 0 0 0 0 0 0 0 0 0 0 0 0 0 0 565 842 1085 1462 2011 1831 1721 1713 1489 1224 995 875 816 705 611 422 130 139 133
0 0 0 0 0 0 0 0 0 0 0 0 0 0 0 0 0 0 0 0 0 0 0 0 0 0 0 0 0 0 353 982 1243 1484 1759 1870 1807 1651 1329 1086 895 797 708 725 782 403 215 179 157
0 0 0 0 0 0 0 0 0 0 0 0 0 0 0 0 0 0 0 0 0 0 0 0 0 0 0 0 0 0 10 1040 1189 1329 1699 1731 1676 1422 1183 930 795 720 659 689 665 466 346 241 168
0 0 0 0 0 0 0 0 0 0 0 0 0 0 0 0 0 0 0 0 0 0 0 0 0 0 0 0 1 6 0 1148 1357 1468 1587 1582 1526 1362 1162 810 680 128 611 674 660 577 581 332 202
1 12 8 0 0 0 0 0 0 0 0 0 0 0 0 0 0 0 0 0 0 0 0 0 1 0 0 0 1 2 177 664 1535 1483 1574 1535 1454 1286 1156 983 931 640 499 466 457 526 530 390 238
6 7 11 5 2 0 0 0 0 0 0 0 2 0 0 0 0 0 0 0 0 0 0 0 3 4 2 3 3 3 263 533 1762 1577 1748 1442 1234 1279 1185 959 510 379 148 235 411 459 492 368 233
0 1 0 0 0 0 0 0 8 0 2 0 0 0 0 0 0 0 0 0 0 0 0 1 4 4 4 3 5 6 710 866 1775 1567 1677 1410 1250 1268 1416 667 223 31 9 143 420 464 620 442 259
4 14 6 0 0 1 0 5 47 3 3 2 0 0 0 0 0 0 0 0 0 0 0 3 5 4 3 5 6 8 1571 1717 1697 1528 1479 1383 1570 1572 875 397 240 110 175 307 398 533 484 251 203
51 16 13 21 5 6 0 0 12 5 2 0 0 0 0 0 0 0 0 0 1 0 0 3 4 4 5 5 7 6 1186 1296 1268 1215 1283 1048 1158 949 711 416 335 288 346 349 378 474 259 137 152
0 27 42 29 9 11 3 6 6 0 0 0 0 0 0 0 0 0 0 0 1 0 0 2 3 5 7 5 6 7 623 859 958 978 925 943 766 720 430 265 252 204 182 188 202 222 232 203 119
0 0 0 0 1 0 1 3 0 0 0 0 0 0 0 0 0 0 0 0 0 0 0 2 3 5 5 4 4 10 4 19 370 438 432 513 407 457 419 303 91 62 176 171 174 258 200 202 169

GFSSGP_con_mlcape_105.txt.gz
CAPE
0 0 0 0 0 0 0 0 0 0 0 0 0 0 0 0 0 0 0 327 1474 1648 2440 1276 1052 1148 1101 1099 1153 1265 1425 1437 1352 1274 1030 1154 1249 1201 1275 1486 1648 1741 2011 1894 1866 2034 1982 1801 1477
0 0 0 0 0 0 0 0 0 0 0 0 0 0 0 0 0 0 0 0 520 1711 1960 1900 1329 1171 1155 1108 1184 1387 1472 1627 1579 1395 1219 1319 1408 1328 1379 1526 1631 1800 1962 2007 2214 2175 2145 2073 1798
0 0 0 0 0 0 0 0 0 0 0 0 0 0 0 0 0 0 0 127 918 1310 1876 2279 1574 1237 1156 1094 1226 1528 1678 1825 1694 1502 1446 1458 1392 1389 1406 1484 1734 1965 2123 2169 2242 2062 2101 1886 1625
0 0 0 0 0 0 0 0 0 0 0 0 0 0 0 0 0 0 0 148 1526 1613 1894 1952 1779 1354 1193 1098 1266 1581 1846 1839 1776 1731 1785 1668 1570 1559 1542 1445 1644 1958 2260 2114 2113 2205 2077 1693 1377
0 0 0 0 0 0 0 0 0 0 0 0 0 0 0 0 0 0 0 159 1688 2202 1913 2084 1708 1435 1275 1055 1134 1427 1712 1894 1887 1885 1935 1962 1865 1733 1619 1417 1589 1803 2329 2323 2035 2082 1653 1255 1279
0 0 0 0 0 0 0 0 0 0 0 0 0 0 0 0 0 0 0 196 1964 2592 2190 2533 1783 1467 1363 1071 996 1210 1426 1661 1947 2073 2088 2078 2052 1932 1643 1409 1544 1725 2151 2007 2051 2114 1605 1183 1197
0 0 0 0 0 0 0 0 0 0 0 0 0 0 0 0 0 0 0 20 1671 2565 2702 2494 2624 1753 1467 1269 1054 1044 1189 1346 1548 1851 2108 2194 2161 1998 1715 1581 1637 1891 1920 1858 1900 1911 1681 1221 1148
0 0 0 0 0 0 0 0 0 0 0 0 0 0 0 0 0 0 0 0 1033 2323 2553 2742 2622 2243 2096 1896 1269 1100 1037 1096 1245 1485 1801 2058 2188 2082 1869 1771 1809 1859 1900 1859 1923 1852 1532 1172 1111
0 0 0 0 0 0 0 0 0 0 0 0 0 0 0 0 0 0 0 0 415 2043 2329 2421 2632 2619 2499 2371 1990 1381 1230 1128 1151 1331 1555 1808 2277 2432 2345 2159 2107 1886 1873 1764 1675 1573 1562 1255 1105
0 0 0 0 0 0 0 0 0 0 0 0 0 0 0 0 0 0 0 0 0 1530 2097 2417 2185 2216 2281 2558 2609 2099 1894 1642 1594 1517 1738 1861 1864 2163 2158 2242 2111 2051 1877 1688 1570 1572 1492 1359 1408
0 0 0 0 0 0 0 0 0 0 0 0 0 0 0 0 0 0 0 0 0 13 1902 2123 2368 2423 2305 2273 2431 2529 2313 2219 2186 2090 2087 1996 2007 2101 2030 2106 2169 2304 1994 1955 1833 1823 1717 1456 1227
0 0 0 0 0 0 0 0 0 0 0 0 0 0 0 0 0 0 0 0 0 0 0 1541 2043 2357 2490 2558 2328 2374 2422 2532 2288 2252 2404 2329 2193 1987 1975 1584 2058 2136 2108 1891 1886 1823 1638 1476 1417
0 0 0 0 0 0 0 0 0 0 0 0 0 0 0 0 0 0 0 0 0 0 0 0 423 1513 2191 2364 2343 2301 2261 2232 2246 2325 2492 2180 2003 1975 1767 1642 1708 2042 1753 2020 1853 1783 1676 1448 1347
0 0 0 0 0 0 0 0 0 0 0 0 0 0 0 0 0 0 0 0 0 0 0 0 0 6 923 1650 2183 2111 2084 1967 2079 2012 2160 2280 2409 2339 1932 1796 1715 1504 1837 2164 1856 1887 1692 1680 1480
0 0 0 0 0 0 0 0 0 0 0 0 0 0 0 0 0 0 0 0 0 0 0 0 0 0 0 658 1355 1696 1892 1745 1582 1721 1893 1914 2071 2334 2137 2017 2027 1658 1709 1959 1960 2043 1798 1763 1520
0 0 0 0 0 0 0 0 0 0 0 0 0 0 0 0 0 0 0 0 0 0 0 0 0 0 0 0 50 953 1159 1759 1711 1507 1743 1948 2043 2214 2305 1987 1923 1934 1620 2054 1948 1933 1814 1681 1467
0 0 0 0 0 0 0 0 0 0 0 0 0 0 0 0 0 0 0 0 0 0 0 0 0 0 0 0 0 6 786 1371 1678 1761 1797 1940 1850 1931 2241 2045 1847 1870 1666 1936 1746 1806 1747 1678 1415
0 0 0 0 0 0 0 0 0 0 0 0 0 0 0 0 0 0 0 0 0 0 0 0 0 0 0 0 0 0 3 927 1394 1562 1964 2105 2131 2065 2288 2083 1847 1776 1481 1693 1412 1206 1275 1168 1247
0 0 0 0 0 0 0 0 0 0 0 0 0 0 0 0 0 0 0 0 0 0 0 0 0 0 0 0 0 0 0 24 768 1234 1526 2124 2212 2255 2236 2066 1902 1724 1352 1689 1366 1100 1033 971 925
0 0 0 0 0 0 0 0 0 0 0 0 0 0 0 0 0 0 0 0 0 0 0 0 0 0 0 0 0 0 0 0 149 915 1329 1800 2220 2279 1984 1969 1911 1704 1505 1627 1377 1039 856 806 696
0 0 0 0 0 0 0 0 0 0 0 0 0 0 2 3 0 0 0 0 0 0 0 0 0 0 0 0 0 0 0 0 2 992 1216 1534 2065 2163 1908 1883 1995 1670 1484 1370 1251 1069 765 635 558
0 0 0 0 1 0 0 0 0 0 0 0 0 0 12 5 0 0 0 0 0 0 0 0 0 0 0 0 0 1 0 0 0 283 1125 1468 1682 1890 2056 2003 1732 1537 1425 1280 1201 1099 865 783 472
1 0 0 2 0 0 0 0 0 0 0 0 4 27 32 0 0 0 0 0 0 0 0 0 0 0 0 0 0 0 2 1 0 66 1082 1454 1814 1989 2023 2017 1727 1453 1203 1191 1207 1006 862 854 601
0 1 0 3 5 1 0 0 0 0 0 3 27 54 9 0 0 0 0 0 0 0 0 1 0 0 0 0 0 2 3 2 0 186 939 1550 1893 1749 1932 1753 1581 1351 1272 1124 1146 533 1053 942 729
2 3 0 0 1 4 0 0 0 0 1 10 40 27 5 0 0 0 0 0 0 0 0 1 1 0 0 0 2 3 3 2 5 38 643 1591 1799 1675 1505 1594 1310 1339 1287 437 64 1 648 978 859
1 0 0 0 0 0 0 0 0 41 88 22 5 0 1 0 0 0 0 0 0 0 0 1 1 0 0 2 3 3 4 5 3 4 619 1283 1791 1662 1406 1421 1254 1256 1121 558 577 946 1127 1074 792
1 0 0 0 0 2 0 9 62 24 17 37 19 3 0 0 0 0 0 0 0 0 0 3 1 0 1 4 4 4 4 5 34 571 904 1435 1861 1684 1334 1400 1218 1235 1093 944 840 628 589 765 835
2 1 0 0 6 9 0 0 8 46 33 14 0 0 0 0 0 0 0 0 0 0 0 2 0 2 2 3 5 5 6 8 331 916 1140 1447 1640 1715 1487 1373 1036 662 408 540 412 295 408 659 847
3 5 2 1 2 8 9 3 17 7 0 1 0 0 0 0 0 0 0 0 0 0 0 1 1 2 3 4 4 6 7 7 6 871 994 1221 1369 1339 1146 1185 782 652 417 98 85 100 124 459 556
0 0 0 1 2 0 0 0 0 4 0 0 0 0 0 0 0 0 0 0 0 0 0 1 1 2 1 3 5 3 6 6 9 2 148 964 1196 1091 912 799 692 600 388 345 79 35 77 235 383

GFSSGP_con_mlcape_108.txt.gz
CAPE
0 0 0 0 0 0 0 0 0 0 0 0 0 0 0 0 0 0 0 13 539 2303 1662 1132 1177 1063 1072 1142 1266 1277 1132 1167 1207 1119 980 970 987 949 1160 1392 1575 1490 1696 1980 1874 1681 1789 1755 1603
0 0 0 0 0 0 0 0 0 0 0 0 0 0 0 0 0 0 0 0 722 1891 2445 1358 1123 1183 1159 1176 1256 1349 1426 1378 1344 1343 1270 1152 1047 1049 1229 1431 1598 1577 2044 2002 1850 2014 1978 1863 1508
0 0 0 0 0 0 0 0 0 0 0 0 0 0 0 0 0 0 0 0 1045 885 2685 2128 1210 1121 1267 1202 1270 1333 1444 1563 1557 1540 1513 1247 1128 1093 1184 1382 1501 1521 1973 1888 2105 2258 2109 1957 1757
0 0 0 0 0 0 0 0 0 0 0 0 0 0 0 0 0 0 0 0 1050 1701 1848 2299 1713 1243 1300 1209 1266 1386 1549 1692 1710 1607 1632 1393 1297 1267 1242 1358 1497 1578 2090 2037 2100 2059 2011 1805 1635
0 0 0 0 0 0 0 0 0 0 0 0 0 0 0 0 0 0 0 18 1466 2349 2294 2208 1889 1499 1286 1255 1259 1472 1688 1753 1762 1645 1635 1588 1469 1436 1373 1307 1460 1782 2209 2136 1976 2016 1897 1728 1395
0 0 0 0 0 0 0 0 0 0 0 0 0 0 0 0 0 0 0 0 1421 2363 2701 2017 1810 1647 1336 1220 1178 1453 1698 1826 1807 1755 1789 1837 1695 1617 1512 1347 1348 1575 1873 2100 2064 1959 1707 1296 1236
0 0 0 0 0 0 0 0 0 0 0 0 0 0 0 0 0 0 0 0 920 2387 2913 2666 2108 1754 1454 1206 1170 1298 1541 1792 1919 1923 1960 1989 1924 1812 1670 1440 1359 1499 1605 2127 1864 1759 1756 1303 1149
0 0 0 0 0 0 0 0 0 0 0 0 0 0 0 0 0 0 0 0 54 2278 2482 2903 2914 2146 1645 1338 1136 1168 1309 1454 1667 1932 2074 2071 2035 1972 1888 1552 1420 1473 1822 1947 1776 1745 1701 1455 1160
0 0 0 0 0 0 0 0 0 0 0 0 0 0 0 0 0 0 0 0 0 1756 2319 2197 2598 2489 2159 1969 1464 1106 1146 1194 1354 1571 1845 1991 2199 2113 2068 1786 1632 1618 1897 1798 1727 1684 1611 1459 1190
0 0 0 0 0 0 0 0 0 0 0 0 0 0 0 0 0 0 0 0 0 10 2521 2223 2150 2460 2416 2487 2162 1332 1277 1182 1218 1415 1604 1970 2191 2537 2354 2150 1826 1861 1787 1801 1725 1623 1555 1442 1367
0 0 0 0 0 0 0 0 0 0 0 0 0 0 0 0 0 0 0 0 0 0 1710 2635 2153 1915 1988 2172 2583 2073 1797 1545 1556 1563 1794 1727 1977 2242 2208 2262 1995 2056 1872 1891 1704 1489 1518 1608 1576
0 0 0 0 0 0 0 0 0 0 0 0 0 0 0 0 0 0 0 0 0 0 0 2343 2509 2275 1927 1911 2200 2654 2563 2162 2084 1922 2020 2220 1889 2029 2356 1955 2270 2138 2193 1962 1819 1654 1783 1685 1632
0 0 0 0 0 0 0 0 0 0 0 0 0 0 0 0 0 0 0 0 0 0 0 0 45 1427 2209 1834 2069 2215 2220 2389 2382 2549 2390 2251 2363 2245 2210 2192 2031 2190 2107 2070 1804 1864 1849 1728 1469
0 0 0 0 0 0 0 0 0 0 0 0 0 0 0 0 0 0 0 0 0 0 0 0 0 0 0 1644 1564 1725 1939 2107 2426 2396 2445 2616 2621 2161 2080 2117 1668 2166 1757 1834 1809 1738 1803 1710 1535
0 0 0 0 0 0 0 0 0 0 0 0 0 0 0 0 0 0 0 0 0 0 0 0 0 0 0 0 52 1463 1605 1671 1863 2233 2364 2159 2371 2492 2337 2169 1999 1546 1989 1415 1708 1768 1809 1661 1612
0 0 0 0 0 0 0 0 0 0 0 0 0 0 0 0 0 0 0 0 0 0 0 0 0 0 0 0 0 0 6 1725 1890 1860 2136 2347 2047 1904 2223 2153 1863 1998 1648 1849 1966 1703 1859 1619 1593
0 0 0 0 0 0 0 0 0 0 0 0 0 0 0 0 0 0 0 0 0 0 0 0 0 0 0 0 0 0 0 0 1443 1898 1824 2028 2064 1810 2052 2175 2103 1777 1730 1663 2010 1776 1759 1665 1509
0 0 0 0 0 3 2 0 0 0 0 0 0 0 0 0 0 0 0 0 0 0 0 0 0 0 0 0 0 0 0 0 1 1102 2010 1882 2010 1967 1880 2184 2126 2010 1750 1620 2068 1771 1778 1631 1422
10 9 15 5 0 1 0 0 0 0 0 0 0 0 0 0 2 0 0 0 0 0 0 0 0 0 0 0 0 0 0 0 0 26 1010 1834 1975 1972 1920 2049 2010 1866 1806 1719 1937 1621 1449 1319 1267
25 20 0 20 0 1 0 0 0 0 0 0 0 0 0 0 2 0 0 0 0 0 0 0 0 0 0 0 0 0 0 0 0 0 1 877 1368 1662 1907 2044 1980 1774 1518 1452 1705 1320 1208 1094 943
0 21 0 11 0 0 0 0 0 0 0 0 0 0 0 17 10 0 0 0 0 0 0 0 0 0 0 0 0 0 0 0 0 0 0 0 1259 1426 1627 2012 1986 1531 878 160 1400 1255 1092 921 951
11 8 26 5 0 0 0 0 0 0 0 0 0 0 35 23 0 0 0 0 0 0 0 0 0 0 0 0 0 0 0 1 0 0 0 0 1125 1293 1685 1705 1784 1461 1010 1030 635 1130 1097 786 769
0 0 1 4 1 4 0 0 0 0 0 0 1 44 57 0 0 0 0 0 0 0 0 0 0 0 0 0 0 0 1 1 0 0 0 0 3 1274 1425 1649 1640 1594 1209 620 1097 1079 974 709 600
0 1 1 3 1 0 0 0 0 0 0 0 14 67 1 0 0 0 0 0 0 0 0 0 0 0 0 0 0 0 1 2 3 3 0 0 1 192 1158 1331 1794 1722 1413 1273 1078 227 787 800 781
0 0 0 0 0 0 1 1 0 0 0 2 47 13 0 0 0 0 0 0 0 0 0 0 0 0 0 0 0 1 2 3 4 3 4 0 0 126 412 908 1687 1731 1391 1196 1042 670 326 731 851
0 0 0 0 1 3 0 0 0 4 40 23 1 3 0 0 0 0 0 0 0 0 0 0 0 0 0 0 1 1 2 2 2 3 3 3 0 27 470 524 1290 1359 1395 1317 1178 963 728 583 530
1 1 0 1 0 0 0 0 0 6 2 0 0 4 0 0 0 0 0 0 0 0 0 0 0 0 1 1 1 2 2 3 4 4 2 4 2 0 849 1320 1242 1258 1305 1290 848 481 404 35 62
0 1 6 0 1 0 3 0 4 11 0 0 0 0 0 0 0 0 0 0 0 0 0 0 0 0 2 1 0 2 3 2 3 4 7 4 29 547 1006 1227 1226 1195 1231 1148 802 649 517 754 910
3 3 5 0 1 3 1 0 4 1 2 0 0 0 0 0 0 0 0 0 0 0 0 0 0 0 3 2 0 2 3 4 3 7 7 8 2 650 1046 1212 1226 1097 1092 1063 1026 880 784 491 611
0 3 3 5 0 0 1 0 2 3 9 1 0 0 0 0 0 0 0 0 0 0 1 0 0 1 2 2 1 1 3 4 5 7 7 9 8 10 749 992 962 1028 821 712 718 690 577 445 268

GFSSGP_con_mlcape_111.txt.gz
CAPE
0 0 0 0 0 0 0 0 0 0 0 0 0 0 0 0 0 0 8 334 1698 1690 1104 1245 1175 1183 1318 1284 1105 1036 1043 1060 970 803 609 627 553 556 647 704 1079 1346 1479 1510 1553 1473 1383 1366 1285
0 0 0 0 0 0 0 0 0 0 0 0 0 0 0 0 0 0 0 107 1511 1888 1400 1156 1178 1177 1249 1343 1347 1193 1226 1235 1135 1031 826 721 658 685 825 897 908 1080 1411 1515 1441 1374 1426 1446 1241
0 0 0 0 0 0 0 0 0 0 0 0 0 0 0 0 0 0 0 298 1031 2368 1790 1327 1203 1177 1179 1205 1344 1409 1361 1323 1338 1273 1130 919 796 875 1023 1077 1156 1149 1966 1988 1624 1661 1832 1649 1356
0 0 0 0 0 0 0 0 0 0 0 0 0 0 0 0 0 0 0 259 1124 2169 2195 1725 1311 1249 1260 1189 1254 1387 1486 1462 1455 1496 1444 1083 956 1032 1082 1103 1159 1371 1998 1879 2149 2079 1790 1674 1579
0 0 0 0 0 0 0 0 0 0 0 0 0 0 0 0 0 0 0 151 210 2355 2323 1987 1630 1088 1141 1245 1255 1343 1490 1593 1578 1642 1616 1354 1144 1119 1100 1126 1165 1263 1870 2054 2017 1791 1630 1592 1381
0 0 0 0 0 0 0 0 0 0 0 0 0 0 0 0 0 0 0 92 946 1904 2236 1957 1710 1456 1168 1170 1217 1346 1533 1689 1708 1656 1660 1595 1331 1183 1167 1177 1238 1359 1898 2146 2003 1759 1654 1485 1235
0 0 0 0 0 0 0 0 0 0 0 0 0 0 0 0 0 0 0 0 1396 2038 2379 1986 1813 1666 1485 1196 1135 1301 1580 1760 1763 1670 1621 1674 1508 1341 1293 1271 1309 1420 1682 1879 1988 1863 1617 1265 959
0 0 0 0 0 0 0 0 0 0 0 0 0 0 0 0 0 0 0 0 1774 2216 2187 2300 2105 1901 1606 1324 1146 1192 1410 1675 1784 1770 1757 1824 1792 1667 1554 1417 1399 1387 1467 1534 2020 1798 1581 1400 989
0 0 0 0 0 0 0 0 0 0 0 0 0 0 0 0 0 0 0 0 251 1955 2241 2609 2516 2038 1756 1402 1185 1126 1281 1467 1732 1920 1954 1953 1995 1935 1837 1685 1468 1411 1377 1433 1862 1624 1542 1444 1165
0 0 0 0 0 0 0 0 0 0 0 0 0 0 0 0 0 0 0 0 0 1252 1993 1873 2371 2272 1912 1726 1314 1005 1051 1158 1355 1612 1786 1953 1985 1942 1956 1823 1579 1398 1391 1597 1727 1636 1485 1363 1127
0 0 0 0 0 0 0 0 0 0 0 0 0 0 0 0 0 0 0 0 0 329 1998 2037 2039 2288 2050 2307 1883 1363 928 934 1050 1200 1393 1636 1871 2024 1952 1841 1701 1566 1558 1650 1676 1607 1465 1291 1144
0 0 0 0 0 0 0 0 0 0 0 0 0 0 0 0 0 0 0 0 0 0 710 2313 2125 1993 1912 1661 2305 2005 1417 978 936 1007 1297 1241 1404 1762 2187 2038 1847 1613 1702 1584 1500 1416 1400 1246 1226
0 0 0 0 0 0 0 0 0 0 0 0 0 0 0 0 0 0 0 0 0 0 0 42 1152 1186 1515 1717 1843 2446 2133 1774 1453 1210 1318 1577 1406 1400 1763 2078 2065 1939 1820 1662 1569 1453 1353 1176 1177
0 0 0 0 0 0 0 0 0 0 0 0 0 0 0 0 0 0 0 0 0 0 0 0 0 0 0 154 956 1485 1716 1921 2056 1969 1692 1771 1837 1676 1672 1907 1902 2029 1983 1789 1617 1514 1466 1438 1341
0 0 0 0 0 0 0 0 0 0 0 0 0 0 0 0 0 0 0 0 0 0 0 0 0 0 0 0 0 0 242 1352 1314 1579 1826 1980 1929 2079 1883 1792 1797 1878 1922 1831 1595 1388 1403 1573 1487
0 0 0 0 0 0 0 0 0 0 0 0 0 0 0 0 0 0 0 0 0 0 0 0 0 0 0 0 0 0 0 0 0 1054 1304 1443 1768 1941 2231 1865 1776 1488 1724 1644 1633 1432 1366 1394 1415
0 0 0 0 0 0 0 0 0 0 0 0 0 0 0 0 0 0 0 0 0 0 0 0 0 0 0 0 0 0 0 0 0 0 325 1405 1478 1658 1698 1897 2036 1738 1510 1525 1502 1343 1275 1373 1341
0 0 0 0 0 0 0 0 0 0 0 0 0 0 0 0 0 0 0 0 0 0 0 0 0 0 0 0 0 0 0 0 0 0 0 59 1480 1645 1492 1424 1671 1812 1693 1485 1534 1451 1322 1291 1354
0 0 0 0 0 0 0 0 0 0 0 0 0 0 0 0 2 0 0 0 0 0 0 0 0 0 0 0 0 0 0 0 0 0 0 0 38 1206 1612 1645 1493 1409 1501 1523 1347 1450 1518 1321 1304
0 0 0 0 0 2 0 0 0 0 0 0 0 0 0 5 3 0 0 0 0 0 0 0 0 0 0 0 0 0 0 0 0 0 0 0 0 0 742 1556 1615 1682 1393 1352 1218 1090 1158 1206 1274
0 1 0 0 0 0 0 0 0 0 0 0 1 0 0 1 0 0 0 0 0 0 0 0 0 0 0 0 0 0 0 0 0 0 0 0 0 0 0 555 1424 1709 1527 1250 1058 999 695 593 929
0 0 0 0 0 0 0 3 0 0 0 0 2 0 0 0 0 0 0 0 0 0 0 0 0 0 0 0 0 0 0 0 0 0 0 0 0 0 0 4 786 1149 1448 1118 823 437 17 0 9
0 0 0 0 0 0 0 0 0 0 0 0 0 0 0 0 0 0 0 0 0 0 0 0 0 0 0 0 0 0 0 1 1 1 1 0 0 0 0 0 31 708 957 902 627 162 0 25 273
0 0 0 0 0 0 0 0 0 0 1 0 12 3 0 0 0 0 0 0 0 0 0 0 0 0 0 0 0 0 1 1 3 2 4 3 1 0 0 0 0 521 596 674 646 449 210 326 293
0 0 0 0 0 0 0 0 0 0 0 6 1 0 0 0 0 0 0 0 0 0 0 0 0 0 0 0 0 1 1 3 4 5 4 4 3 4 2 0 0 56 646 488 500 641 624 546 549
0 0 0 0 0 0 0 0 0 30 3 3 7 0 0 0 0 0 0 0 0 0 0 0 0 0 0 0 1 0 0 2 3 3 3 3 3 3 1 2 0 4 103 324 494 601 435 433 590
0 0 0 0 0 0 0 0 0 0 4 6 2 0 0 0 0 0 0 0 0 0 0 0 0 0 0 1 1 0 1 2 4 3 2 3 4 3 3 2 1 0 0 5 330 380 354 352 260
0 0 0 0 0 0 0 0 0 0 0 3 1 0 0 0 0 0 0 0 0 0 0 0 0 1 1 1 1 2 2 2 2 3 3 4 3 3 5 2 0 19 2 0 331 508 574 552 223
0 3 8 6 2 0 0 0 0 0 0 1 0 0 0 0 0 0 0 0 0 0 0 0 0 1 1 1 1 3 3 2 2 3 3 4 4 4 10 1 162 370 457 319 368 582 604 589 357
0 0 3 3 0 1 0 0 3 0 2 3 0 0 0 0 0 0 0 0 0 0 0 0 0 1 1 1 1 2 1 2 3 3 3 3 5 5 6 7 4 450 353 196 374 482 553 487 445

GFSSGP_con_mlcape_114.txt.gz
CAPE
0 0 0 0 0 0 0 0 0 0 0 0 0 0 0 0 0 0 58 866 1634 1443 1109 1390 1383 1367 1366 1364 1298 1117 906 870 720 481 445 456 451 538 718 969 1225 1371 1402 1401 1416 1502 1606 1503 1417
0 0 0 0 0 0 0 0 0 0 0 0 0 0 0 0 0 0 0 1051 1657 1509 1241 1249 1365 1433 1352 1205 1180 1213 1226 1061 902 665 544 476 440 468 596 874 1151 1313 1375 1333 1330 1307 1330 1358 1216
0 0 0 0 0 0 0 0 0 0 0 0 0 0 0 0 0 0 86 1240 1792 1809 1384 1257 1254 1272 1414 1251 1121 1201 1313 1248 1086 896 721 644 595 644 623 700 905 1053 1174 1236 1351 1445 1426 1366 1204
0 0 0 0 0 0 0 0 0 0 0 0 0 0 0 0 0 0 408 1016 1939 2106 1691 1305 1231 1222 1253 1336 1319 1224 1328 1278 1211 1133 929 770 820 882 835 766 800 986 1421 1833 1613 1557 1893 1700 1424
0 0 0 0 0 0 0 0 0 0 0 0 0 0 0 0 0 0 0 0 487 1879 1943 1446 1299 1275 1194 1215 1325 1367 1342 1334 1334 1311 1261 958 920 995 979 968 994 1150 1711 1795 2169 2117 1900 1702 1591
0 0 0 0 0 0 0 0 0 0 0 0 0 0 0 0 0 0 0 35 609 1336 1996 1888 1584 1390 1242 1202 1214 1341 1398 1393 1396 1459 1545 1273 983 1013 1017 1047 1072 1146 1581 1730 1986 1883 1592 1584 1472
0 0 0 0 0 0 0 0 0 0 0 0 0 0 0 0 0 0 0 502 1119 1463 1602 1903 1762 1441 1146 1122 1186 1263 1377 1456 1528 1580 1644 1581 1120 988 1045 1054 1073 1098 1282 1788 2011 1859 1592 1532 1418
0 0 0 0 0 0 0 0 0 0 0 0 0 0 0 0 0 0 0 27 1255 1769 1719 1715 1749 1635 1504 1285 1213 1262 1376 1496 1578 1657 1687 1655 1367 1116 1076 1072 1160 1158 1245 1788 1933 1841 1750 1415 1142
0 0 0 0 0 0 0 0 0 0 0 0 0 0 0 0 0 0 0 0 1022 1987 1929 1866 1844 1798 1676 1516 1292 1299 1385 1535 1707 1727 1697 1658 1704 1505 1353 1260 1204 1239 1269 1486 1641 1836 1703 1449 1272
0 0 0 0 0 0 0 0 0 0 0 0 0 0 0 0 0 0 0 0 11 1389 2180 2192 2111 2027 1709 1601 1403 1233 1388 1497 1664 1829 1818 1827 1792 1751 1711 1561 1373 1315 1216 1238 1374 1735 1602 1446 1283
0 0 0 0 0 0 0 0 0 0 0 0 0 0 0 0 0 0 0 0 0 0 1096 2330 2174 2155 1765 1690 1305 1091 1083 1165 1391 1587 1716 1782 1813 1852 1882 1756 1617 1426 1335 1267 1329 1598 1561 1389 1216
0 0 0 0 0 0 0 0 0 0 0 0 0 0 0 0 0 0 0 0 0 0 109 1988 2064 2097 2069 2014 1730 1331 975 914 956 1083 1358 1450 1570 1642 1757 1694 1591 1421 1348 1187 1188 1368 1457 1321 1229
0 0 0 0 0 0 0 0 0 0 0 0 0 0 0 0 0 0 0 0 0 0 317 1739 1589 1161 1637 2031 2068 2102 1814 1149 855 834 1022 1160 1171 1211 1538 1633 1521 1429 1358 1311 1189 1236 1295 1283 1206
0 0 0 0 0 0 0 0 0 0 0 0 0 0 0 0 0 0 0 0 0 0 0 0 0 0 0 57 55 410 1185 1439 1170 1068 905 1143 1076 1094 1185 1553 1753 1730 1556 1382 1326 1249 1250 1248 1238
0 0 0 0 0 0 0 0 0 0 0 0 0 0 0 0 0 0 0 0 0 0 0 0 0 0 0 0 0 0 0 0 274 1294 1505 1349 1321 1320 1266 1188 1497 1877 1811 1689 1537 1392 1273 1264 1216
0 0 0 0 0 0 0 0 0 0 0 0 0 0 0 0 0 0 0 0 0 0 0 0 0 0 0 0 0 0 0 0 0 0 0 508 1526 1574 1379 1443 1280 1315 1870 1783 1711 1584 1390 1291 1247
0 0 0 0 0 0 0 0 0 0 0 0 0 0 0 0 0 0 0 0 0 0 0 0 0 0 0 0 0 0 0 0 0 0 0 0 0 651 1265 1216 1046 1120 1247 1605 1693 1586 1440 1175 1101
0 0 0 0 0 0 0 0 0 0 0 0 0 0 0 0 0 0 0 0 0 0 0 0 0 0 0 0 0 0 0 0 0 0 0 0 0 0 310 1090 1097 924 817 961 1199 1489 1397 1258 1057
0 0 0 0 0 0 0 0 0 0 0 0 0 0 0 0 0 0 0 0 0 0 0 0 0 0 0 0 0 0 0 0 0 0 0 0 0 0 0 0 912 1084 984 968 902 880 1002 1058 1073
0 0 0 0 0 0 0 0 0 0 0 0 0 0 0 0 0 0 0 0 0 0 0 0 0 0 0 0 0 0 0 0 0 0 0 0 0 0 0 0 0 398 1075 1072 808 798 714 738 671
0 0 0 0 0 0 0 0 0 0 0 0 0 0 35 0 0 0 0 0 0 0 0 0 0 0 0 0 0 0 0 0 0 0 0 0 0 0 0 0 0 0 223 1016 1154 710 659 544 416
0 0 0 0 0 0 0 0 0 0 0 0 0 0 0 0 0 0 0 0 0 0 0 0 0 0 0 0 0 0 0 0 0 0 0 0 0 0 0 0 0 0 0 71 832 818 648 484 146
0 0 0 0 0 0 0 0 0 0 0 0 0 0 0 0 0 0 0 0 0 0 0 0 0 0 0 0 0 0 0 1 0 1 2 0 0 0 0 0 0 0 0 0 520 745 372 196 11
0 0 0 0 0 0 0 0 0 0 0 2 0 1 0 0 0 0 0 0 0 0 0 0 0 0 0 0 0 1 2 3 3 2 4 3 1 0 0 1 2 2 0 0 86 587 351 35 6
0 0 0 0 0 0 0 0 0 14 0 1 0 0 3 0 0 0 0 0 0 0 0 0 0 0 0 0 0 0 0 2 5 4 5 5 5 4 3 2 3 2 3 1 0 240 123 85 24
0 0 0 0 0 0 0 0 0 2 2 2 5 4 2 3 0 0 0 0 0 0 0 0 0 0 0 0 0 1 0 2 2 3 4 4 4 3 3 3 4 5 3 3 1 120 232 146 150
0 0 0 0 0 0 0 0 0 0 0 0 0 1 2 3 0 0 0 0 0 0 0 0 0 0 0 0 1 2 2 2 3 1 2 2 2 2 3 5 4 5 3 2 1 15 190 337 256
0 0 0 0 0 0 0 0 0 0 0 0 0 0 0 2 1 0 0 0 0 0 0 0 0 1 2 1 2 1 1 1 2 2 3 3 4 4 5 5 4 5 4 1 1 0 95 218 39
0 0 1 0 0 0 0 0 0 0 2 1 1 0 0 0 0 0 0 0 0 0 0 0 0 0 2 1 0 0 0 0 2 2 2 3 4 4 4 5 5 6 6 2 0 0 35 201 101
0 0 7 0 0 0 0 0 0 0 7 0 1 1 0 0 0 0 0 0 0 0 0 0 0 1 2 1 0 0 0 0 0 2 2 3 4 3 4 4 5 8 4 1 70 23 21 72 99